<?xml version='1.0' encoding='UTF-8'?><gpx version="1.1" creator="JPX - https://github.com/jenetics/jpx" xmlns="http://www.topografix.com/GPX/1/1"><trk><trkseg><trkpt lat="43.6525445" lon="11.4447204"><ele>147.0</ele><time>2026-04-08T15:48:04.641Z</time></trkpt><trkpt lat="43.6525634" lon="11.4448594"><ele>147.0</ele><time>2026-04-08T15:48:05.642Z</time></trkpt><trkpt lat="43.652576" lon="11.4449776"><ele>147.0</ele><time>2026-04-08T15:48:06.642Z</time></trkpt><trkpt lat="43.6525953" lon="11.4450747"><ele>147.0</ele><time>2026-04-08T15:48:07.641Z</time></trkpt><trkpt lat="43.6526108" lon="11.4451701"><ele>147.0</ele><time>2026-04-08T15:48:08.641Z</time></trkpt><trkpt lat="43.652625" lon="11.445262"><ele>147.0</ele><time>2026-04-08T15:48:09.641Z</time></trkpt><trkpt lat="43.6526373" lon="11.4453497"><ele>147.0</ele><time>2026-04-08T15:48:10.641Z</time></trkpt><trkpt lat="43.6527257" lon="11.4453893"><ele>147.0</ele><time>2026-04-08T15:48:12.641Z</time></trkpt><trkpt lat="43.6527959" lon="11.4453469"><ele>147.0</ele><time>2026-04-08T15:48:13.641Z</time></trkpt><trkpt lat="43.6528728" lon="11.4452821"><ele>147.0</ele><time>2026-04-08T15:48:14.641Z</time></trkpt><trkpt lat="43.652977" lon="11.4452335"><ele>147.0</ele><time>2026-04-08T15:48:15.642Z</time></trkpt><trkpt lat="43.6530764" lon="11.4451863"><ele>146.5</ele><time>2026-04-08T15:48:16.642Z</time></trkpt><trkpt lat="43.6531966" lon="11.445157"><ele>146.0</ele><time>2026-04-08T15:48:17.641Z</time></trkpt><trkpt lat="43.6533264" lon="11.4451441"><ele>145.5</ele><time>2026-04-08T15:48:18.641Z</time></trkpt><trkpt lat="43.653441" lon="11.445145"><ele>145.0</ele><time>2026-04-08T15:48:19.642Z</time></trkpt><trkpt lat="43.6535237" lon="11.4451371"><ele>146.2</ele><time>2026-04-08T15:48:20.641Z</time></trkpt><trkpt lat="43.6536293" lon="11.4450327"><ele>147.4</ele><time>2026-04-08T15:48:22.642Z</time></trkpt><trkpt lat="43.6537104" lon="11.4449441"><ele>148.6</ele><time>2026-04-08T15:48:24.641Z</time></trkpt><trkpt lat="43.6537735" lon="11.4449537"><ele>149.8</ele><time>2026-04-08T15:48:25.641Z</time></trkpt><trkpt lat="43.6538533" lon="11.4449691"><ele>151.0</ele><time>2026-04-08T15:48:26.642Z</time></trkpt><trkpt lat="43.6539221" lon="11.4450345"><ele>151.0</ele><time>2026-04-08T15:48:27.642Z</time></trkpt><trkpt lat="43.6539928" lon="11.4451436"><ele>151.0</ele><time>2026-04-08T15:48:28.641Z</time></trkpt><trkpt lat="43.6540562" lon="11.4452503"><ele>151.0</ele><time>2026-04-08T15:48:29.641Z</time></trkpt><trkpt lat="43.6541193" lon="11.4453482"><ele>151.0</ele><time>2026-04-08T15:48:30.641Z</time></trkpt><trkpt lat="43.6541607" lon="11.4454195"><ele>151.0</ele><time>2026-04-08T15:48:31.641Z</time></trkpt><trkpt lat="43.6542205" lon="11.4455203"><ele>151.0</ele><time>2026-04-08T15:48:33.641Z</time></trkpt><trkpt lat="43.6543004" lon="11.4455456"><ele>151.0</ele><time>2026-04-08T15:48:36.641Z</time></trkpt><trkpt lat="43.6543153" lon="11.4453998"><ele>151.0</ele><time>2026-04-08T15:48:38.641Z</time></trkpt><trkpt lat="43.654282" lon="11.4452945"><ele>151.0</ele><time>2026-04-08T15:48:39.641Z</time></trkpt><trkpt lat="43.6542452" lon="11.4451657"><ele>151.0</ele><time>2026-04-08T15:48:40.642Z</time></trkpt><trkpt lat="43.6541945" lon="11.4450372"><ele>151.0</ele><time>2026-04-08T15:48:41.641Z</time></trkpt><trkpt lat="43.6541621" lon="11.4448925"><ele>151.0</ele><time>2026-04-08T15:48:42.641Z</time></trkpt><trkpt lat="43.6541377" lon="11.4447586"><ele>151.0</ele><time>2026-04-08T15:48:43.641Z</time></trkpt><trkpt lat="43.65412" lon="11.4446399"><ele>151.0</ele><time>2026-04-08T15:48:44.641Z</time></trkpt><trkpt lat="43.6541023" lon="11.4445368"><ele>151.0</ele><time>2026-04-08T15:48:45.641Z</time></trkpt><trkpt lat="43.6540831" lon="11.4444148"><ele>153.83333333333334</ele><time>2026-04-08T15:48:47.641Z</time></trkpt><trkpt lat="43.6540635" lon="11.4442848"><ele>156.66666666666669</ele><time>2026-04-08T15:48:50.642Z</time></trkpt><trkpt lat="43.6540723" lon="11.4441118"><ele>159.5</ele><time>2026-04-08T15:48:52.641Z</time></trkpt><trkpt lat="43.6540664" lon="11.4440211"><ele>162.33333333333334</ele><time>2026-04-08T15:48:53.641Z</time></trkpt><trkpt lat="43.6540562" lon="11.4439273"><ele>165.16666666666666</ele><time>2026-04-08T15:48:54.642Z</time></trkpt><trkpt lat="43.6540522" lon="11.4438399"><ele>168.0</ele><time>2026-04-08T15:48:55.641Z</time></trkpt><trkpt lat="43.6540407" lon="11.4437459"><ele>170.4</ele><time>2026-04-08T15:48:56.642Z</time></trkpt><trkpt lat="43.654025" lon="11.4436211"><ele>172.8</ele><time>2026-04-08T15:48:57.641Z</time></trkpt><trkpt lat="43.6540096" lon="11.4434858"><ele>175.2</ele><time>2026-04-08T15:48:58.641Z</time></trkpt><trkpt lat="43.6540004" lon="11.4433517"><ele>177.6</ele><time>2026-04-08T15:48:59.642Z</time></trkpt><trkpt lat="43.6540027" lon="11.4432179"><ele>180.0</ele><time>2026-04-08T15:49:00.642Z</time></trkpt><trkpt lat="43.6540279" lon="11.4430641"><ele>180.75</ele><time>2026-04-08T15:49:01.642Z</time></trkpt><trkpt lat="43.6540778" lon="11.4428941"><ele>181.5</ele><time>2026-04-08T15:49:02.641Z</time></trkpt><trkpt lat="43.6541373" lon="11.4427302"><ele>182.25</ele><time>2026-04-08T15:49:03.641Z</time></trkpt><trkpt lat="43.654215" lon="11.442573"><ele>183.0</ele><time>2026-04-08T15:49:04.641Z</time></trkpt><trkpt lat="43.6543083" lon="11.4424192"><ele>183.0</ele><time>2026-04-08T15:49:05.642Z</time></trkpt><trkpt lat="43.6544033" lon="11.4422564"><ele>183.0</ele><time>2026-04-08T15:49:06.641Z</time></trkpt><trkpt lat="43.6544669" lon="11.4420665"><ele>183.0</ele><time>2026-04-08T15:49:07.642Z</time></trkpt><trkpt lat="43.654507" lon="11.4418461"><ele>187.0</ele><time>2026-04-08T15:49:08.642Z</time></trkpt><trkpt lat="43.6545452" lon="11.4416314"><ele>191.0</ele><time>2026-04-08T15:49:09.642Z</time></trkpt><trkpt lat="43.6545809" lon="11.4414371"><ele>195.0</ele><time>2026-04-08T15:49:10.642Z</time></trkpt><trkpt lat="43.6545994" lon="11.4412516"><ele>199.0</ele><time>2026-04-08T15:49:11.641Z</time></trkpt><trkpt lat="43.6545996" lon="11.4410492"><ele>200.66666666666666</ele><time>2026-04-08T15:49:12.642Z</time></trkpt><trkpt lat="43.6545715" lon="11.4408338"><ele>202.33333333333331</ele><time>2026-04-08T15:49:13.642Z</time></trkpt><trkpt lat="43.6545412" lon="11.4406195"><ele>204.0</ele><time>2026-04-08T15:49:14.641Z</time></trkpt><trkpt lat="43.6545052" lon="11.4404192"><ele>206.25</ele><time>2026-04-08T15:49:15.642Z</time></trkpt><trkpt lat="43.6544687" lon="11.4402322"><ele>208.5</ele><time>2026-04-08T15:49:16.641Z</time></trkpt><trkpt lat="43.6544196" lon="11.4400695"><ele>210.75</ele><time>2026-04-08T15:49:17.641Z</time></trkpt><trkpt lat="43.65437" lon="11.4399198"><ele>213.0</ele><time>2026-04-08T15:49:18.641Z</time></trkpt><trkpt lat="43.6543444" lon="11.4398054"><ele>212.2</ele><time>2026-04-08T15:49:19.641Z</time></trkpt><trkpt lat="43.6543517" lon="11.4396907"><ele>211.4</ele><time>2026-04-08T15:49:20.642Z</time></trkpt><trkpt lat="43.6543795" lon="11.4395609"><ele>210.6</ele><time>2026-04-08T15:49:21.641Z</time></trkpt><trkpt lat="43.6544511" lon="11.4394106"><ele>209.79999999999998</ele><time>2026-04-08T15:49:22.641Z</time></trkpt><trkpt lat="43.6545343" lon="11.4392682"><ele>209.0</ele><time>2026-04-08T15:49:23.641Z</time></trkpt><trkpt lat="43.6546202" lon="11.4391377"><ele>211.2</ele><time>2026-04-08T15:49:24.642Z</time></trkpt><trkpt lat="43.6546729" lon="11.4389948"><ele>213.39999999999998</ele><time>2026-04-08T15:49:25.641Z</time></trkpt><trkpt lat="43.6546956" lon="11.4388532"><ele>215.6</ele><time>2026-04-08T15:49:26.641Z</time></trkpt><trkpt lat="43.6547032" lon="11.4387327"><ele>217.8</ele><time>2026-04-08T15:49:27.641Z</time></trkpt><trkpt lat="43.6546719" lon="11.4385911"><ele>220.0</ele><time>2026-04-08T15:49:28.642Z</time></trkpt><trkpt lat="43.6546103" lon="11.4384328"><ele>220.5</ele><time>2026-04-08T15:49:29.642Z</time></trkpt><trkpt lat="43.6545303" lon="11.4382627"><ele>221.0</ele><time>2026-04-08T15:49:30.641Z</time></trkpt><trkpt lat="43.6544465" lon="11.4381032"><ele>221.5</ele><time>2026-04-08T15:49:31.641Z</time></trkpt><trkpt lat="43.6544006" lon="11.4379423"><ele>222.0</ele><time>2026-04-08T15:49:32.641Z</time></trkpt><trkpt lat="43.6544069" lon="11.4377734"><ele>222.0</ele><time>2026-04-08T15:49:33.641Z</time></trkpt><trkpt lat="43.6544459" lon="11.4376106"><ele>222.0</ele><time>2026-04-08T15:49:34.642Z</time></trkpt><trkpt lat="43.6545209" lon="11.4374861"><ele>222.0</ele><time>2026-04-08T15:49:35.641Z</time></trkpt><trkpt lat="43.6546169" lon="11.4373767"><ele>222.0</ele><time>2026-04-08T15:49:36.641Z</time></trkpt><trkpt lat="43.6547122" lon="11.4372482"><ele>228.33333333333331</ele><time>2026-04-08T15:49:37.641Z</time></trkpt><trkpt lat="43.6548232" lon="11.4371073"><ele>234.66666666666666</ele><time>2026-04-08T15:49:38.641Z</time></trkpt><trkpt lat="43.6549114" lon="11.4369365"><ele>241.0</ele><time>2026-04-08T15:49:39.641Z</time></trkpt><trkpt lat="43.6549855" lon="11.4367493"><ele>241.0</ele><time>2026-04-08T15:49:40.641Z</time></trkpt><trkpt lat="43.6550575" lon="11.4365376"><ele>241.0</ele><time>2026-04-08T15:49:41.641Z</time></trkpt><trkpt lat="43.6551088" lon="11.4363274"><ele>241.0</ele><time>2026-04-08T15:49:42.642Z</time></trkpt><trkpt lat="43.6551321" lon="11.4361329"><ele>242.33333333333331</ele><time>2026-04-08T15:49:43.641Z</time></trkpt><trkpt lat="43.6551354" lon="11.4359856"><ele>243.66666666666666</ele><time>2026-04-08T15:49:44.642Z</time></trkpt><trkpt lat="43.6551533" lon="11.4358812"><ele>245.0</ele><time>2026-04-08T15:49:45.641Z</time></trkpt><trkpt lat="43.6551697" lon="11.4357415"><ele>246.33333333333331</ele><time>2026-04-08T15:49:47.641Z</time></trkpt><trkpt lat="43.6551793" lon="11.4356467"><ele>247.66666666666666</ele><time>2026-04-08T15:49:48.641Z</time></trkpt><trkpt lat="43.6551827" lon="11.4355313"><ele>249.0</ele><time>2026-04-08T15:49:49.641Z</time></trkpt><trkpt lat="43.655164" lon="11.435384"><ele>249.6</ele><time>2026-04-08T15:49:50.641Z</time></trkpt><trkpt lat="43.6551362" lon="11.4352158"><ele>250.2</ele><time>2026-04-08T15:49:51.641Z</time></trkpt><trkpt lat="43.6551177" lon="11.4350619"><ele>250.79999999999998</ele><time>2026-04-08T15:49:52.642Z</time></trkpt><trkpt lat="43.6551022" lon="11.4349415"><ele>251.39999999999998</ele><time>2026-04-08T15:49:53.642Z</time></trkpt><trkpt lat="43.6550927" lon="11.4348337"><ele>252.0</ele><time>2026-04-08T15:49:54.642Z</time></trkpt><trkpt lat="43.6550908" lon="11.4347298"><ele>252.0</ele><time>2026-04-08T15:49:55.641Z</time></trkpt><trkpt lat="43.6550864" lon="11.4346324"><ele>252.0</ele><time>2026-04-08T15:49:56.641Z</time></trkpt><trkpt lat="43.6550567" lon="11.4345212"><ele>252.0</ele><time>2026-04-08T15:49:57.641Z</time></trkpt><trkpt lat="43.6550036" lon="11.4344018"><ele>252.0</ele><time>2026-04-08T15:49:58.641Z</time></trkpt><trkpt lat="43.6549102" lon="11.4342905"><ele>252.0</ele><time>2026-04-08T15:49:59.642Z</time></trkpt><trkpt lat="43.6547905" lon="11.4342114"><ele>252.0</ele><time>2026-04-08T15:50:00.641Z</time></trkpt><trkpt lat="43.6546538" lon="11.4341391"><ele>252.0</ele><time>2026-04-08T15:50:01.642Z</time></trkpt><trkpt lat="43.6545086" lon="11.4340896"><ele>252.0</ele><time>2026-04-08T15:50:02.641Z</time></trkpt><trkpt lat="43.6543708" lon="11.4340337"><ele>252.0</ele><time>2026-04-08T15:50:03.641Z</time></trkpt><trkpt lat="43.6542417" lon="11.4339475"><ele>251.75</ele><time>2026-04-08T15:50:04.642Z</time></trkpt><trkpt lat="43.6541256" lon="11.4338209"><ele>251.5</ele><time>2026-04-08T15:50:05.641Z</time></trkpt><trkpt lat="43.6540195" lon="11.4336903"><ele>251.25</ele><time>2026-04-08T15:50:06.641Z</time></trkpt><trkpt lat="43.6539155" lon="11.4335307"><ele>251.0</ele><time>2026-04-08T15:50:07.641Z</time></trkpt><trkpt lat="43.653829" lon="11.4333249"><ele>251.0</ele><time>2026-04-08T15:50:08.641Z</time></trkpt><trkpt lat="43.6537774" lon="11.4330895"><ele>251.0</ele><time>2026-04-08T15:50:09.641Z</time></trkpt><trkpt lat="43.6537405" lon="11.4328475"><ele>251.0</ele><time>2026-04-08T15:50:10.641Z</time></trkpt><trkpt lat="43.6537397" lon="11.4326064"><ele>251.75</ele><time>2026-04-08T15:50:11.642Z</time></trkpt><trkpt lat="43.653757" lon="11.4323923"><ele>252.5</ele><time>2026-04-08T15:50:12.641Z</time></trkpt><trkpt lat="43.653789" lon="11.4322038"><ele>253.25</ele><time>2026-04-08T15:50:13.641Z</time></trkpt><trkpt lat="43.6538175" lon="11.4320207"><ele>254.0</ele><time>2026-04-08T15:50:14.642Z</time></trkpt><trkpt lat="43.6538392" lon="11.431824"><ele>255.0</ele><time>2026-04-08T15:50:15.642Z</time></trkpt><trkpt lat="43.6538298" lon="11.4316192"><ele>256.0</ele><time>2026-04-08T15:50:16.642Z</time></trkpt><trkpt lat="43.653786" lon="11.4314022"><ele>257.0</ele><time>2026-04-08T15:50:17.641Z</time></trkpt><trkpt lat="43.6537086" lon="11.4311776"><ele>257.5</ele><time>2026-04-08T15:50:18.641Z</time></trkpt><trkpt lat="43.6536396" lon="11.4309853"><ele>258.0</ele><time>2026-04-08T15:50:19.641Z</time></trkpt><trkpt lat="43.6535693" lon="11.4308066"><ele>258.5</ele><time>2026-04-08T15:50:20.641Z</time></trkpt><trkpt lat="43.65349" lon="11.4306871"><ele>259.0</ele><time>2026-04-08T15:50:21.641Z</time></trkpt><trkpt lat="43.6533916" lon="11.4306307"><ele>259.75</ele><time>2026-04-08T15:50:22.641Z</time></trkpt><trkpt lat="43.6532719" lon="11.4305812"><ele>260.5</ele><time>2026-04-08T15:50:23.641Z</time></trkpt><trkpt lat="43.6531324" lon="11.4305515"><ele>261.25</ele><time>2026-04-08T15:50:24.641Z</time></trkpt><trkpt lat="43.6529782" lon="11.4305145"><ele>262.0</ele><time>2026-04-08T15:50:25.642Z</time></trkpt><trkpt lat="43.652824" lon="11.4304883"><ele>265.25</ele><time>2026-04-08T15:50:26.641Z</time></trkpt><trkpt lat="43.6526754" lon="11.4304455"><ele>268.5</ele><time>2026-04-08T15:50:27.641Z</time></trkpt><trkpt lat="43.6525301" lon="11.4303998"><ele>271.75</ele><time>2026-04-08T15:50:28.641Z</time></trkpt><trkpt lat="43.6523953" lon="11.4303542"><ele>275.0</ele><time>2026-04-08T15:50:29.641Z</time></trkpt><trkpt lat="43.6522604" lon="11.4302768"><ele>275.0</ele><time>2026-04-08T15:50:30.641Z</time></trkpt><trkpt lat="43.6521256" lon="11.4301828"><ele>275.0</ele><time>2026-04-08T15:50:31.642Z</time></trkpt><trkpt lat="43.6519955" lon="11.4300658"><ele>275.0</ele><time>2026-04-08T15:50:32.641Z</time></trkpt><trkpt lat="43.6518627" lon="11.4299291"><ele>276.6666666666667</ele><time>2026-04-08T15:50:33.641Z</time></trkpt><trkpt lat="43.6517424" lon="11.4297715"><ele>278.3333333333333</ele><time>2026-04-08T15:50:34.642Z</time></trkpt><trkpt lat="43.6516386" lon="11.4295971"><ele>280.0</ele><time>2026-04-08T15:50:35.641Z</time></trkpt><trkpt lat="43.651543" lon="11.4294218"><ele>280.0</ele><time>2026-04-08T15:50:36.641Z</time></trkpt><trkpt lat="43.6514409" lon="11.4292456"><ele>280.0</ele><time>2026-04-08T15:50:37.641Z</time></trkpt><trkpt lat="43.651332" lon="11.4290696"><ele>280.0</ele><time>2026-04-08T15:50:38.641Z</time></trkpt><trkpt lat="43.6512485" lon="11.428912"><ele>278.5</ele><time>2026-04-08T15:50:39.641Z</time></trkpt><trkpt lat="43.6512036" lon="11.4287641"><ele>277.0</ele><time>2026-04-08T15:50:40.642Z</time></trkpt><trkpt lat="43.651152" lon="11.428633"><ele>275.5</ele><time>2026-04-08T15:50:41.641Z</time></trkpt><trkpt lat="43.6510576" lon="11.4285039"><ele>274.0</ele><time>2026-04-08T15:50:42.641Z</time></trkpt><trkpt lat="43.6509505" lon="11.428348"><ele>274.0</ele><time>2026-04-08T15:50:43.641Z</time></trkpt><trkpt lat="43.6508557" lon="11.4281983"><ele>274.0</ele><time>2026-04-08T15:50:44.641Z</time></trkpt><trkpt lat="43.6507579" lon="11.4280538"><ele>274.0</ele><time>2026-04-08T15:50:45.641Z</time></trkpt><trkpt lat="43.6506571" lon="11.4279214"><ele>274.0</ele><time>2026-04-08T15:50:46.642Z</time></trkpt><trkpt lat="43.6505697" lon="11.4277939"><ele>275.75</ele><time>2026-04-08T15:50:47.641Z</time></trkpt><trkpt lat="43.650489" lon="11.4276512"><ele>277.5</ele><time>2026-04-08T15:50:48.642Z</time></trkpt><trkpt lat="43.6504226" lon="11.4275061"><ele>279.25</ele><time>2026-04-08T15:50:49.641Z</time></trkpt><trkpt lat="43.6503566" lon="11.4273821"><ele>281.0</ele><time>2026-04-08T15:50:50.642Z</time></trkpt><trkpt lat="43.6502815" lon="11.4272709"><ele>277.8</ele><time>2026-04-08T15:50:51.642Z</time></trkpt><trkpt lat="43.650219" lon="11.4271749"><ele>274.6</ele><time>2026-04-08T15:50:52.642Z</time></trkpt><trkpt lat="43.6501835" lon="11.4270669"><ele>271.4</ele><time>2026-04-08T15:50:53.641Z</time></trkpt><trkpt lat="43.6501915" lon="11.4269244"><ele>268.2</ele><time>2026-04-08T15:50:54.642Z</time></trkpt><trkpt lat="43.6502161" lon="11.4267594"><ele>265.0</ele><time>2026-04-08T15:50:55.642Z</time></trkpt><trkpt lat="43.6502254" lon="11.4265699"><ele>265.0</ele><time>2026-04-08T15:50:56.642Z</time></trkpt><trkpt lat="43.6502094" lon="11.4263518"><ele>265.0</ele><time>2026-04-08T15:50:57.641Z</time></trkpt><trkpt lat="43.6501864" lon="11.4261242"><ele>265.0</ele><time>2026-04-08T15:50:58.641Z</time></trkpt><trkpt lat="43.6501693" lon="11.4259045"><ele>265.5</ele><time>2026-04-08T15:50:59.641Z</time></trkpt><trkpt lat="43.6501593" lon="11.4256845"><ele>266.0</ele><time>2026-04-08T15:51:00.642Z</time></trkpt><trkpt lat="43.6501323" lon="11.4255062"><ele>266.5</ele><time>2026-04-08T15:51:01.641Z</time></trkpt><trkpt lat="43.6501237" lon="11.4253667"><ele>267.0</ele><time>2026-04-08T15:51:02.642Z</time></trkpt><trkpt lat="43.6501109" lon="11.4252364"><ele>268.5</ele><time>2026-04-08T15:51:03.642Z</time></trkpt><trkpt lat="43.6499837" lon="11.4251529"><ele>270.0</ele><time>2026-04-08T15:51:05.641Z</time></trkpt><trkpt lat="43.6498785" lon="11.4251452"><ele>271.5</ele><time>2026-04-08T15:51:06.642Z</time></trkpt><trkpt lat="43.6497704" lon="11.4251396"><ele>273.0</ele><time>2026-04-08T15:51:07.641Z</time></trkpt><trkpt lat="43.6496781" lon="11.4250766"><ele>273.0</ele><time>2026-04-08T15:51:08.641Z</time></trkpt><trkpt lat="43.6496163" lon="11.4249659"><ele>273.0</ele><time>2026-04-08T15:51:09.641Z</time></trkpt><trkpt lat="43.6495817" lon="11.4248281"><ele>273.0</ele><time>2026-04-08T15:51:10.641Z</time></trkpt><trkpt lat="43.6495415" lon="11.4246872"><ele>273.0</ele><time>2026-04-08T15:51:11.641Z</time></trkpt><trkpt lat="43.649488" lon="11.4245845"><ele>273.0</ele><time>2026-04-08T15:51:12.641Z</time></trkpt><trkpt lat="43.6493955" lon="11.424493"><ele>276.5</ele><time>2026-04-08T15:51:13.641Z</time></trkpt><trkpt lat="43.6492971" lon="11.424406"><ele>280.0</ele><time>2026-04-08T15:51:14.641Z</time></trkpt><trkpt lat="43.6491884" lon="11.4242797"><ele>283.5</ele><time>2026-04-08T15:51:15.641Z</time></trkpt><trkpt lat="43.6491015" lon="11.4241278"><ele>287.0</ele><time>2026-04-08T15:51:16.642Z</time></trkpt><trkpt lat="43.6490289" lon="11.4239804"><ele>287.0</ele><time>2026-04-08T15:51:17.641Z</time></trkpt><trkpt lat="43.6489762" lon="11.423852"><ele>287.0</ele><time>2026-04-08T15:51:18.641Z</time></trkpt><trkpt lat="43.648924" lon="11.4237392"><ele>287.0</ele><time>2026-04-08T15:51:19.642Z</time></trkpt><trkpt lat="43.6488679" lon="11.4236377"><ele>287.0</ele><time>2026-04-08T15:51:20.641Z</time></trkpt><trkpt lat="43.6488071" lon="11.4235727"><ele>287.0</ele><time>2026-04-08T15:51:21.641Z</time></trkpt><trkpt lat="43.6487402" lon="11.4235609"><ele>287.0</ele><time>2026-04-08T15:51:22.641Z</time></trkpt><trkpt lat="43.6486589" lon="11.4236029"><ele>289.6666666666667</ele><time>2026-04-08T15:51:23.641Z</time></trkpt><trkpt lat="43.6485973" lon="11.4236658"><ele>292.33333333333337</ele><time>2026-04-08T15:51:24.641Z</time></trkpt><trkpt lat="43.6485407" lon="11.423742"><ele>295.0</ele><time>2026-04-08T15:51:25.642Z</time></trkpt><trkpt lat="43.648478" lon="11.4237909"><ele>297.6666666666667</ele><time>2026-04-08T15:51:26.641Z</time></trkpt><trkpt lat="43.6483845" lon="11.4237111"><ele>300.3333333333333</ele><time>2026-04-08T15:51:28.642Z</time></trkpt><trkpt lat="43.6483602" lon="11.4236077"><ele>303.0</ele><time>2026-04-08T15:51:29.641Z</time></trkpt><trkpt lat="43.6483634" lon="11.4234792"><ele>303.0</ele><time>2026-04-08T15:51:30.641Z</time></trkpt><trkpt lat="43.6483265" lon="11.4233638"><ele>303.0</ele><time>2026-04-08T15:51:31.641Z</time></trkpt><trkpt lat="43.6482723" lon="11.4233032"><ele>303.0</ele><time>2026-04-08T15:51:32.641Z</time></trkpt><trkpt lat="43.648211" lon="11.4232694"><ele>303.0</ele><time>2026-04-08T15:51:33.641Z</time></trkpt><trkpt lat="43.6481431" lon="11.4232586"><ele>303.0</ele><time>2026-04-08T15:51:35.642Z</time></trkpt><trkpt lat="43.6480589" lon="11.4232424"><ele>303.0</ele><time>2026-04-08T15:59:07.641Z</time></trkpt><trkpt lat="43.6479686" lon="11.4232148"><ele>303.0</ele><time>2026-04-08T15:59:09.641Z</time></trkpt><trkpt lat="43.6478461" lon="11.4232039"><ele>303.0</ele><time>2026-04-08T15:59:11.641Z</time></trkpt><trkpt lat="43.6477528" lon="11.4231692"><ele>303.0</ele><time>2026-04-08T15:59:13.641Z</time></trkpt><trkpt lat="43.6476763" lon="11.4231252"><ele>303.0</ele><time>2026-04-08T15:59:15.642Z</time></trkpt><trkpt lat="43.6476307" lon="11.4230225"><ele>303.0</ele><time>2026-04-08T15:59:17.641Z</time></trkpt><trkpt lat="43.6476471" lon="11.4228364"><ele>303.8333333333333</ele><time>2026-04-08T15:59:19.641Z</time></trkpt><trkpt lat="43.647665" lon="11.422748"><ele>304.6666666666667</ele><time>2026-04-08T15:59:20.641Z</time></trkpt><trkpt lat="43.6476904" lon="11.4226654"><ele>305.5</ele><time>2026-04-08T15:59:21.641Z</time></trkpt><trkpt lat="43.6477399" lon="11.4225369"><ele>306.33333333333337</ele><time>2026-04-08T15:59:23.641Z</time></trkpt><trkpt lat="43.6477911" lon="11.4224213"><ele>307.1666666666667</ele><time>2026-04-08T15:59:25.641Z</time></trkpt><trkpt lat="43.6478402" lon="11.4223263"><ele>308.0</ele><time>2026-04-08T15:59:27.641Z</time></trkpt><trkpt lat="43.6478238" lon="11.422238"><ele>305.5</ele><time>2026-04-08T15:59:29.641Z</time></trkpt><trkpt lat="43.6477478" lon="11.4221616"><ele>303.0</ele><time>2026-04-08T15:59:31.641Z</time></trkpt><trkpt lat="43.6476699" lon="11.4221003"><ele>300.5</ele><time>2026-04-08T15:59:33.641Z</time></trkpt><trkpt lat="43.6475938" lon="11.4220448"><ele>298.0</ele><time>2026-04-08T15:59:42.642Z</time></trkpt><trkpt lat="43.647543" lon="11.4219832"><ele>295.5</ele><time>2026-04-08T15:59:45.642Z</time></trkpt><trkpt lat="43.6474863" lon="11.4218925"><ele>293.0</ele><time>2026-04-08T15:59:48.641Z</time></trkpt><trkpt lat="43.6474545" lon="11.4217995"><ele>292.0</ele><time>2026-04-08T15:59:50.641Z</time></trkpt><trkpt lat="43.647447" lon="11.4217053"><ele>291.0</ele><time>2026-04-08T15:59:52.641Z</time></trkpt><trkpt lat="43.6474256" lon="11.4216094"><ele>290.0</ele><time>2026-04-08T15:59:54.641Z</time></trkpt><trkpt lat="43.6473722" lon="11.4214894"><ele>289.0</ele><time>2026-04-08T15:59:56.641Z</time></trkpt><trkpt lat="43.647348" lon="11.4213774"><ele>288.0</ele><time>2026-04-08T15:59:58.642Z</time></trkpt><trkpt lat="43.647352" lon="11.4212588"><ele>287.0</ele><time>2026-04-08T16:00:06.642Z</time></trkpt><trkpt lat="43.6473813" lon="11.4210819"><ele>286.33333333333337</ele><time>2026-04-08T16:00:08.642Z</time></trkpt><trkpt lat="43.6474054" lon="11.4209742"><ele>285.6666666666667</ele><time>2026-04-08T16:00:09.641Z</time></trkpt><trkpt lat="43.6474368" lon="11.4208807"><ele>285.0</ele><time>2026-04-08T16:00:10.642Z</time></trkpt><trkpt lat="43.647473" lon="11.4207879"><ele>284.3333333333333</ele><time>2026-04-08T16:00:11.641Z</time></trkpt><trkpt lat="43.647515" lon="11.4206947"><ele>283.66666666666663</ele><time>2026-04-08T16:00:12.642Z</time></trkpt><trkpt lat="43.6475606" lon="11.4206045"><ele>283.0</ele><time>2026-04-08T16:00:13.641Z</time></trkpt><trkpt lat="43.6476149" lon="11.4205058"><ele>282.3333333333333</ele><time>2026-04-08T16:00:14.641Z</time></trkpt><trkpt lat="43.6476664" lon="11.4204231"><ele>281.66666666666663</ele><time>2026-04-08T16:00:15.641Z</time></trkpt><trkpt lat="43.6477282" lon="11.4203416"><ele>281.0</ele><time>2026-04-08T16:00:16.641Z</time></trkpt><trkpt lat="43.647791" lon="11.4202576"><ele>280.3333333333333</ele><time>2026-04-08T16:00:17.641Z</time></trkpt><trkpt lat="43.6478459" lon="11.4201638"><ele>279.6666666666667</ele><time>2026-04-08T16:00:18.641Z</time></trkpt><trkpt lat="43.6479008" lon="11.4200479"><ele>279.0</ele><time>2026-04-08T16:00:19.641Z</time></trkpt><trkpt lat="43.6479483" lon="11.4199076"><ele>280.4</ele><time>2026-04-08T16:00:20.641Z</time></trkpt><trkpt lat="43.6479999" lon="11.419764"><ele>281.79999999999995</ele><time>2026-04-08T16:00:21.641Z</time></trkpt><trkpt lat="43.6480483" lon="11.4196348"><ele>283.20000000000005</ele><time>2026-04-08T16:00:22.641Z</time></trkpt><trkpt lat="43.6480852" lon="11.4195087"><ele>284.6</ele><time>2026-04-08T16:00:23.641Z</time></trkpt><trkpt lat="43.6481019" lon="11.4193839"><ele>286.0</ele><time>2026-04-08T16:00:24.641Z</time></trkpt><trkpt lat="43.6481233" lon="11.4192906"><ele>286.0</ele><time>2026-04-08T16:00:25.641Z</time></trkpt><trkpt lat="43.6481467" lon="11.4192092"><ele>286.0</ele><time>2026-04-08T16:00:26.641Z</time></trkpt><trkpt lat="43.6481709" lon="11.4191088"><ele>286.0</ele><time>2026-04-08T16:00:27.641Z</time></trkpt><trkpt lat="43.6481909" lon="11.4190043"><ele>286.0</ele><time>2026-04-08T16:00:28.641Z</time></trkpt><trkpt lat="43.6482046" lon="11.4188827"><ele>286.0</ele><time>2026-04-08T16:00:29.642Z</time></trkpt><trkpt lat="43.6482023" lon="11.4187703"><ele>286.0</ele><time>2026-04-08T16:00:30.641Z</time></trkpt><trkpt lat="43.6482019" lon="11.4186573"><ele>286.0</ele><time>2026-04-08T16:00:31.641Z</time></trkpt><trkpt lat="43.6481923" lon="11.4185612"><ele>286.0</ele><time>2026-04-08T16:00:32.641Z</time></trkpt><trkpt lat="43.6481654" lon="11.4184038"><ele>286.0</ele><time>2026-04-08T16:00:34.642Z</time></trkpt><trkpt lat="43.6481512" lon="11.4182758"><ele>286.0</ele><time>2026-04-08T16:00:36.642Z</time></trkpt><trkpt lat="43.6481351" lon="11.4181271"><ele>286.0</ele><time>2026-04-08T16:01:06.642Z</time></trkpt><trkpt lat="43.6481669" lon="11.4179875"><ele>285.8</ele><time>2026-04-08T16:01:07.642Z</time></trkpt><trkpt lat="43.648193" lon="11.417841"><ele>285.6</ele><time>2026-04-08T16:01:08.641Z</time></trkpt><trkpt lat="43.6482283" lon="11.417692"><ele>285.4</ele><time>2026-04-08T16:01:09.641Z</time></trkpt><trkpt lat="43.6482534" lon="11.4175621"><ele>285.2</ele><time>2026-04-08T16:01:10.641Z</time></trkpt><trkpt lat="43.6482862" lon="11.4174454"><ele>285.0</ele><time>2026-04-08T16:01:11.641Z</time></trkpt><trkpt lat="43.6483408" lon="11.4173206"><ele>285.0</ele><time>2026-04-08T16:01:12.642Z</time></trkpt><trkpt lat="43.6483819" lon="11.417217"><ele>285.0</ele><time>2026-04-08T16:01:13.641Z</time></trkpt><trkpt lat="43.6484129" lon="11.4171235"><ele>285.0</ele><time>2026-04-08T16:01:14.641Z</time></trkpt><trkpt lat="43.6484299" lon="11.4169636"><ele>285.0</ele><time>2026-04-08T16:01:16.641Z</time></trkpt><trkpt lat="43.6483652" lon="11.4168081"><ele>285.0</ele><time>2026-04-08T16:01:18.641Z</time></trkpt><trkpt lat="43.6483356" lon="11.4167162"><ele>285.1666666666667</ele><time>2026-04-08T16:01:19.642Z</time></trkpt><trkpt lat="43.6483079" lon="11.4166363"><ele>285.3333333333333</ele><time>2026-04-08T16:01:20.641Z</time></trkpt><trkpt lat="43.6482575" lon="11.4165011"><ele>285.5</ele><time>2026-04-08T16:01:22.642Z</time></trkpt><trkpt lat="43.648201" lon="11.4164155"><ele>285.66666666666663</ele><time>2026-04-08T16:01:24.641Z</time></trkpt><trkpt lat="43.6481335" lon="11.4163312"><ele>285.8333333333333</ele><time>2026-04-08T16:01:27.642Z</time></trkpt><trkpt lat="43.6480866" lon="11.4162698"><ele>286.0</ele><time>2026-04-08T16:01:29.641Z</time></trkpt><trkpt lat="43.6480178" lon="11.4162015"><ele>286.6</ele><time>2026-04-08T16:01:40.641Z</time></trkpt><trkpt lat="43.6479516" lon="11.4161482"><ele>287.20000000000005</ele><time>2026-04-08T16:01:41.641Z</time></trkpt><trkpt lat="43.6478714" lon="11.4160978"><ele>287.79999999999995</ele><time>2026-04-08T16:01:42.641Z</time></trkpt><trkpt lat="43.647781" lon="11.4160336"><ele>288.4</ele><time>2026-04-08T16:01:43.641Z</time></trkpt><trkpt lat="43.6476886" lon="11.4159783"><ele>289.0</ele><time>2026-04-08T16:01:44.641Z</time></trkpt><trkpt lat="43.647608" lon="11.4159256"><ele>289.2</ele><time>2026-04-08T16:01:45.642Z</time></trkpt><trkpt lat="43.6475429" lon="11.4158972"><ele>289.4</ele><time>2026-04-08T16:01:46.641Z</time></trkpt><trkpt lat="43.6474426" lon="11.4158378"><ele>289.6</ele><time>2026-04-08T16:01:48.641Z</time></trkpt><trkpt lat="43.6473519" lon="11.4157398"><ele>289.8</ele><time>2026-04-08T16:01:50.641Z</time></trkpt><trkpt lat="43.6472977" lon="11.415612"><ele>290.0</ele><time>2026-04-08T16:01:52.642Z</time></trkpt><trkpt lat="43.647273" lon="11.4155183"><ele>288.25</ele><time>2026-04-08T16:01:53.641Z</time></trkpt><trkpt lat="43.6472351" lon="11.4154071"><ele>286.5</ele><time>2026-04-08T16:01:54.641Z</time></trkpt><trkpt lat="43.6471793" lon="11.415286"><ele>284.75</ele><time>2026-04-08T16:01:55.641Z</time></trkpt><trkpt lat="43.6471128" lon="11.4151503"><ele>283.0</ele><time>2026-04-08T16:01:56.641Z</time></trkpt><trkpt lat="43.6470264" lon="11.4149776"><ele>285.0</ele><time>2026-04-08T16:01:57.642Z</time></trkpt><trkpt lat="43.6469346" lon="11.4147829"><ele>287.0</ele><time>2026-04-08T16:01:58.641Z</time></trkpt><trkpt lat="43.6468401" lon="11.4145878"><ele>289.0</ele><time>2026-04-08T16:01:59.642Z</time></trkpt><trkpt lat="43.646746" lon="11.4143862"><ele>290.0</ele><time>2026-04-08T16:02:00.641Z</time></trkpt><trkpt lat="43.6466547" lon="11.41419"><ele>291.0</ele><time>2026-04-08T16:02:01.642Z</time></trkpt><trkpt lat="43.6465639" lon="11.4140018"><ele>292.0</ele><time>2026-04-08T16:02:02.641Z</time></trkpt><trkpt lat="43.6464824" lon="11.4138215"><ele>294.5</ele><time>2026-04-08T16:02:03.641Z</time></trkpt><trkpt lat="43.6463995" lon="11.4136433"><ele>297.0</ele><time>2026-04-08T16:02:04.641Z</time></trkpt><trkpt lat="43.6463171" lon="11.4134727"><ele>299.5</ele><time>2026-04-08T16:02:05.641Z</time></trkpt><trkpt lat="43.6462402" lon="11.4133116"><ele>302.0</ele><time>2026-04-08T16:02:06.641Z</time></trkpt><trkpt lat="43.6461681" lon="11.4131651"><ele>303.2</ele><time>2026-04-08T16:02:07.642Z</time></trkpt><trkpt lat="43.646095" lon="11.4130497"><ele>304.4</ele><time>2026-04-08T16:02:08.641Z</time></trkpt><trkpt lat="43.6460235" lon="11.4129646"><ele>305.6</ele><time>2026-04-08T16:02:09.641Z</time></trkpt><trkpt lat="43.645944" lon="11.4129137"><ele>306.8</ele><time>2026-04-08T16:02:10.641Z</time></trkpt><trkpt lat="43.6458582" lon="11.4128771"><ele>308.0</ele><time>2026-04-08T16:02:11.642Z</time></trkpt><trkpt lat="43.6457678" lon="11.4128537"><ele>308.0</ele><time>2026-04-08T16:02:12.641Z</time></trkpt><trkpt lat="43.6456954" lon="11.4128437"><ele>308.0</ele><time>2026-04-08T16:02:13.642Z</time></trkpt><trkpt lat="43.6455978" lon="11.4129455"><ele>308.0</ele><time>2026-04-08T16:02:15.641Z</time></trkpt><trkpt lat="43.6455838" lon="11.4130743"><ele>308.0</ele><time>2026-04-08T16:02:17.641Z</time></trkpt><trkpt lat="43.6455568" lon="11.4131842"><ele>308.0</ele><time>2026-04-08T16:02:19.642Z</time></trkpt><trkpt lat="43.6455211" lon="11.4132827"><ele>308.0</ele><time>2026-04-08T16:02:21.641Z</time></trkpt><trkpt lat="43.6454774" lon="11.4133794"><ele>308.0</ele><time>2026-04-08T16:02:24.641Z</time></trkpt><trkpt lat="43.6454575" lon="11.4134774"><ele>308.0</ele><time>2026-04-08T16:02:34.642Z</time></trkpt><trkpt lat="43.6454252" lon="11.4136137"><ele>308.0</ele><time>2026-04-08T16:02:36.641Z</time></trkpt><trkpt lat="43.6454016" lon="11.4137435"><ele>308.0</ele><time>2026-04-08T16:02:38.641Z</time></trkpt><trkpt lat="43.6453801" lon="11.4138965"><ele>307.5</ele><time>2026-04-08T16:02:40.641Z</time></trkpt><trkpt lat="43.6453493" lon="11.4140495"><ele>307.0</ele><time>2026-04-08T16:02:42.641Z</time></trkpt><trkpt lat="43.645278" lon="11.414165"><ele>306.5</ele><time>2026-04-08T16:02:44.641Z</time></trkpt><trkpt lat="43.6451653" lon="11.4142154"><ele>306.0</ele><time>2026-04-08T16:02:46.641Z</time></trkpt><trkpt lat="43.6450441" lon="11.4141995"><ele>309.3333333333333</ele><time>2026-04-08T16:02:48.642Z</time></trkpt><trkpt lat="43.6449822" lon="11.4141706"><ele>312.6666666666667</ele><time>2026-04-08T16:02:49.641Z</time></trkpt><trkpt lat="43.6449107" lon="11.4141425"><ele>316.0</ele><time>2026-04-08T16:02:50.641Z</time></trkpt><trkpt lat="43.6448304" lon="11.41411"><ele>319.33333333333337</ele><time>2026-04-08T16:02:51.641Z</time></trkpt><trkpt lat="43.644757" lon="11.4140783"><ele>322.6666666666667</ele><time>2026-04-08T16:02:52.641Z</time></trkpt><trkpt lat="43.6446942" lon="11.4140494"><ele>326.0</ele><time>2026-04-08T16:02:53.642Z</time></trkpt><trkpt lat="43.6446152" lon="11.4139597"><ele>326.0</ele><time>2026-04-08T16:02:55.641Z</time></trkpt><trkpt lat="43.6445617" lon="11.4138302"><ele>326.0</ele><time>2026-04-08T16:02:57.641Z</time></trkpt><trkpt lat="43.6445298" lon="11.4137344"><ele>326.0</ele><time>2026-04-08T16:02:58.642Z</time></trkpt><trkpt lat="43.6445122" lon="11.4136018"><ele>326.0</ele><time>2026-04-08T16:02:59.642Z</time></trkpt><trkpt lat="43.6444888" lon="11.4134633"><ele>326.0</ele><time>2026-04-08T16:03:00.641Z</time></trkpt><trkpt lat="43.6444642" lon="11.4133102"><ele>326.4</ele><time>2026-04-08T16:03:01.641Z</time></trkpt><trkpt lat="43.6444341" lon="11.4131432"><ele>326.8</ele><time>2026-04-08T16:03:02.642Z</time></trkpt><trkpt lat="43.6444061" lon="11.4129935"><ele>327.2</ele><time>2026-04-08T16:03:03.641Z</time></trkpt><trkpt lat="43.6443726" lon="11.4128696"><ele>327.59999999999997</ele><time>2026-04-08T16:03:04.641Z</time></trkpt><trkpt lat="43.6443226" lon="11.4127523"><ele>328.0</ele><time>2026-04-08T16:03:05.641Z</time></trkpt><trkpt lat="43.6442596" lon="11.4126654"><ele>329.16666666666663</ele><time>2026-04-08T16:03:06.642Z</time></trkpt><trkpt lat="43.644204" lon="11.4125917"><ele>330.3333333333333</ele><time>2026-04-08T16:03:07.641Z</time></trkpt><trkpt lat="43.644155" lon="11.4125163"><ele>331.5</ele><time>2026-04-08T16:03:08.641Z</time></trkpt><trkpt lat="43.6441049" lon="11.4124565"><ele>332.6666666666667</ele><time>2026-04-08T16:03:09.641Z</time></trkpt><trkpt lat="43.6440494" lon="11.4124023"><ele>333.83333333333337</ele><time>2026-04-08T16:03:10.641Z</time></trkpt><trkpt lat="43.6439523" lon="11.4123327"><ele>335.0</ele><time>2026-04-08T16:03:12.641Z</time></trkpt><trkpt lat="43.6438719" lon="11.4123534"><ele>335.0</ele><time>2026-04-08T16:03:13.641Z</time></trkpt><trkpt lat="43.6437712" lon="11.4124036"><ele>335.0</ele><time>2026-04-08T16:03:14.642Z</time></trkpt><trkpt lat="43.6436522" lon="11.4124793"><ele>335.0</ele><time>2026-04-08T16:03:15.641Z</time></trkpt><trkpt lat="43.6435234" lon="11.4125427"><ele>335.0</ele><time>2026-04-08T16:03:16.641Z</time></trkpt><trkpt lat="43.6433881" lon="11.4125964"><ele>333.5</ele><time>2026-04-08T16:03:17.642Z</time></trkpt><trkpt lat="43.6432435" lon="11.4126546"><ele>332.0</ele><time>2026-04-08T16:03:18.641Z</time></trkpt><trkpt lat="43.6431044" lon="11.4127248"><ele>330.5</ele><time>2026-04-08T16:03:19.641Z</time></trkpt><trkpt lat="43.6429845" lon="11.412829"><ele>329.0</ele><time>2026-04-08T16:03:20.641Z</time></trkpt><trkpt lat="43.642899" lon="11.4129839"><ele>329.0</ele><time>2026-04-08T16:03:21.641Z</time></trkpt><trkpt lat="43.6428132" lon="11.4131559"><ele>329.0</ele><time>2026-04-08T16:03:22.641Z</time></trkpt><trkpt lat="43.6427421" lon="11.4133704"><ele>329.0</ele><time>2026-04-08T16:03:23.641Z</time></trkpt><trkpt lat="43.6426757" lon="11.4136005"><ele>325.33333333333337</ele><time>2026-04-08T16:03:24.641Z</time></trkpt><trkpt lat="43.6425947" lon="11.4138337"><ele>321.6666666666667</ele><time>2026-04-08T16:03:25.641Z</time></trkpt><trkpt lat="43.6425147" lon="11.4140737"><ele>318.0</ele><time>2026-04-08T16:03:26.641Z</time></trkpt><trkpt lat="43.6424254" lon="11.4143151"><ele>318.0</ele><time>2026-04-08T16:03:27.642Z</time></trkpt><trkpt lat="43.6423391" lon="11.4145614"><ele>318.0</ele><time>2026-04-08T16:03:28.641Z</time></trkpt><trkpt lat="43.6422524" lon="11.4148051"><ele>318.0</ele><time>2026-04-08T16:03:29.642Z</time></trkpt><trkpt lat="43.6421689" lon="11.4150549"><ele>316.6666666666667</ele><time>2026-04-08T16:03:30.641Z</time></trkpt><trkpt lat="43.6420822" lon="11.4153132"><ele>315.33333333333337</ele><time>2026-04-08T16:03:31.642Z</time></trkpt><trkpt lat="43.6419943" lon="11.4155752"><ele>314.0</ele><time>2026-04-08T16:03:32.641Z</time></trkpt><trkpt lat="43.6419032" lon="11.4158311"><ele>314.0</ele><time>2026-04-08T16:03:33.641Z</time></trkpt><trkpt lat="43.6418128" lon="11.4160898"><ele>314.0</ele><time>2026-04-08T16:03:34.641Z</time></trkpt><trkpt lat="43.6417233" lon="11.4163447"><ele>314.0</ele><time>2026-04-08T16:03:35.641Z</time></trkpt><trkpt lat="43.6416368" lon="11.4165964"><ele>311.33333333333337</ele><time>2026-04-08T16:03:36.642Z</time></trkpt><trkpt lat="43.6415491" lon="11.4168462"><ele>308.6666666666667</ele><time>2026-04-08T16:03:37.641Z</time></trkpt><trkpt lat="43.6414703" lon="11.4171022"><ele>306.0</ele><time>2026-04-08T16:03:38.641Z</time></trkpt><trkpt lat="43.6414135" lon="11.4173707"><ele>302.3333333333333</ele><time>2026-04-08T16:03:39.641Z</time></trkpt><trkpt lat="43.6413749" lon="11.4176412"><ele>298.66666666666663</ele><time>2026-04-08T16:03:40.642Z</time></trkpt><trkpt lat="43.6413779" lon="11.4179403"><ele>295.0</ele><time>2026-04-08T16:03:41.641Z</time></trkpt><trkpt lat="43.6413702" lon="11.4182205"><ele>292.3333333333333</ele><time>2026-04-08T16:03:42.641Z</time></trkpt><trkpt lat="43.6413372" lon="11.4185024"><ele>289.6666666666667</ele><time>2026-04-08T16:03:43.641Z</time></trkpt><trkpt lat="43.6412864" lon="11.4187766"><ele>287.0</ele><time>2026-04-08T16:03:44.641Z</time></trkpt><trkpt lat="43.6412096" lon="11.4190394"><ele>285.0</ele><time>2026-04-08T16:03:45.641Z</time></trkpt><trkpt lat="43.6411105" lon="11.419276"><ele>283.0</ele><time>2026-04-08T16:03:46.641Z</time></trkpt><trkpt lat="43.6409733" lon="11.419502"><ele>281.0</ele><time>2026-04-08T16:03:47.641Z</time></trkpt><trkpt lat="43.6408216" lon="11.4197123"><ele>281.0</ele><time>2026-04-08T16:03:48.642Z</time></trkpt><trkpt lat="43.6406729" lon="11.4199143"><ele>281.0</ele><time>2026-04-08T16:03:49.641Z</time></trkpt><trkpt lat="43.6405327" lon="11.4201281"><ele>281.0</ele><time>2026-04-08T16:03:50.641Z</time></trkpt><trkpt lat="43.6403941" lon="11.4203499"><ele>281.33333333333337</ele><time>2026-04-08T16:03:51.642Z</time></trkpt><trkpt lat="43.6402712" lon="11.4205776"><ele>281.6666666666667</ele><time>2026-04-08T16:03:52.641Z</time></trkpt><trkpt lat="43.6401521" lon="11.420832"><ele>282.0</ele><time>2026-04-08T16:03:53.641Z</time></trkpt><trkpt lat="43.6400431" lon="11.4210881"><ele>278.6666666666667</ele><time>2026-04-08T16:03:54.642Z</time></trkpt><trkpt lat="43.6399394" lon="11.42135"><ele>275.33333333333337</ele><time>2026-04-08T16:03:55.641Z</time></trkpt><trkpt lat="43.6398485" lon="11.4216242"><ele>272.0</ele><time>2026-04-08T16:03:56.642Z</time></trkpt><trkpt lat="43.6397686" lon="11.4219081"><ele>270.0</ele><time>2026-04-08T16:03:57.641Z</time></trkpt><trkpt lat="43.6396952" lon="11.42218"><ele>268.0</ele><time>2026-04-08T16:03:58.642Z</time></trkpt><trkpt lat="43.6396184" lon="11.4224495"><ele>266.0</ele><time>2026-04-08T16:03:59.641Z</time></trkpt><trkpt lat="43.6395465" lon="11.4226959"><ele>266.0</ele><time>2026-04-08T16:04:00.642Z</time></trkpt><trkpt lat="43.639478" lon="11.4229148"><ele>266.0</ele><time>2026-04-08T16:04:01.641Z</time></trkpt><trkpt lat="43.6393963" lon="11.4230938"><ele>266.0</ele><time>2026-04-08T16:04:02.641Z</time></trkpt><trkpt lat="43.6392988" lon="11.4232073"><ele>266.75</ele><time>2026-04-08T16:04:03.642Z</time></trkpt><trkpt lat="43.6391626" lon="11.423261"><ele>267.5</ele><time>2026-04-08T16:04:04.641Z</time></trkpt><trkpt lat="43.6390357" lon="11.4232437"><ele>268.25</ele><time>2026-04-08T16:04:05.641Z</time></trkpt><trkpt lat="43.6389028" lon="11.4231258"><ele>269.0</ele><time>2026-04-08T16:04:06.641Z</time></trkpt><trkpt lat="43.6387918" lon="11.4229769"><ele>270.6666666666667</ele><time>2026-04-08T16:04:07.641Z</time></trkpt><trkpt lat="43.6386887" lon="11.4228255"><ele>272.3333333333333</ele><time>2026-04-08T16:04:08.641Z</time></trkpt><trkpt lat="43.6385499" lon="11.4227105"><ele>274.0</ele><time>2026-04-08T16:04:09.641Z</time></trkpt><trkpt lat="43.6383974" lon="11.4226612"><ele>274.0</ele><time>2026-04-08T16:04:10.641Z</time></trkpt><trkpt lat="43.6382356" lon="11.4226747"><ele>274.0</ele><time>2026-04-08T16:04:11.641Z</time></trkpt><trkpt lat="43.6380716" lon="11.422722"><ele>274.0</ele><time>2026-04-08T16:04:12.641Z</time></trkpt><trkpt lat="43.6378965" lon="11.4228022"><ele>272.75</ele><time>2026-04-08T16:04:13.642Z</time></trkpt><trkpt lat="43.6377475" lon="11.4228592"><ele>271.5</ele><time>2026-04-08T16:04:14.641Z</time></trkpt><trkpt lat="43.6376227" lon="11.422942"><ele>270.25</ele><time>2026-04-08T16:04:15.641Z</time></trkpt><trkpt lat="43.6375407" lon="11.423108"><ele>269.0</ele><time>2026-04-08T16:04:16.641Z</time></trkpt><trkpt lat="43.6374814" lon="11.4233304"><ele>269.0</ele><time>2026-04-08T16:04:17.641Z</time></trkpt><trkpt lat="43.6374509" lon="11.4235834"><ele>269.0</ele><time>2026-04-08T16:04:18.642Z</time></trkpt><trkpt lat="43.6374234" lon="11.4238463"><ele>269.0</ele><time>2026-04-08T16:04:19.641Z</time></trkpt><trkpt lat="43.6374326" lon="11.424112"><ele>269.6666666666667</ele><time>2026-04-08T16:04:20.641Z</time></trkpt><trkpt lat="43.6374745" lon="11.424378"><ele>270.3333333333333</ele><time>2026-04-08T16:04:21.641Z</time></trkpt><trkpt lat="43.637557" lon="11.4246546"><ele>271.0</ele><time>2026-04-08T16:04:22.641Z</time></trkpt><trkpt lat="43.6376306" lon="11.4249362"><ele>271.0</ele><time>2026-04-08T16:04:23.641Z</time></trkpt><trkpt lat="43.6376928" lon="11.425221"><ele>271.0</ele><time>2026-04-08T16:04:24.642Z</time></trkpt><trkpt lat="43.6377376" lon="11.4254866"><ele>271.0</ele><time>2026-04-08T16:04:25.641Z</time></trkpt><trkpt lat="43.6377607" lon="11.4257413"><ele>270.66666666666663</ele><time>2026-04-08T16:04:26.641Z</time></trkpt><trkpt lat="43.637764" lon="11.425992"><ele>270.3333333333333</ele><time>2026-04-08T16:04:27.642Z</time></trkpt><trkpt lat="43.6377548" lon="11.4262319"><ele>270.0</ele><time>2026-04-08T16:04:28.641Z</time></trkpt><trkpt lat="43.6377448" lon="11.4264481"><ele>270.0</ele><time>2026-04-08T16:04:29.641Z</time></trkpt><trkpt lat="43.6377386" lon="11.4266121"><ele>270.0</ele><time>2026-04-08T16:04:30.641Z</time></trkpt><trkpt lat="43.6377397" lon="11.4267255"><ele>270.0</ele><time>2026-04-08T16:04:31.641Z</time></trkpt><trkpt lat="43.6376901" lon="11.42681"><ele>270.0</ele><time>2026-04-08T16:04:33.641Z</time></trkpt><trkpt lat="43.637581" lon="11.4267206"><ele>270.0</ele><time>2026-04-08T16:04:35.642Z</time></trkpt><trkpt lat="43.6375258" lon="11.4265793"><ele>270.0</ele><time>2026-04-08T16:04:36.642Z</time></trkpt><trkpt lat="43.6374587" lon="11.426435"><ele>270.0</ele><time>2026-04-08T16:04:37.642Z</time></trkpt><trkpt lat="43.637388" lon="11.4262708"><ele>270.0</ele><time>2026-04-08T16:04:38.641Z</time></trkpt><trkpt lat="43.6373189" lon="11.4261169"><ele>270.0</ele><time>2026-04-08T16:04:39.641Z</time></trkpt><trkpt lat="43.6372785" lon="11.4259405"><ele>270.25</ele><time>2026-04-08T16:04:40.642Z</time></trkpt><trkpt lat="43.637242" lon="11.4257549"><ele>270.5</ele><time>2026-04-08T16:04:41.641Z</time></trkpt><trkpt lat="43.6372062" lon="11.4255802"><ele>270.75</ele><time>2026-04-08T16:04:42.641Z</time></trkpt><trkpt lat="43.6371648" lon="11.4254235"><ele>271.0</ele><time>2026-04-08T16:04:43.641Z</time></trkpt><trkpt lat="43.6371171" lon="11.4252879"><ele>271.0</ele><time>2026-04-08T16:04:44.641Z</time></trkpt><trkpt lat="43.6370398" lon="11.4252026"><ele>271.0</ele><time>2026-04-08T16:04:45.642Z</time></trkpt><trkpt lat="43.6369204" lon="11.4251589"><ele>271.0</ele><time>2026-04-08T16:04:46.641Z</time></trkpt><trkpt lat="43.6367863" lon="11.4251876"><ele>271.0</ele><time>2026-04-08T16:04:47.642Z</time></trkpt><trkpt lat="43.636642" lon="11.42523"><ele>273.3333333333333</ele><time>2026-04-08T16:04:48.641Z</time></trkpt><trkpt lat="43.6364911" lon="11.4252591"><ele>275.6666666666667</ele><time>2026-04-08T16:04:49.641Z</time></trkpt><trkpt lat="43.6363416" lon="11.4252726"><ele>278.0</ele><time>2026-04-08T16:04:50.641Z</time></trkpt><trkpt lat="43.6361933" lon="11.4252704"><ele>279.75</ele><time>2026-04-08T16:04:51.637Z</time></trkpt><trkpt lat="43.6360557" lon="11.4252487"><ele>281.5</ele><time>2026-04-08T16:04:52.641Z</time></trkpt><trkpt lat="43.6359205" lon="11.4252654"><ele>283.25</ele><time>2026-04-08T16:04:53.642Z</time></trkpt><trkpt lat="43.635816" lon="11.4253421"><ele>285.0</ele><time>2026-04-08T16:04:54.641Z</time></trkpt><trkpt lat="43.6357145" lon="11.4254539"><ele>284.5</ele><time>2026-04-08T16:04:55.642Z</time></trkpt><trkpt lat="43.635623" lon="11.425587"><ele>284.0</ele><time>2026-04-08T16:04:56.641Z</time></trkpt><trkpt lat="43.635521" lon="11.4257232"><ele>283.5</ele><time>2026-04-08T16:04:57.641Z</time></trkpt><trkpt lat="43.6354142" lon="11.4258508"><ele>283.0</ele><time>2026-04-08T16:04:58.641Z</time></trkpt><trkpt lat="43.6352928" lon="11.4259868"><ele>283.0</ele><time>2026-04-08T16:04:59.641Z</time></trkpt><trkpt lat="43.6351837" lon="11.4261252"><ele>283.0</ele><time>2026-04-08T16:05:00.641Z</time></trkpt><trkpt lat="43.6350707" lon="11.426273"><ele>283.0</ele><time>2026-04-08T16:05:01.642Z</time></trkpt><trkpt lat="43.6349472" lon="11.4264175"><ele>281.0</ele><time>2026-04-08T16:05:02.641Z</time></trkpt><trkpt lat="43.634817" lon="11.4265448"><ele>279.0</ele><time>2026-04-08T16:05:03.641Z</time></trkpt><trkpt lat="43.6346859" lon="11.4266479"><ele>277.0</ele><time>2026-04-08T16:05:04.642Z</time></trkpt><trkpt lat="43.6345575" lon="11.4267349"><ele>278.75</ele><time>2026-04-08T16:05:05.641Z</time></trkpt><trkpt lat="43.6344378" lon="11.4268197"><ele>280.5</ele><time>2026-04-08T16:05:06.642Z</time></trkpt><trkpt lat="43.6343191" lon="11.4268762"><ele>282.25</ele><time>2026-04-08T16:05:07.642Z</time></trkpt><trkpt lat="43.6342029" lon="11.4268867"><ele>284.0</ele><time>2026-04-08T16:05:08.641Z</time></trkpt><trkpt lat="43.6340833" lon="11.4268629"><ele>284.0</ele><time>2026-04-08T16:05:09.642Z</time></trkpt><trkpt lat="43.6339855" lon="11.4267842"><ele>284.0</ele><time>2026-04-08T16:05:10.641Z</time></trkpt><trkpt lat="43.6338808" lon="11.4267007"><ele>284.0</ele><time>2026-04-08T16:05:11.642Z</time></trkpt><trkpt lat="43.6337748" lon="11.4266205"><ele>284.0</ele><time>2026-04-08T16:05:12.641Z</time></trkpt><trkpt lat="43.6336585" lon="11.4265347"><ele>284.0</ele><time>2026-04-08T16:05:13.641Z</time></trkpt><trkpt lat="43.633546" lon="11.4264431"><ele>284.0</ele><time>2026-04-08T16:05:14.642Z</time></trkpt><trkpt lat="43.6334257" lon="11.4263615"><ele>284.0</ele><time>2026-04-08T16:05:15.641Z</time></trkpt><trkpt lat="43.6333093" lon="11.4262865"><ele>284.0</ele><time>2026-04-08T16:05:16.642Z</time></trkpt><trkpt lat="43.6332104" lon="11.4262193"><ele>284.0</ele><time>2026-04-08T16:05:17.642Z</time></trkpt><trkpt lat="43.6331307" lon="11.4261757"><ele>284.0</ele><time>2026-04-08T16:05:18.641Z</time></trkpt><trkpt lat="43.6330471" lon="11.4261694"><ele>284.0</ele><time>2026-04-08T16:05:19.641Z</time></trkpt><trkpt lat="43.6329234" lon="11.4263278"><ele>284.0</ele><time>2026-04-08T16:05:21.641Z</time></trkpt><trkpt lat="43.6328515" lon="11.4264621"><ele>284.5</ele><time>2026-04-08T16:05:22.641Z</time></trkpt><trkpt lat="43.6327757" lon="11.4266023"><ele>285.0</ele><time>2026-04-08T16:05:23.642Z</time></trkpt><trkpt lat="43.632704" lon="11.4267452"><ele>285.5</ele><time>2026-04-08T16:05:24.642Z</time></trkpt><trkpt lat="43.6326383" lon="11.4268706"><ele>286.0</ele><time>2026-04-08T16:05:25.642Z</time></trkpt><trkpt lat="43.6325622" lon="11.4269764"><ele>286.0</ele><time>2026-04-08T16:05:26.642Z</time></trkpt><trkpt lat="43.63247" lon="11.4270467"><ele>286.0</ele><time>2026-04-08T16:05:27.642Z</time></trkpt><trkpt lat="43.6323638" lon="11.4270538"><ele>286.0</ele><time>2026-04-08T16:05:28.641Z</time></trkpt><trkpt lat="43.6322488" lon="11.4270508"><ele>286.0</ele><time>2026-04-08T16:05:29.641Z</time></trkpt><trkpt lat="43.6321379" lon="11.4271016"><ele>286.0</ele><time>2026-04-08T16:05:30.641Z</time></trkpt><trkpt lat="43.6320366" lon="11.4271776"><ele>285.5</ele><time>2026-04-08T16:05:31.641Z</time></trkpt><trkpt lat="43.6319527" lon="11.4272929"><ele>285.0</ele><time>2026-04-08T16:05:32.641Z</time></trkpt><trkpt lat="43.6318948" lon="11.4274517"><ele>284.5</ele><time>2026-04-08T16:05:33.642Z</time></trkpt><trkpt lat="43.631835" lon="11.4276284"><ele>284.0</ele><time>2026-04-08T16:05:34.641Z</time></trkpt><trkpt lat="43.6317735" lon="11.4278124"><ele>282.5</ele><time>2026-04-08T16:05:35.641Z</time></trkpt><trkpt lat="43.6317136" lon="11.4279972"><ele>281.0</ele><time>2026-04-08T16:05:36.642Z</time></trkpt><trkpt lat="43.6316548" lon="11.4281775"><ele>279.5</ele><time>2026-04-08T16:05:37.642Z</time></trkpt><trkpt lat="43.6315895" lon="11.4283445"><ele>278.0</ele><time>2026-04-08T16:05:38.641Z</time></trkpt><trkpt lat="43.6315423" lon="11.4285132"><ele>278.0</ele><time>2026-04-08T16:05:39.641Z</time></trkpt><trkpt lat="43.6315316" lon="11.4287023"><ele>278.0</ele><time>2026-04-08T16:05:40.641Z</time></trkpt><trkpt lat="43.6315317" lon="11.4288919"><ele>278.0</ele><time>2026-04-08T16:05:41.642Z</time></trkpt><trkpt lat="43.6315033" lon="11.4290727"><ele>278.0</ele><time>2026-04-08T16:05:42.641Z</time></trkpt><trkpt lat="43.6314279" lon="11.4292048"><ele>277.5</ele><time>2026-04-08T16:05:43.641Z</time></trkpt><trkpt lat="43.6313146" lon="11.4293066"><ele>277.0</ele><time>2026-04-08T16:05:44.641Z</time></trkpt><trkpt lat="43.6311858" lon="11.4294037"><ele>276.5</ele><time>2026-04-08T16:05:45.642Z</time></trkpt><trkpt lat="43.6310421" lon="11.4295196"><ele>276.0</ele><time>2026-04-08T16:05:46.642Z</time></trkpt><trkpt lat="43.6309084" lon="11.4296387"><ele>274.75</ele><time>2026-04-08T16:05:47.642Z</time></trkpt><trkpt lat="43.6307803" lon="11.429742"><ele>273.5</ele><time>2026-04-08T16:05:48.641Z</time></trkpt><trkpt lat="43.6306611" lon="11.4298451"><ele>272.25</ele><time>2026-04-08T16:05:49.641Z</time></trkpt><trkpt lat="43.6305588" lon="11.4299703"><ele>271.0</ele><time>2026-04-08T16:05:50.642Z</time></trkpt><trkpt lat="43.6304828" lon="11.4301198"><ele>271.0</ele><time>2026-04-08T16:05:51.641Z</time></trkpt><trkpt lat="43.6304542" lon="11.4303102"><ele>271.0</ele><time>2026-04-08T16:05:52.642Z</time></trkpt><trkpt lat="43.630453" lon="11.4305254"><ele>271.0</ele><time>2026-04-08T16:05:53.641Z</time></trkpt><trkpt lat="43.6304819" lon="11.4307406"><ele>271.0</ele><time>2026-04-08T16:05:54.642Z</time></trkpt><trkpt lat="43.6304854" lon="11.4309325"><ele>271.0</ele><time>2026-04-08T16:05:55.642Z</time></trkpt><trkpt lat="43.6305202" lon="11.4311182"><ele>271.0</ele><time>2026-04-08T16:05:56.641Z</time></trkpt><trkpt lat="43.6305919" lon="11.4312862"><ele>271.0</ele><time>2026-04-08T16:05:57.641Z</time></trkpt><trkpt lat="43.6306674" lon="11.431428"><ele>272.40000000000003</ele><time>2026-04-08T16:05:58.641Z</time></trkpt><trkpt lat="43.6307433" lon="11.4315558"><ele>273.8</ele><time>2026-04-08T16:05:59.641Z</time></trkpt><trkpt lat="43.6308093" lon="11.4316794"><ele>275.20000000000005</ele><time>2026-04-08T16:06:00.641Z</time></trkpt><trkpt lat="43.6308503" lon="11.4318048"><ele>276.6</ele><time>2026-04-08T16:06:01.642Z</time></trkpt><trkpt lat="43.6308573" lon="11.4319331"><ele>278.0</ele><time>2026-04-08T16:06:02.642Z</time></trkpt><trkpt lat="43.6308375" lon="11.4320761"><ele>276.75</ele><time>2026-04-08T16:06:03.641Z</time></trkpt><trkpt lat="43.6307817" lon="11.4322271"><ele>275.5</ele><time>2026-04-08T16:06:04.642Z</time></trkpt><trkpt lat="43.6307106" lon="11.4323685"><ele>274.25</ele><time>2026-04-08T16:06:05.642Z</time></trkpt><trkpt lat="43.6306087" lon="11.4324899"><ele>273.0</ele><time>2026-04-08T16:06:06.642Z</time></trkpt><trkpt lat="43.6305127" lon="11.4325638"><ele>273.0</ele><time>2026-04-08T16:06:07.641Z</time></trkpt><trkpt lat="43.6304147" lon="11.4326132"><ele>273.0</ele><time>2026-04-08T16:06:08.641Z</time></trkpt><trkpt lat="43.6303201" lon="11.4326568"><ele>273.0</ele><time>2026-04-08T16:06:09.641Z</time></trkpt><trkpt lat="43.630236" lon="11.4326983"><ele>273.0</ele><time>2026-04-08T16:06:10.641Z</time></trkpt><trkpt lat="43.6301515" lon="11.4327341"><ele>273.0</ele><time>2026-04-08T16:06:11.641Z</time></trkpt><trkpt lat="43.6300664" lon="11.4327555"><ele>274.6</ele><time>2026-04-08T16:06:12.641Z</time></trkpt><trkpt lat="43.6299786" lon="11.4327687"><ele>276.20000000000005</ele><time>2026-04-08T16:06:13.641Z</time></trkpt><trkpt lat="43.6298752" lon="11.4327883"><ele>277.8</ele><time>2026-04-08T16:06:14.641Z</time></trkpt><trkpt lat="43.629757" lon="11.4328105"><ele>279.40000000000003</ele><time>2026-04-08T16:06:15.641Z</time></trkpt><trkpt lat="43.6296263" lon="11.4328277"><ele>281.0</ele><time>2026-04-08T16:06:16.642Z</time></trkpt><trkpt lat="43.6294894" lon="11.4328549"><ele>281.0</ele><time>2026-04-08T16:06:17.641Z</time></trkpt><trkpt lat="43.6293484" lon="11.4329016"><ele>281.0</ele><time>2026-04-08T16:06:18.641Z</time></trkpt><trkpt lat="43.6292015" lon="11.4329658"><ele>281.0</ele><time>2026-04-08T16:06:19.641Z</time></trkpt><trkpt lat="43.629053" lon="11.4330321"><ele>277.33333333333337</ele><time>2026-04-08T16:06:20.641Z</time></trkpt><trkpt lat="43.6289028" lon="11.4331093"><ele>273.6666666666667</ele><time>2026-04-08T16:06:21.641Z</time></trkpt><trkpt lat="43.6287488" lon="11.4331917"><ele>270.0</ele><time>2026-04-08T16:06:22.642Z</time></trkpt><trkpt lat="43.6286009" lon="11.4332757"><ele>270.0</ele><time>2026-04-08T16:06:23.641Z</time></trkpt><trkpt lat="43.6284574" lon="11.4333509"><ele>270.0</ele><time>2026-04-08T16:06:24.642Z</time></trkpt><trkpt lat="43.6283188" lon="11.4334255"><ele>270.0</ele><time>2026-04-08T16:06:25.641Z</time></trkpt><trkpt lat="43.6281757" lon="11.4334645"><ele>270.0</ele><time>2026-04-08T16:06:26.641Z</time></trkpt><trkpt lat="43.6280261" lon="11.4334863"><ele>270.0</ele><time>2026-04-08T16:06:27.641Z</time></trkpt><trkpt lat="43.6278859" lon="11.4334759"><ele>270.0</ele><time>2026-04-08T16:06:28.642Z</time></trkpt><trkpt lat="43.6277458" lon="11.4334898"><ele>270.0</ele><time>2026-04-08T16:06:29.642Z</time></trkpt><trkpt lat="43.6276098" lon="11.4335322"><ele>270.0</ele><time>2026-04-08T16:06:30.642Z</time></trkpt><trkpt lat="43.6274771" lon="11.4336153"><ele>269.75</ele><time>2026-04-08T16:06:31.642Z</time></trkpt><trkpt lat="43.6273442" lon="11.433703"><ele>269.5</ele><time>2026-04-08T16:06:32.641Z</time></trkpt><trkpt lat="43.6272158" lon="11.4337815"><ele>269.25</ele><time>2026-04-08T16:06:33.641Z</time></trkpt><trkpt lat="43.6271119" lon="11.4338737"><ele>269.0</ele><time>2026-04-08T16:06:34.641Z</time></trkpt><trkpt lat="43.6270415" lon="11.4340063"><ele>268.25</ele><time>2026-04-08T16:06:35.641Z</time></trkpt><trkpt lat="43.6269965" lon="11.4341805"><ele>267.5</ele><time>2026-04-08T16:06:36.641Z</time></trkpt><trkpt lat="43.6269642" lon="11.4343665"><ele>266.75</ele><time>2026-04-08T16:06:37.641Z</time></trkpt><trkpt lat="43.6269221" lon="11.434554"><ele>266.0</ele><time>2026-04-08T16:06:38.642Z</time></trkpt><trkpt lat="43.6268736" lon="11.434717"><ele>265.0</ele><time>2026-04-08T16:06:39.641Z</time></trkpt><trkpt lat="43.6268118" lon="11.4348585"><ele>264.0</ele><time>2026-04-08T16:06:40.641Z</time></trkpt><trkpt lat="43.6267262" lon="11.4349845"><ele>263.0</ele><time>2026-04-08T16:06:41.641Z</time></trkpt><trkpt lat="43.6266203" lon="11.4350744"><ele>262.0</ele><time>2026-04-08T16:06:42.641Z</time></trkpt><trkpt lat="43.6265074" lon="11.4351466"><ele>262.0</ele><time>2026-04-08T16:06:43.641Z</time></trkpt><trkpt lat="43.6263867" lon="11.4352054"><ele>262.0</ele><time>2026-04-08T16:06:44.642Z</time></trkpt><trkpt lat="43.626259" lon="11.4352645"><ele>262.0</ele><time>2026-04-08T16:06:45.641Z</time></trkpt><trkpt lat="43.6261288" lon="11.4353173"><ele>262.0</ele><time>2026-04-08T16:06:46.641Z</time></trkpt><trkpt lat="43.6260093" lon="11.4353595"><ele>261.25</ele><time>2026-04-08T16:06:47.641Z</time></trkpt><trkpt lat="43.6258975" lon="11.4354007"><ele>260.5</ele><time>2026-04-08T16:06:48.641Z</time></trkpt><trkpt lat="43.6257746" lon="11.4354358"><ele>259.75</ele><time>2026-04-08T16:06:49.641Z</time></trkpt><trkpt lat="43.6256444" lon="11.4354511"><ele>259.0</ele><time>2026-04-08T16:06:50.641Z</time></trkpt><trkpt lat="43.6255247" lon="11.4354846"><ele>259.0</ele><time>2026-04-08T16:06:51.641Z</time></trkpt><trkpt lat="43.6254039" lon="11.4355718"><ele>259.0</ele><time>2026-04-08T16:06:52.641Z</time></trkpt><trkpt lat="43.6252828" lon="11.4357209"><ele>259.0</ele><time>2026-04-08T16:06:53.641Z</time></trkpt><trkpt lat="43.625183" lon="11.4358537"><ele>259.0</ele><time>2026-04-08T16:06:54.641Z</time></trkpt><trkpt lat="43.6250611" lon="11.435954"><ele>260.5</ele><time>2026-04-08T16:06:55.641Z</time></trkpt><trkpt lat="43.6249408" lon="11.4360065"><ele>262.0</ele><time>2026-04-08T16:06:56.641Z</time></trkpt><trkpt lat="43.6248142" lon="11.4360218"><ele>263.5</ele><time>2026-04-08T16:06:57.642Z</time></trkpt><trkpt lat="43.6247134" lon="11.435981"><ele>265.0</ele><time>2026-04-08T16:06:58.641Z</time></trkpt><trkpt lat="43.6246286" lon="11.4358926"><ele>265.0</ele><time>2026-04-08T16:06:59.641Z</time></trkpt><trkpt lat="43.6245555" lon="11.4357545"><ele>265.0</ele><time>2026-04-08T16:07:00.641Z</time></trkpt><trkpt lat="43.624498" lon="11.4355873"><ele>265.0</ele><time>2026-04-08T16:07:01.642Z</time></trkpt><trkpt lat="43.6244335" lon="11.4354362"><ele>265.0</ele><time>2026-04-08T16:07:02.641Z</time></trkpt><trkpt lat="43.6243417" lon="11.4353086"><ele>267.5</ele><time>2026-04-08T16:07:03.641Z</time></trkpt><trkpt lat="43.6242181" lon="11.4352174"><ele>270.0</ele><time>2026-04-08T16:07:04.642Z</time></trkpt><trkpt lat="43.6240823" lon="11.4351581"><ele>272.5</ele><time>2026-04-08T16:07:05.641Z</time></trkpt><trkpt lat="43.6239575" lon="11.4350994"><ele>275.0</ele><time>2026-04-08T16:07:06.642Z</time></trkpt><trkpt lat="43.6238447" lon="11.4350611"><ele>275.0</ele><time>2026-04-08T16:07:07.641Z</time></trkpt><trkpt lat="43.623707" lon="11.4350873"><ele>275.0</ele><time>2026-04-08T16:07:08.641Z</time></trkpt><trkpt lat="43.6235834" lon="11.4351522"><ele>275.0</ele><time>2026-04-08T16:07:09.641Z</time></trkpt><trkpt lat="43.6234533" lon="11.4352169"><ele>275.0</ele><time>2026-04-08T16:07:10.642Z</time></trkpt><trkpt lat="43.6233024" lon="11.4351971"><ele>276.0</ele><time>2026-04-08T16:07:11.642Z</time></trkpt><trkpt lat="43.6231488" lon="11.4351735"><ele>277.0</ele><time>2026-04-08T16:07:12.641Z</time></trkpt><trkpt lat="43.6230061" lon="11.4351508"><ele>278.0</ele><time>2026-04-08T16:07:13.642Z</time></trkpt><trkpt lat="43.6228625" lon="11.4351613"><ele>279.0</ele><time>2026-04-08T16:07:14.641Z</time></trkpt><trkpt lat="43.6227372" lon="11.4352037"><ele>277.75</ele><time>2026-04-08T16:07:15.641Z</time></trkpt><trkpt lat="43.6226329" lon="11.4353121"><ele>276.5</ele><time>2026-04-08T16:07:16.641Z</time></trkpt><trkpt lat="43.6225371" lon="11.4354424"><ele>275.25</ele><time>2026-04-08T16:07:17.641Z</time></trkpt><trkpt lat="43.6224449" lon="11.4355166"><ele>274.0</ele><time>2026-04-08T16:07:18.642Z</time></trkpt><trkpt lat="43.6223249" lon="11.4355274"><ele>274.0</ele><time>2026-04-08T16:07:19.641Z</time></trkpt><trkpt lat="43.6221974" lon="11.4355168"><ele>274.0</ele><time>2026-04-08T16:07:20.641Z</time></trkpt><trkpt lat="43.6220523" lon="11.435489"><ele>274.0</ele><time>2026-04-08T16:07:21.641Z</time></trkpt><trkpt lat="43.6219151" lon="11.4354651"><ele>274.0</ele><time>2026-04-08T16:07:22.642Z</time></trkpt><trkpt lat="43.6217694" lon="11.4354355"><ele>279.0</ele><time>2026-04-08T16:07:23.641Z</time></trkpt><trkpt lat="43.6216205" lon="11.4353986"><ele>284.0</ele><time>2026-04-08T16:07:24.641Z</time></trkpt><trkpt lat="43.6214595" lon="11.4353552"><ele>289.0</ele><time>2026-04-08T16:07:25.641Z</time></trkpt><trkpt lat="43.6212969" lon="11.4353062"><ele>287.0</ele><time>2026-04-08T16:07:26.642Z</time></trkpt><trkpt lat="43.6211353" lon="11.4352535"><ele>285.0</ele><time>2026-04-08T16:07:27.641Z</time></trkpt><trkpt lat="43.6209772" lon="11.4352225"><ele>283.0</ele><time>2026-04-08T16:07:28.641Z</time></trkpt><trkpt lat="43.620818" lon="11.435219"><ele>283.0</ele><time>2026-04-08T16:07:29.641Z</time></trkpt><trkpt lat="43.6206529" lon="11.4352427"><ele>283.0</ele><time>2026-04-08T16:07:30.642Z</time></trkpt><trkpt lat="43.6204873" lon="11.4352946"><ele>283.0</ele><time>2026-04-08T16:07:31.641Z</time></trkpt><trkpt lat="43.6203304" lon="11.4353226"><ele>283.8</ele><time>2026-04-08T16:07:32.642Z</time></trkpt><trkpt lat="43.6201765" lon="11.4353396"><ele>284.6</ele><time>2026-04-08T16:07:33.641Z</time></trkpt><trkpt lat="43.6200512" lon="11.4353571"><ele>285.4</ele><time>2026-04-08T16:07:34.641Z</time></trkpt><trkpt lat="43.6199701" lon="11.4353838"><ele>286.2</ele><time>2026-04-08T16:07:35.641Z</time></trkpt><trkpt lat="43.6199088" lon="11.4354037"><ele>287.0</ele><time>2026-04-08T16:07:36.642Z</time></trkpt><trkpt lat="43.6198285" lon="11.4353986"><ele>287.0</ele><time>2026-04-08T16:07:38.642Z</time></trkpt><trkpt lat="43.6197957" lon="11.435294"><ele>287.0</ele><time>2026-04-08T16:08:24.641Z</time></trkpt><trkpt lat="43.6198599" lon="11.4351375"><ele>287.0</ele><time>2026-04-08T16:08:26.641Z</time></trkpt><trkpt lat="43.6199011" lon="11.4350329"><ele>287.0</ele><time>2026-04-08T16:08:27.641Z</time></trkpt><trkpt lat="43.6199351" lon="11.4349198"><ele>287.0</ele><time>2026-04-08T16:08:28.641Z</time></trkpt><trkpt lat="43.6199721" lon="11.4348045"><ele>287.0</ele><time>2026-04-08T16:08:29.641Z</time></trkpt><trkpt lat="43.6200051" lon="11.4346839"><ele>287.0</ele><time>2026-04-08T16:08:30.641Z</time></trkpt><trkpt lat="43.6200561" lon="11.4345569"><ele>287.0</ele><time>2026-04-08T16:08:31.641Z</time></trkpt><trkpt lat="43.6201139" lon="11.4344372"><ele>287.0</ele><time>2026-04-08T16:08:32.641Z</time></trkpt><trkpt lat="43.6201944" lon="11.4343193"><ele>287.0</ele><time>2026-04-08T16:08:33.641Z</time></trkpt><trkpt lat="43.6202859" lon="11.4342119"><ele>289.5</ele><time>2026-04-08T16:08:34.642Z</time></trkpt><trkpt lat="43.6204002" lon="11.4341174"><ele>292.0</ele><time>2026-04-08T16:08:35.641Z</time></trkpt><trkpt lat="43.6205284" lon="11.4340212"><ele>294.5</ele><time>2026-04-08T16:08:36.641Z</time></trkpt><trkpt lat="43.6206505" lon="11.4339163"><ele>297.0</ele><time>2026-04-08T16:08:37.641Z</time></trkpt><trkpt lat="43.6207806" lon="11.4338111"><ele>300.25</ele><time>2026-04-08T16:08:38.641Z</time></trkpt><trkpt lat="43.6209023" lon="11.4337121"><ele>303.5</ele><time>2026-04-08T16:08:39.642Z</time></trkpt><trkpt lat="43.621029" lon="11.4336287"><ele>306.75</ele><time>2026-04-08T16:08:40.641Z</time></trkpt><trkpt lat="43.6211423" lon="11.4335535"><ele>310.0</ele><time>2026-04-08T16:08:41.641Z</time></trkpt><trkpt lat="43.6212488" lon="11.4334833"><ele>311.8333333333333</ele><time>2026-04-08T16:08:42.641Z</time></trkpt><trkpt lat="43.6213404" lon="11.4334503"><ele>313.66666666666663</ele><time>2026-04-08T16:08:43.641Z</time></trkpt><trkpt lat="43.6214266" lon="11.433487"><ele>315.5</ele><time>2026-04-08T16:08:44.641Z</time></trkpt><trkpt lat="43.6214954" lon="11.4335573"><ele>317.3333333333333</ele><time>2026-04-08T16:08:45.641Z</time></trkpt><trkpt lat="43.6215453" lon="11.4336269"><ele>319.1666666666667</ele><time>2026-04-08T16:08:46.641Z</time></trkpt><trkpt lat="43.6215985" lon="11.4336903"><ele>321.0</ele><time>2026-04-08T16:08:47.641Z</time></trkpt><trkpt lat="43.6216543" lon="11.4337336"><ele>320.99999999999994</ele><time>2026-04-08T16:08:48.641Z</time></trkpt><trkpt lat="43.6217166" lon="11.4337547"><ele>321.0</ele><time>2026-04-08T16:08:49.642Z</time></trkpt><trkpt lat="43.6217831" lon="11.433774"><ele>321.0</ele><time>2026-04-08T16:08:50.641Z</time></trkpt><trkpt lat="43.6218523" lon="11.4337626"><ele>321.0</ele><time>2026-04-08T16:08:51.641Z</time></trkpt><trkpt lat="43.6219241" lon="11.4337358"><ele>321.0</ele><time>2026-04-08T16:08:52.642Z</time></trkpt><trkpt lat="43.6219911" lon="11.4336971"><ele>320.99999999999994</ele><time>2026-04-08T16:08:53.642Z</time></trkpt><trkpt lat="43.6220674" lon="11.4336138"><ele>321.0</ele><time>2026-04-08T16:08:54.641Z</time></trkpt><trkpt lat="43.6221524" lon="11.4335259"><ele>321.0</ele><time>2026-04-08T16:08:55.642Z</time></trkpt><trkpt lat="43.6222362" lon="11.4334589"><ele>321.0</ele><time>2026-04-08T16:08:56.641Z</time></trkpt><trkpt lat="43.6223314" lon="11.4334129"><ele>321.0</ele><time>2026-04-08T16:08:57.641Z</time></trkpt><trkpt lat="43.6224234" lon="11.4333986"><ele>321.0</ele><time>2026-04-08T16:08:58.641Z</time></trkpt><trkpt lat="43.6224982" lon="11.4333882"><ele>321.0</ele><time>2026-04-08T16:08:59.642Z</time></trkpt><trkpt lat="43.6225773" lon="11.4333441"><ele>321.0</ele><time>2026-04-08T16:09:00.642Z</time></trkpt><trkpt lat="43.6226381" lon="11.4332556"><ele>321.0</ele><time>2026-04-08T16:09:01.642Z</time></trkpt><trkpt lat="43.6226869" lon="11.4331437"><ele>321.0</ele><time>2026-04-08T16:09:02.641Z</time></trkpt><trkpt lat="43.6227158" lon="11.4330261"><ele>321.0</ele><time>2026-04-08T16:09:03.641Z</time></trkpt><trkpt lat="43.6227465" lon="11.4329248"><ele>321.0</ele><time>2026-04-08T16:09:04.642Z</time></trkpt><trkpt lat="43.6228039" lon="11.4328474"><ele>321.0</ele><time>2026-04-08T16:09:05.641Z</time></trkpt><trkpt lat="43.6228739" lon="11.4327919"><ele>321.3333333333333</ele><time>2026-04-08T16:09:06.641Z</time></trkpt><trkpt lat="43.6229557" lon="11.4327687"><ele>321.6666666666667</ele><time>2026-04-08T16:09:07.642Z</time></trkpt><trkpt lat="43.6230279" lon="11.4327488"><ele>322.0</ele><time>2026-04-08T16:09:08.641Z</time></trkpt><trkpt lat="43.62309" lon="11.4327105"><ele>322.33333333333337</ele><time>2026-04-08T16:09:09.641Z</time></trkpt><trkpt lat="43.6231313" lon="11.4326181"><ele>322.6666666666667</ele><time>2026-04-08T16:09:10.642Z</time></trkpt><trkpt lat="43.6231598" lon="11.432504"><ele>323.0</ele><time>2026-04-08T16:09:11.642Z</time></trkpt><trkpt lat="43.6231825" lon="11.4323794"><ele>323.0</ele><time>2026-04-08T16:09:12.641Z</time></trkpt><trkpt lat="43.6232136" lon="11.4322411"><ele>323.0</ele><time>2026-04-08T16:09:13.641Z</time></trkpt><trkpt lat="43.6232502" lon="11.4321099"><ele>323.0</ele><time>2026-04-08T16:09:14.642Z</time></trkpt><trkpt lat="43.6232962" lon="11.4319971"><ele>323.0</ele><time>2026-04-08T16:09:15.641Z</time></trkpt><trkpt lat="43.6233516" lon="11.4319124"><ele>323.0</ele><time>2026-04-08T16:09:16.641Z</time></trkpt><trkpt lat="43.6234296" lon="11.4318451"><ele>324.59999999999997</ele><time>2026-04-08T16:09:17.641Z</time></trkpt><trkpt lat="43.6235239" lon="11.4318074"><ele>326.2</ele><time>2026-04-08T16:09:18.641Z</time></trkpt><trkpt lat="43.6236222" lon="11.4317577"><ele>327.8</ele><time>2026-04-08T16:09:19.641Z</time></trkpt><trkpt lat="43.6237235" lon="11.4317135"><ele>329.4</ele><time>2026-04-08T16:09:20.641Z</time></trkpt><trkpt lat="43.6238295" lon="11.43165"><ele>331.0</ele><time>2026-04-08T16:09:21.642Z</time></trkpt><trkpt lat="43.6239324" lon="11.4315718"><ele>331.0</ele><time>2026-04-08T16:09:22.642Z</time></trkpt><trkpt lat="43.6240282" lon="11.431489"><ele>331.0</ele><time>2026-04-08T16:09:23.641Z</time></trkpt><trkpt lat="43.6241373" lon="11.4314022"><ele>331.0</ele><time>2026-04-08T16:09:24.641Z</time></trkpt><trkpt lat="43.6242567" lon="11.4313085"><ele>331.0</ele><time>2026-04-08T16:09:25.641Z</time></trkpt><trkpt lat="43.6243789" lon="11.431216"><ele>332.0</ele><time>2026-04-08T16:09:26.642Z</time></trkpt><trkpt lat="43.6244906" lon="11.431123"><ele>333.0</ele><time>2026-04-08T16:09:27.641Z</time></trkpt><trkpt lat="43.6246112" lon="11.4310462"><ele>334.0</ele><time>2026-04-08T16:09:28.641Z</time></trkpt><trkpt lat="43.6247206" lon="11.4309878"><ele>335.0</ele><time>2026-04-08T16:09:29.642Z</time></trkpt><trkpt lat="43.6248231" lon="11.4309396"><ele>335.0</ele><time>2026-04-08T16:09:30.642Z</time></trkpt><trkpt lat="43.6249223" lon="11.4308699"><ele>335.0</ele><time>2026-04-08T16:09:31.641Z</time></trkpt><trkpt lat="43.6250228" lon="11.4307712"><ele>335.0</ele><time>2026-04-08T16:09:32.641Z</time></trkpt><trkpt lat="43.6251282" lon="11.4306687"><ele>335.0</ele><time>2026-04-08T16:09:33.641Z</time></trkpt><trkpt lat="43.6252302" lon="11.4305627"><ele>338.5</ele><time>2026-04-08T16:09:34.641Z</time></trkpt><trkpt lat="43.6253264" lon="11.4304653"><ele>342.0</ele><time>2026-04-08T16:09:35.641Z</time></trkpt><trkpt lat="43.6254191" lon="11.4303853"><ele>345.5</ele><time>2026-04-08T16:09:36.642Z</time></trkpt><trkpt lat="43.6255263" lon="11.4303277"><ele>349.0</ele><time>2026-04-08T16:09:37.641Z</time></trkpt><trkpt lat="43.6256451" lon="11.4302814"><ele>349.0</ele><time>2026-04-08T16:09:38.641Z</time></trkpt><trkpt lat="43.6257783" lon="11.430245"><ele>349.0</ele><time>2026-04-08T16:09:39.642Z</time></trkpt><trkpt lat="43.6258998" lon="11.4302144"><ele>349.0</ele><time>2026-04-08T16:09:40.641Z</time></trkpt><trkpt lat="43.626015" lon="11.4301901"><ele>349.0</ele><time>2026-04-08T16:09:41.642Z</time></trkpt><trkpt lat="43.6261098" lon="11.4301732"><ele>348.8333333333333</ele><time>2026-04-08T16:09:42.641Z</time></trkpt><trkpt lat="43.6261909" lon="11.4301502"><ele>348.66666666666663</ele><time>2026-04-08T16:09:43.641Z</time></trkpt><trkpt lat="43.6262525" lon="11.4300994"><ele>348.5</ele><time>2026-04-08T16:09:44.641Z</time></trkpt><trkpt lat="43.6262885" lon="11.4300255"><ele>348.3333333333333</ele><time>2026-04-08T16:09:45.641Z</time></trkpt><trkpt lat="43.6263295" lon="11.4299119"><ele>348.1666666666667</ele><time>2026-04-08T16:09:46.641Z</time></trkpt><trkpt lat="43.6263655" lon="11.42978"><ele>348.0</ele><time>2026-04-08T16:09:47.642Z</time></trkpt><trkpt lat="43.6264105" lon="11.4296156"><ele>348.0</ele><time>2026-04-08T16:09:48.642Z</time></trkpt><trkpt lat="43.6264652" lon="11.4294579"><ele>348.0</ele><time>2026-04-08T16:09:49.641Z</time></trkpt><trkpt lat="43.6265224" lon="11.4293037"><ele>348.0</ele><time>2026-04-08T16:09:50.642Z</time></trkpt><trkpt lat="43.6265749" lon="11.4291696"><ele>348.0</ele><time>2026-04-08T16:09:51.641Z</time></trkpt><trkpt lat="43.626612" lon="11.4290477"><ele>348.0</ele><time>2026-04-08T16:09:52.641Z</time></trkpt><trkpt lat="43.6266339" lon="11.428941"><ele>348.0</ele><time>2026-04-08T16:09:53.642Z</time></trkpt><trkpt lat="43.6266387" lon="11.4288246"><ele>348.0</ele><time>2026-04-08T16:09:54.641Z</time></trkpt><trkpt lat="43.6266191" lon="11.4287049"><ele>348.0</ele><time>2026-04-08T16:09:55.642Z</time></trkpt><trkpt lat="43.6265885" lon="11.4285952"><ele>348.0</ele><time>2026-04-08T16:09:56.641Z</time></trkpt><trkpt lat="43.6265657" lon="11.4285072"><ele>348.0</ele><time>2026-04-08T16:09:57.642Z</time></trkpt><trkpt lat="43.6266012" lon="11.4283307"><ele>349.25</ele><time>2026-04-08T16:09:59.641Z</time></trkpt><trkpt lat="43.6266584" lon="11.4282263"><ele>350.5</ele><time>2026-04-08T16:10:00.642Z</time></trkpt><trkpt lat="43.6267439" lon="11.4281062"><ele>351.75</ele><time>2026-04-08T16:10:01.642Z</time></trkpt><trkpt lat="43.6268407" lon="11.427978"><ele>353.0</ele><time>2026-04-08T16:10:02.642Z</time></trkpt><trkpt lat="43.6269344" lon="11.4278487"><ele>352.4</ele><time>2026-04-08T16:10:03.641Z</time></trkpt><trkpt lat="43.6270182" lon="11.4277253"><ele>351.79999999999995</ele><time>2026-04-08T16:10:04.642Z</time></trkpt><trkpt lat="43.6270865" lon="11.4276089"><ele>351.2</ele><time>2026-04-08T16:10:05.641Z</time></trkpt><trkpt lat="43.6271433" lon="11.4275029"><ele>350.6</ele><time>2026-04-08T16:10:06.641Z</time></trkpt><trkpt lat="43.6271878" lon="11.4273903"><ele>350.0</ele><time>2026-04-08T16:10:07.642Z</time></trkpt><trkpt lat="43.6272215" lon="11.4272351"><ele>352.25</ele><time>2026-04-08T16:10:08.642Z</time></trkpt><trkpt lat="43.6272462" lon="11.4270763"><ele>354.5</ele><time>2026-04-08T16:10:09.641Z</time></trkpt><trkpt lat="43.627265" lon="11.4269127"><ele>356.75</ele><time>2026-04-08T16:10:10.642Z</time></trkpt><trkpt lat="43.6272832" lon="11.4267563"><ele>359.0</ele><time>2026-04-08T16:10:11.641Z</time></trkpt><trkpt lat="43.6273007" lon="11.4265984"><ele>359.0</ele><time>2026-04-08T16:10:12.641Z</time></trkpt><trkpt lat="43.6273152" lon="11.4264439"><ele>359.0</ele><time>2026-04-08T16:10:13.642Z</time></trkpt><trkpt lat="43.6273364" lon="11.4262956"><ele>359.0</ele><time>2026-04-08T16:10:14.641Z</time></trkpt><trkpt lat="43.6273491" lon="11.4261563"><ele>359.0</ele><time>2026-04-08T16:10:15.641Z</time></trkpt><trkpt lat="43.6273714" lon="11.4260176"><ele>359.0</ele><time>2026-04-08T16:10:16.642Z</time></trkpt><trkpt lat="43.6274112" lon="11.4258959"><ele>362.0</ele><time>2026-04-08T16:10:17.641Z</time></trkpt><trkpt lat="43.6274681" lon="11.4257822"><ele>365.0</ele><time>2026-04-08T16:10:18.641Z</time></trkpt><trkpt lat="43.627533" lon="11.4256645"><ele>368.0</ele><time>2026-04-08T16:10:19.641Z</time></trkpt><trkpt lat="43.6276216" lon="11.425552"><ele>371.0</ele><time>2026-04-08T16:10:20.642Z</time></trkpt><trkpt lat="43.6277176" lon="11.4254211"><ele>372.75</ele><time>2026-04-08T16:10:21.641Z</time></trkpt><trkpt lat="43.6278083" lon="11.4252909"><ele>374.5</ele><time>2026-04-08T16:10:22.642Z</time></trkpt><trkpt lat="43.6278981" lon="11.4251607"><ele>376.25</ele><time>2026-04-08T16:10:23.641Z</time></trkpt><trkpt lat="43.6279861" lon="11.4250354"><ele>378.0</ele><time>2026-04-08T16:10:24.641Z</time></trkpt><trkpt lat="43.6280711" lon="11.4249066"><ele>378.0</ele><time>2026-04-08T16:10:25.641Z</time></trkpt><trkpt lat="43.6281604" lon="11.4247975"><ele>378.0</ele><time>2026-04-08T16:10:26.642Z</time></trkpt><trkpt lat="43.6282459" lon="11.424688"><ele>378.0</ele><time>2026-04-08T16:10:27.641Z</time></trkpt><trkpt lat="43.6283248" lon="11.4245816"><ele>378.0</ele><time>2026-04-08T16:10:28.641Z</time></trkpt><trkpt lat="43.628373" lon="11.4244966"><ele>378.0</ele><time>2026-04-08T16:10:29.641Z</time></trkpt><trkpt lat="43.6284077" lon="11.4243935"><ele>381.2</ele><time>2026-04-08T16:10:30.641Z</time></trkpt><trkpt lat="43.6284417" lon="11.4242643"><ele>384.4</ele><time>2026-04-08T16:10:31.642Z</time></trkpt><trkpt lat="43.6284762" lon="11.4241261"><ele>387.59999999999997</ele><time>2026-04-08T16:10:32.641Z</time></trkpt><trkpt lat="43.6285144" lon="11.4239908"><ele>390.79999999999995</ele><time>2026-04-08T16:10:33.641Z</time></trkpt><trkpt lat="43.6285609" lon="11.4238434"><ele>394.0</ele><time>2026-04-08T16:10:34.641Z</time></trkpt><trkpt lat="43.6285986" lon="11.4237013"><ele>392.0</ele><time>2026-04-08T16:10:35.641Z</time></trkpt><trkpt lat="43.6286385" lon="11.4235613"><ele>390.0</ele><time>2026-04-08T16:10:36.641Z</time></trkpt><trkpt lat="43.6286873" lon="11.4234187"><ele>388.0</ele><time>2026-04-08T16:10:37.641Z</time></trkpt><trkpt lat="43.6287289" lon="11.4232622"><ele>386.0</ele><time>2026-04-08T16:10:38.641Z</time></trkpt><trkpt lat="43.6287682" lon="11.4231285"><ele>384.0</ele><time>2026-04-08T16:10:39.641Z</time></trkpt><trkpt lat="43.6288019" lon="11.4230157"><ele>384.5</ele><time>2026-04-08T16:10:40.641Z</time></trkpt><trkpt lat="43.6288171" lon="11.4229161"><ele>385.0</ele><time>2026-04-08T16:10:41.641Z</time></trkpt><trkpt lat="43.6288077" lon="11.4228074"><ele>385.5</ele><time>2026-04-08T16:10:42.642Z</time></trkpt><trkpt lat="43.6287588" lon="11.4227117"><ele>386.0</ele><time>2026-04-08T16:10:43.641Z</time></trkpt><trkpt lat="43.6286973" lon="11.4226207"><ele>386.5</ele><time>2026-04-08T16:10:44.641Z</time></trkpt><trkpt lat="43.628641" lon="11.4225392"><ele>387.0</ele><time>2026-04-08T16:10:45.641Z</time></trkpt><trkpt lat="43.6285938" lon="11.4224501"><ele>391.8</ele><time>2026-04-08T16:10:46.641Z</time></trkpt><trkpt lat="43.6285625" lon="11.4223401"><ele>396.6</ele><time>2026-04-08T16:10:47.641Z</time></trkpt><trkpt lat="43.6285478" lon="11.4222011"><ele>401.40000000000003</ele><time>2026-04-08T16:10:48.642Z</time></trkpt><trkpt lat="43.6285183" lon="11.4220839"><ele>406.20000000000005</ele><time>2026-04-08T16:10:49.642Z</time></trkpt><trkpt lat="43.6284741" lon="11.4219656"><ele>411.0</ele><time>2026-04-08T16:10:50.642Z</time></trkpt><trkpt lat="43.6284328" lon="11.4218403"><ele>411.6666666666667</ele><time>2026-04-08T16:10:51.641Z</time></trkpt><trkpt lat="43.628413" lon="11.4217143"><ele>412.33333333333337</ele><time>2026-04-08T16:10:52.641Z</time></trkpt><trkpt lat="43.6284118" lon="11.4216175"><ele>413.0</ele><time>2026-04-08T16:10:53.642Z</time></trkpt><trkpt lat="43.628466" lon="11.4215413"><ele>413.6666666666667</ele><time>2026-04-08T16:10:54.641Z</time></trkpt><trkpt lat="43.6285294" lon="11.421474"><ele>414.33333333333337</ele><time>2026-04-08T16:10:55.641Z</time></trkpt><trkpt lat="43.628612" lon="11.4214237"><ele>415.0</ele><time>2026-04-08T16:10:56.641Z</time></trkpt><trkpt lat="43.628705" lon="11.4213874"><ele>413.83333333333337</ele><time>2026-04-08T16:10:57.641Z</time></trkpt><trkpt lat="43.6287976" lon="11.42137"><ele>412.6666666666667</ele><time>2026-04-08T16:10:58.642Z</time></trkpt><trkpt lat="43.6288773" lon="11.4213425"><ele>411.5</ele><time>2026-04-08T16:10:59.642Z</time></trkpt><trkpt lat="43.6289412" lon="11.4212916"><ele>410.33333333333337</ele><time>2026-04-08T16:11:00.641Z</time></trkpt><trkpt lat="43.6289906" lon="11.4212176"><ele>409.1666666666667</ele><time>2026-04-08T16:11:01.641Z</time></trkpt><trkpt lat="43.6290148" lon="11.4211198"><ele>408.0</ele><time>2026-04-08T16:11:02.642Z</time></trkpt><trkpt lat="43.6290203" lon="11.4210084"><ele>408.0</ele><time>2026-04-08T16:11:03.642Z</time></trkpt><trkpt lat="43.6289972" lon="11.4208867"><ele>408.0</ele><time>2026-04-08T16:11:04.641Z</time></trkpt><trkpt lat="43.628949" lon="11.4207625"><ele>408.0</ele><time>2026-04-08T16:11:05.641Z</time></trkpt><trkpt lat="43.6289065" lon="11.4206616"><ele>408.0</ele><time>2026-04-08T16:11:06.641Z</time></trkpt><trkpt lat="43.6288596" lon="11.4206011"><ele>408.0</ele><time>2026-04-08T16:11:07.642Z</time></trkpt><trkpt lat="43.6287662" lon="11.4205892"><ele>408.0</ele><time>2026-04-08T16:11:09.642Z</time></trkpt><trkpt lat="43.6286597" lon="11.4206543"><ele>411.79999999999995</ele><time>2026-04-08T16:11:11.641Z</time></trkpt><trkpt lat="43.6285406" lon="11.4207318"><ele>415.6</ele><time>2026-04-08T16:11:13.641Z</time></trkpt><trkpt lat="43.6284699" lon="11.4207796"><ele>419.40000000000003</ele><time>2026-04-08T16:11:14.642Z</time></trkpt><trkpt lat="43.6283948" lon="11.4208353"><ele>423.20000000000005</ele><time>2026-04-08T16:11:15.641Z</time></trkpt><trkpt lat="43.6283105" lon="11.4208798"><ele>427.0</ele><time>2026-04-08T16:11:16.641Z</time></trkpt><trkpt lat="43.6282328" lon="11.4209006"><ele>427.00000000000006</ele><time>2026-04-08T16:11:17.642Z</time></trkpt><trkpt lat="43.6281573" lon="11.4208824"><ele>427.0</ele><time>2026-04-08T16:11:18.642Z</time></trkpt><trkpt lat="43.6280966" lon="11.4208336"><ele>427.0</ele><time>2026-04-08T16:11:19.641Z</time></trkpt><trkpt lat="43.628048" lon="11.4207513"><ele>427.0</ele><time>2026-04-08T16:11:20.641Z</time></trkpt><trkpt lat="43.6280106" lon="11.4206434"><ele>427.00000000000006</ele><time>2026-04-08T16:11:21.641Z</time></trkpt><trkpt lat="43.6280023" lon="11.4205274"><ele>427.0</ele><time>2026-04-08T16:11:22.641Z</time></trkpt><trkpt lat="43.627998" lon="11.4203938"><ele>428.40000000000003</ele><time>2026-04-08T16:11:23.641Z</time></trkpt><trkpt lat="43.6279951" lon="11.4202536"><ele>429.80000000000007</ele><time>2026-04-08T16:11:24.641Z</time></trkpt><trkpt lat="43.6279983" lon="11.4201178"><ele>431.2</ele><time>2026-04-08T16:11:25.641Z</time></trkpt><trkpt lat="43.6280005" lon="11.4199759"><ele>432.6</ele><time>2026-04-08T16:11:26.641Z</time></trkpt><trkpt lat="43.6280054" lon="11.4198293"><ele>434.0</ele><time>2026-04-08T16:11:27.641Z</time></trkpt><trkpt lat="43.6280018" lon="11.4196823"><ele>436.2</ele><time>2026-04-08T16:11:28.642Z</time></trkpt><trkpt lat="43.6280028" lon="11.4195381"><ele>438.4</ele><time>2026-04-08T16:11:29.641Z</time></trkpt><trkpt lat="43.62799" lon="11.4194232"><ele>440.6</ele><time>2026-04-08T16:11:30.642Z</time></trkpt><trkpt lat="43.6279855" lon="11.4192746"><ele>442.8</ele><time>2026-04-08T16:11:32.641Z</time></trkpt><trkpt lat="43.6280276" lon="11.4191958"><ele>445.0</ele><time>2026-04-08T16:11:39.642Z</time></trkpt><trkpt lat="43.6281094" lon="11.4191484"><ele>445.00000000000006</ele><time>2026-04-08T16:11:41.642Z</time></trkpt><trkpt lat="43.6281813" lon="11.4191336"><ele>445.0</ele><time>2026-04-08T16:11:42.641Z</time></trkpt><trkpt lat="43.6282467" lon="11.4191129"><ele>445.0</ele><time>2026-04-08T16:11:43.641Z</time></trkpt><trkpt lat="43.628305" lon="11.4190688"><ele>445.0</ele><time>2026-04-08T16:11:44.642Z</time></trkpt><trkpt lat="43.6284067" lon="11.4189531"><ele>445.00000000000006</ele><time>2026-04-08T16:11:46.641Z</time></trkpt><trkpt lat="43.628466" lon="11.4188752"><ele>445.0</ele><time>2026-04-08T16:11:47.641Z</time></trkpt><trkpt lat="43.6285162" lon="11.418785"><ele>443.83333333333337</ele><time>2026-04-08T16:11:48.642Z</time></trkpt><trkpt lat="43.6285526" lon="11.418694"><ele>442.6666666666667</ele><time>2026-04-08T16:11:49.641Z</time></trkpt><trkpt lat="43.6285877" lon="11.4186104"><ele>441.5</ele><time>2026-04-08T16:11:50.641Z</time></trkpt><trkpt lat="43.6286385" lon="11.4185455"><ele>440.33333333333337</ele><time>2026-04-08T16:11:52.641Z</time></trkpt><trkpt lat="43.6286875" lon="11.4184763"><ele>439.1666666666667</ele><time>2026-04-08T16:11:58.642Z</time></trkpt><trkpt lat="43.6287662" lon="11.4183763"><ele>438.0</ele><time>2026-04-08T16:12:00.641Z</time></trkpt><trkpt lat="43.6288006" lon="11.418302"><ele>438.0</ele><time>2026-04-08T16:12:01.641Z</time></trkpt><trkpt lat="43.6288812" lon="11.4181505"><ele>438.0</ele><time>2026-04-08T16:12:03.641Z</time></trkpt><trkpt lat="43.6289295" lon="11.4180644"><ele>438.0</ele><time>2026-04-08T16:12:04.642Z</time></trkpt><trkpt lat="43.6289707" lon="11.4179949"><ele>438.0</ele><time>2026-04-08T16:12:05.642Z</time></trkpt><trkpt lat="43.6290099" lon="11.4179247"><ele>438.0</ele><time>2026-04-08T16:12:06.641Z</time></trkpt><trkpt lat="43.6290506" lon="11.417852"><ele>438.0</ele><time>2026-04-08T16:12:07.641Z</time></trkpt><trkpt lat="43.6291218" lon="11.4177132"><ele>441.4</ele><time>2026-04-08T16:12:09.641Z</time></trkpt><trkpt lat="43.6291559" lon="11.4176389"><ele>444.79999999999995</ele><time>2026-04-08T16:12:10.642Z</time></trkpt><trkpt lat="43.6292048" lon="11.4174779"><ele>448.2</ele><time>2026-04-08T16:12:12.642Z</time></trkpt><trkpt lat="43.6292583" lon="11.4173449"><ele>451.6</ele><time>2026-04-08T16:12:14.641Z</time></trkpt><trkpt lat="43.6293037" lon="11.4172134"><ele>455.0</ele><time>2026-04-08T16:12:16.641Z</time></trkpt><trkpt lat="43.6293414" lon="11.4170586"><ele>455.4</ele><time>2026-04-08T16:12:18.641Z</time></trkpt><trkpt lat="43.6293236" lon="11.4169048"><ele>455.8</ele><time>2026-04-08T16:12:20.641Z</time></trkpt><trkpt lat="43.6292642" lon="11.4167882"><ele>456.20000000000005</ele><time>2026-04-08T16:12:22.642Z</time></trkpt><trkpt lat="43.6291701" lon="11.4166828"><ele>456.6</ele><time>2026-04-08T16:12:24.641Z</time></trkpt><trkpt lat="43.6291033" lon="11.4165628"><ele>457.0</ele><time>2026-04-08T16:12:26.642Z</time></trkpt><trkpt lat="43.6291792" lon="11.4164834"><ele>457.0</ele><time>2026-04-08T16:12:29.642Z</time></trkpt><trkpt lat="43.6292435" lon="11.4164717"><ele>457.00000000000006</ele><time>2026-04-08T16:12:31.641Z</time></trkpt><trkpt lat="43.6293115" lon="11.4164099"><ele>457.00000000000006</ele><time>2026-04-08T16:13:39.642Z</time></trkpt><trkpt lat="43.6293936" lon="11.4163278"><ele>457.0</ele><time>2026-04-08T16:13:41.642Z</time></trkpt><trkpt lat="43.6294872" lon="11.4162588"><ele>457.0</ele><time>2026-04-08T16:13:43.641Z</time></trkpt><trkpt lat="43.6295565" lon="11.4161587"><ele>457.8</ele><time>2026-04-08T16:13:45.641Z</time></trkpt><trkpt lat="43.6296028" lon="11.4159954"><ele>458.6</ele><time>2026-04-08T16:13:47.641Z</time></trkpt><trkpt lat="43.6296195" lon="11.4158313"><ele>459.40000000000003</ele><time>2026-04-08T16:13:49.642Z</time></trkpt><trkpt lat="43.6296403" lon="11.4157283"><ele>460.20000000000005</ele><time>2026-04-08T16:13:51.641Z</time></trkpt><trkpt lat="43.6297215" lon="11.4156858"><ele>461.0</ele><time>2026-04-08T16:14:01.641Z</time></trkpt><trkpt lat="43.6298139" lon="11.4156929"><ele>461.0</ele><time>2026-04-08T16:14:04.642Z</time></trkpt><trkpt lat="43.6299148" lon="11.4157513"><ele>461.0</ele><time>2026-04-08T16:14:06.641Z</time></trkpt><trkpt lat="43.6300181" lon="11.4158417"><ele>461.0</ele><time>2026-04-08T16:14:08.641Z</time></trkpt><trkpt lat="43.6301117" lon="11.4158621"><ele>461.0</ele><time>2026-04-08T16:14:10.642Z</time></trkpt><trkpt lat="43.6301924" lon="11.4158127"><ele>461.0</ele><time>2026-04-08T16:14:12.641Z</time></trkpt><trkpt lat="43.6302851" lon="11.4157541"><ele>461.8333333333333</ele><time>2026-04-08T16:14:14.641Z</time></trkpt><trkpt lat="43.6303908" lon="11.4156948"><ele>462.66666666666663</ele><time>2026-04-08T16:14:16.642Z</time></trkpt><trkpt lat="43.6304526" lon="11.4156466"><ele>463.5</ele><time>2026-04-08T16:14:17.641Z</time></trkpt><trkpt lat="43.6305315" lon="11.4156005"><ele>464.33333333333337</ele><time>2026-04-08T16:14:18.641Z</time></trkpt><trkpt lat="43.6305871" lon="11.4155527"><ele>465.1666666666667</ele><time>2026-04-08T16:14:19.642Z</time></trkpt><trkpt lat="43.6306788" lon="11.4154723"><ele>466.0</ele><time>2026-04-08T16:14:21.641Z</time></trkpt><trkpt lat="43.6307539" lon="11.415377"><ele>469.50000000000006</ele><time>2026-04-08T16:14:23.641Z</time></trkpt><trkpt lat="43.6307654" lon="11.4152435"><ele>473.0</ele><time>2026-04-08T16:14:25.641Z</time></trkpt><trkpt lat="43.6307968" lon="11.4151244"><ele>476.5</ele><time>2026-04-08T16:14:33.642Z</time></trkpt><trkpt lat="43.6307901" lon="11.4150275"><ele>480.0</ele><time>2026-04-08T16:14:34.641Z</time></trkpt><trkpt lat="43.6307962" lon="11.4148719"><ele>483.50000000000006</ele><time>2026-04-08T16:14:36.641Z</time></trkpt><trkpt lat="43.6307859" lon="11.4147789"><ele>487.0</ele><time>2026-04-08T16:14:37.641Z</time></trkpt><trkpt lat="43.6307686" lon="11.4146834"><ele>490.1666666666667</ele><time>2026-04-08T16:14:38.641Z</time></trkpt><trkpt lat="43.6307554" lon="11.4145782"><ele>493.33333333333337</ele><time>2026-04-08T16:14:39.641Z</time></trkpt><trkpt lat="43.6307562" lon="11.4144831"><ele>496.5</ele><time>2026-04-08T16:14:40.641Z</time></trkpt><trkpt lat="43.6307562" lon="11.4143787"><ele>499.66666666666663</ele><time>2026-04-08T16:14:41.641Z</time></trkpt><trkpt lat="43.6307567" lon="11.4142822"><ele>502.8333333333333</ele><time>2026-04-08T16:14:42.641Z</time></trkpt><trkpt lat="43.630755" lon="11.4141307"><ele>506.0</ele><time>2026-04-08T16:14:44.641Z</time></trkpt><trkpt lat="43.63078" lon="11.4139627"><ele>506.00000000000006</ele><time>2026-04-08T16:14:46.641Z</time></trkpt><trkpt lat="43.6308252" lon="11.4138929"><ele>506.0</ele><time>2026-04-08T16:14:47.642Z</time></trkpt><trkpt lat="43.6309148" lon="11.4138323"><ele>506.00000000000006</ele><time>2026-04-08T16:14:49.641Z</time></trkpt><trkpt lat="43.6309936" lon="11.4138695"><ele>506.00000000000006</ele><time>2026-04-08T16:14:59.641Z</time></trkpt><trkpt lat="43.6310477" lon="11.4139189"><ele>506.0</ele><time>2026-04-08T16:15:00.641Z</time></trkpt><trkpt lat="43.631105" lon="11.4139625"><ele>506.00000000000006</ele><time>2026-04-08T16:15:01.641Z</time></trkpt><trkpt lat="43.631164" lon="11.414007"><ele>506.00000000000006</ele><time>2026-04-08T16:15:02.641Z</time></trkpt><trkpt lat="43.6312274" lon="11.4140463"><ele>506.8333333333333</ele><time>2026-04-08T16:15:03.641Z</time></trkpt><trkpt lat="43.6312876" lon="11.4140807"><ele>507.66666666666663</ele><time>2026-04-08T16:15:04.641Z</time></trkpt><trkpt lat="43.6313567" lon="11.414114"><ele>508.5</ele><time>2026-04-08T16:15:05.641Z</time></trkpt><trkpt lat="43.6314248" lon="11.4141208"><ele>509.33333333333337</ele><time>2026-04-08T16:15:06.642Z</time></trkpt><trkpt lat="43.6315264" lon="11.4141305"><ele>510.1666666666667</ele><time>2026-04-08T16:15:08.641Z</time></trkpt><trkpt lat="43.6316126" lon="11.4140602"><ele>511.0</ele><time>2026-04-08T16:15:10.641Z</time></trkpt><trkpt lat="43.6316109" lon="11.413924"><ele>511.00000000000006</ele><time>2026-04-08T16:15:12.641Z</time></trkpt><trkpt lat="43.6316043" lon="11.4138344"><ele>511.0</ele><time>2026-04-08T16:15:13.641Z</time></trkpt><trkpt lat="43.631595" lon="11.4137286"><ele>511.0</ele><time>2026-04-08T16:15:14.641Z</time></trkpt><trkpt lat="43.631578" lon="11.4136413"><ele>511.0</ele><time>2026-04-08T16:15:15.641Z</time></trkpt><trkpt lat="43.6315067" lon="11.4135089"><ele>511.00000000000006</ele><time>2026-04-08T16:15:17.642Z</time></trkpt><trkpt lat="43.6314956" lon="11.4133506"><ele>511.0</ele><time>2026-04-08T16:15:19.641Z</time></trkpt><trkpt lat="43.631437" lon="11.4132401"><ele>512.1666666666667</ele><time>2026-04-08T16:15:21.641Z</time></trkpt><trkpt lat="43.6313796" lon="11.413194"><ele>513.3333333333334</ele><time>2026-04-08T16:15:22.641Z</time></trkpt><trkpt lat="43.6313088" lon="11.4131599"><ele>514.5</ele><time>2026-04-08T16:15:23.641Z</time></trkpt><trkpt lat="43.6312378" lon="11.4131071"><ele>515.6666666666666</ele><time>2026-04-08T16:15:24.641Z</time></trkpt><trkpt lat="43.6311773" lon="11.4129945"><ele>516.8333333333333</ele><time>2026-04-08T16:15:26.642Z</time></trkpt><trkpt lat="43.6311053" lon="11.4129154"><ele>518.0</ele><time>2026-04-08T16:15:28.641Z</time></trkpt><trkpt lat="43.6309897" lon="11.4129312"><ele>521.1666666666666</ele><time>2026-04-08T16:15:30.642Z</time></trkpt><trkpt lat="43.6308804" lon="11.4129668"><ele>524.3333333333333</ele><time>2026-04-08T16:15:32.642Z</time></trkpt><trkpt lat="43.6308064" lon="11.4129533"><ele>527.5</ele><time>2026-04-08T16:15:35.641Z</time></trkpt><trkpt lat="43.6307976" lon="11.4128611"><ele>530.6666666666666</ele><time>2026-04-08T16:15:42.641Z</time></trkpt><trkpt lat="43.6307933" lon="11.4127286"><ele>533.8333333333334</ele><time>2026-04-08T16:15:44.641Z</time></trkpt><trkpt lat="43.6307766" lon="11.4126315"><ele>537.0</ele><time>2026-04-08T16:15:46.641Z</time></trkpt><trkpt lat="43.6307279" lon="11.4125068"><ele>537.0</ele><time>2026-04-08T16:15:48.641Z</time></trkpt><trkpt lat="43.6306617" lon="11.4124019"><ele>537.0</ele><time>2026-04-08T16:15:50.641Z</time></trkpt><trkpt lat="43.6305736" lon="11.4123223"><ele>537.0</ele><time>2026-04-08T16:15:52.641Z</time></trkpt><trkpt lat="43.6305099" lon="11.412193"><ele>537.0</ele><time>2026-04-08T16:15:54.642Z</time></trkpt><trkpt lat="43.6304911" lon="11.4120242"><ele>537.0</ele><time>2026-04-08T16:15:56.641Z</time></trkpt><trkpt lat="43.6304618" lon="11.411935"><ele>538.8000000000001</ele><time>2026-04-08T16:15:57.641Z</time></trkpt><trkpt lat="43.6304112" lon="11.4117929"><ele>540.6</ele><time>2026-04-08T16:15:59.641Z</time></trkpt><trkpt lat="43.6304" lon="11.4116474"><ele>542.4000000000001</ele><time>2026-04-08T16:16:01.641Z</time></trkpt><trkpt lat="43.6303902" lon="11.4115574"><ele>544.2</ele><time>2026-04-08T16:16:03.641Z</time></trkpt><trkpt lat="43.630381" lon="11.4114242"><ele>546.0</ele><time>2026-04-08T16:16:06.642Z</time></trkpt><trkpt lat="43.6303652" lon="11.4113103"><ele>549.4</ele><time>2026-04-08T16:16:08.641Z</time></trkpt><trkpt lat="43.6303444" lon="11.4111599"><ele>552.8</ele><time>2026-04-08T16:16:10.641Z</time></trkpt><trkpt lat="43.6303342" lon="11.4109884"><ele>556.1999999999999</ele><time>2026-04-08T16:16:12.641Z</time></trkpt><trkpt lat="43.6303215" lon="11.4108986"><ele>559.6</ele><time>2026-04-08T16:16:13.642Z</time></trkpt><trkpt lat="43.6303049" lon="11.4108142"><ele>563.0</ele><time>2026-04-08T16:16:14.642Z</time></trkpt><trkpt lat="43.6303147" lon="11.4106494"><ele>563.5</ele><time>2026-04-08T16:16:16.642Z</time></trkpt><trkpt lat="43.6303695" lon="11.4105816"><ele>564.0</ele><time>2026-04-08T16:16:17.641Z</time></trkpt><trkpt lat="43.630424" lon="11.4105207"><ele>564.5</ele><time>2026-04-08T16:16:18.641Z</time></trkpt><trkpt lat="43.6304809" lon="11.4104239"><ele>565.0</ele><time>2026-04-08T16:16:20.641Z</time></trkpt><trkpt lat="43.6305107" lon="11.4102798"><ele>565.5</ele><time>2026-04-08T16:17:09.641Z</time></trkpt><trkpt lat="43.6305202" lon="11.4101332"><ele>566.0</ele><time>2026-04-08T16:17:11.641Z</time></trkpt><trkpt lat="43.6304995" lon="11.4099666"><ele>569.0</ele><time>2026-04-08T16:17:13.641Z</time></trkpt><trkpt lat="43.6304776" lon="11.4098741"><ele>572.0</ele><time>2026-04-08T16:17:14.642Z</time></trkpt><trkpt lat="43.6304502" lon="11.4097789"><ele>575.0</ele><time>2026-04-08T16:17:15.641Z</time></trkpt><trkpt lat="43.6304222" lon="11.4096898"><ele>578.0</ele><time>2026-04-08T16:17:16.641Z</time></trkpt><trkpt lat="43.6303946" lon="11.409589"><ele>581.0</ele><time>2026-04-08T16:17:17.642Z</time></trkpt><trkpt lat="43.6303585" lon="11.4094676"><ele>584.0</ele><time>2026-04-08T16:17:18.641Z</time></trkpt><trkpt lat="43.6303222" lon="11.4093182"><ele>583.5714285714286</ele><time>2026-04-08T16:17:19.642Z</time></trkpt><trkpt lat="43.6302917" lon="11.4091832"><ele>583.1428571428571</ele><time>2026-04-08T16:17:20.641Z</time></trkpt><trkpt lat="43.6302612" lon="11.4090807"><ele>582.7142857142858</ele><time>2026-04-08T16:17:21.641Z</time></trkpt><trkpt lat="43.6302418" lon="11.4089915"><ele>582.2857142857142</ele><time>2026-04-08T16:17:22.641Z</time></trkpt><trkpt lat="43.6302453" lon="11.4089039"><ele>581.8571428571429</ele><time>2026-04-08T16:17:23.641Z</time></trkpt><trkpt lat="43.630279" lon="11.4088252"><ele>581.4285714285714</ele><time>2026-04-08T16:17:24.642Z</time></trkpt><trkpt lat="43.6303306" lon="11.408772"><ele>581.0</ele><time>2026-04-08T16:17:25.641Z</time></trkpt><trkpt lat="43.6304086" lon="11.4087788"><ele>584.3333333333333</ele><time>2026-04-08T16:17:27.642Z</time></trkpt><trkpt lat="43.6304571" lon="11.4088884"><ele>587.6666666666666</ele><time>2026-04-08T16:17:29.641Z</time></trkpt><trkpt lat="43.6304924" lon="11.4089729"><ele>591.0</ele><time>2026-04-08T16:17:30.641Z</time></trkpt><trkpt lat="43.6305904" lon="11.4090197"><ele>594.3333333333334</ele><time>2026-04-08T16:17:32.641Z</time></trkpt><trkpt lat="43.6306564" lon="11.4090199"><ele>597.6666666666667</ele><time>2026-04-08T16:17:33.641Z</time></trkpt><trkpt lat="43.6307236" lon="11.4090128"><ele>601.0</ele><time>2026-04-08T16:17:34.641Z</time></trkpt><trkpt lat="43.6308261" lon="11.4089746"><ele>601.0</ele><time>2026-04-08T16:17:36.641Z</time></trkpt><trkpt lat="43.6308822" lon="11.4088885"><ele>601.0</ele><time>2026-04-08T16:17:38.641Z</time></trkpt><trkpt lat="43.6309026" lon="11.4088031"><ele>601.0</ele><time>2026-04-08T16:17:46.644Z</time></trkpt><trkpt lat="43.6309238" lon="11.4086901"><ele>601.0</ele><time>2026-04-08T16:17:48.644Z</time></trkpt><trkpt lat="43.6309426" lon="11.4085999"><ele>601.0</ele><time>2026-04-08T16:17:50.644Z</time></trkpt><trkpt lat="43.6309931" lon="11.4084533"><ele>601.0</ele><time>2026-04-08T16:17:52.645Z</time></trkpt><trkpt lat="43.6310231" lon="11.4083718"><ele>602.0</ele><time>2026-04-08T16:17:53.644Z</time></trkpt><trkpt lat="43.6310764" lon="11.4082519"><ele>603.0</ele><time>2026-04-08T16:17:55.644Z</time></trkpt><trkpt lat="43.6311252" lon="11.4081021"><ele>604.0</ele><time>2026-04-08T16:17:57.644Z</time></trkpt><trkpt lat="43.6311871" lon="11.4080047"><ele>605.0</ele><time>2026-04-08T16:17:59.644Z</time></trkpt><trkpt lat="43.6312749" lon="11.4079392"><ele>606.0</ele><time>2026-04-08T16:18:01.644Z</time></trkpt><trkpt lat="43.631344" lon="11.4079021"><ele>609.6666666666666</ele><time>2026-04-08T16:18:03.644Z</time></trkpt><trkpt lat="43.6314097" lon="11.4078719"><ele>613.3333333333334</ele><time>2026-04-08T16:18:05.644Z</time></trkpt><trkpt lat="43.6314849" lon="11.4078635"><ele>617.0</ele><time>2026-04-08T16:18:07.645Z</time></trkpt><trkpt lat="43.6315613" lon="11.4078566"><ele>620.6666666666667</ele><time>2026-04-08T16:18:09.644Z</time></trkpt><trkpt lat="43.6316348" lon="11.4079027"><ele>624.3333333333334</ele><time>2026-04-08T16:18:11.644Z</time></trkpt><trkpt lat="43.6317181" lon="11.40795"><ele>628.0</ele><time>2026-04-08T16:18:13.644Z</time></trkpt><trkpt lat="43.6318072" lon="11.4079859"><ele>627.8</ele><time>2026-04-08T16:18:15.644Z</time></trkpt><trkpt lat="43.6318995" lon="11.4080233"><ele>627.5999999999999</ele><time>2026-04-08T16:18:17.645Z</time></trkpt><trkpt lat="43.6319734" lon="11.4080339"><ele>627.4000000000001</ele><time>2026-04-08T16:18:19.644Z</time></trkpt><trkpt lat="43.632072" lon="11.4080182"><ele>627.2</ele><time>2026-04-08T16:18:22.644Z</time></trkpt><trkpt lat="43.6321602" lon="11.4079626"><ele>627.0</ele><time>2026-04-08T16:18:24.644Z</time></trkpt><trkpt lat="43.6322288" lon="11.4078594"><ele>629.6</ele><time>2026-04-08T16:18:26.645Z</time></trkpt><trkpt lat="43.6322785" lon="11.4077427"><ele>632.2</ele><time>2026-04-08T16:18:28.644Z</time></trkpt><trkpt lat="43.6322923" lon="11.4076225"><ele>634.8</ele><time>2026-04-08T16:18:30.644Z</time></trkpt><trkpt lat="43.6322581" lon="11.4075116"><ele>637.4</ele><time>2026-04-08T16:18:32.644Z</time></trkpt><trkpt lat="43.6321909" lon="11.4074282"><ele>640.0</ele><time>2026-04-08T16:18:34.644Z</time></trkpt><trkpt lat="43.6320998" lon="11.4073313"><ele>640.0</ele><time>2026-04-08T16:18:36.645Z</time></trkpt><trkpt lat="43.6320139" lon="11.4072603"><ele>640.0</ele><time>2026-04-08T16:18:38.645Z</time></trkpt><trkpt lat="43.6319661" lon="11.4071862"><ele>640.0</ele><time>2026-04-08T16:18:40.645Z</time></trkpt><trkpt lat="43.6319998" lon="11.4070909"><ele>640.0</ele><time>2026-04-08T16:18:43.645Z</time></trkpt><trkpt lat="43.6320861" lon="11.4071158"><ele>640.0</ele><time>2026-04-08T16:18:45.644Z</time></trkpt><trkpt lat="43.6321674" lon="11.407152"><ele>640.0</ele><time>2026-04-08T16:18:47.644Z</time></trkpt><trkpt lat="43.6322299" lon="11.4071001"><ele>643.0</ele><time>2026-04-08T16:18:49.645Z</time></trkpt><trkpt lat="43.6323286" lon="11.4070181"><ele>646.0</ele><time>2026-04-08T16:18:51.645Z</time></trkpt><trkpt lat="43.6324268" lon="11.4069509"><ele>649.0</ele><time>2026-04-08T16:18:53.644Z</time></trkpt><trkpt lat="43.6325131" lon="11.4069008"><ele>652.0</ele><time>2026-04-08T16:18:55.644Z</time></trkpt><trkpt lat="43.6325609" lon="11.4068066"><ele>655.0</ele><time>2026-04-08T16:18:57.644Z</time></trkpt><trkpt lat="43.6325163" lon="11.4067286"><ele>655.0</ele><time>2026-04-08T16:18:59.644Z</time></trkpt><trkpt lat="43.6324415" lon="11.4067429"><ele>655.0</ele><time>2026-04-08T16:19:01.644Z</time></trkpt><trkpt lat="43.6323612" lon="11.406738"><ele>655.0</ele><time>2026-04-08T16:19:03.644Z</time></trkpt><trkpt lat="43.6322798" lon="11.4066994"><ele>655.0</ele><time>2026-04-08T16:19:05.644Z</time></trkpt><trkpt lat="43.6321955" lon="11.406668"><ele>655.0</ele><time>2026-04-08T16:19:07.644Z</time></trkpt><trkpt lat="43.6321174" lon="11.4066012"><ele>655.0</ele><time>2026-04-08T16:19:09.644Z</time></trkpt><trkpt lat="43.6320448" lon="11.4065134"><ele>655.0</ele><time>2026-04-08T16:19:11.644Z</time></trkpt><trkpt lat="43.6319896" lon="11.4063984"><ele>655.0</ele><time>2026-04-08T16:19:13.644Z</time></trkpt><trkpt lat="43.6319279" lon="11.4062847"><ele>655.0</ele><time>2026-04-08T16:19:15.645Z</time></trkpt><trkpt lat="43.6318868" lon="11.406197"><ele>655.0</ele><time>2026-04-08T16:19:17.644Z</time></trkpt><trkpt lat="43.6318683" lon="11.4060985"><ele>655.0</ele><time>2026-04-08T16:19:19.644Z</time></trkpt><trkpt lat="43.6318665" lon="11.4059751"><ele>655.0</ele><time>2026-04-08T16:19:21.645Z</time></trkpt><trkpt lat="43.6318666" lon="11.4058758"><ele>655.5</ele><time>2026-04-08T16:19:23.644Z</time></trkpt><trkpt lat="43.6319256" lon="11.4057892"><ele>656.0</ele><time>2026-04-08T16:19:26.644Z</time></trkpt><trkpt lat="43.6319904" lon="11.4057273"><ele>656.5</ele><time>2026-04-08T16:19:28.644Z</time></trkpt><trkpt lat="43.6320546" lon="11.4056683"><ele>657.0</ele><time>2026-04-08T16:19:30.644Z</time></trkpt><trkpt lat="43.6321123" lon="11.4055892"><ele>657.5</ele><time>2026-04-08T16:19:32.644Z</time></trkpt><trkpt lat="43.6321537" lon="11.4054811"><ele>658.0</ele><time>2026-04-08T16:19:34.644Z</time></trkpt><trkpt lat="43.6322" lon="11.4053768"><ele>662.5999999999999</ele><time>2026-04-08T16:19:36.645Z</time></trkpt><trkpt lat="43.6322721" lon="11.4053173"><ele>667.1999999999999</ele><time>2026-04-08T16:19:38.644Z</time></trkpt><trkpt lat="43.6323889" lon="11.4052946"><ele>671.8</ele><time>2026-04-08T16:19:40.644Z</time></trkpt><trkpt lat="43.6324985" lon="11.4053356"><ele>676.4</ele><time>2026-04-08T16:19:42.644Z</time></trkpt><trkpt lat="43.6325762" lon="11.4053478"><ele>681.0</ele><time>2026-04-08T16:19:44.644Z</time></trkpt><trkpt lat="43.6326188" lon="11.4052706"><ele>681.0</ele><time>2026-04-08T16:19:46.644Z</time></trkpt><trkpt lat="43.6326226" lon="11.4051518"><ele>681.0</ele><time>2026-04-08T16:19:48.644Z</time></trkpt><trkpt lat="43.6326038" lon="11.4050144"><ele>681.0</ele><time>2026-04-08T16:19:50.644Z</time></trkpt><trkpt lat="43.6325932" lon="11.4048879"><ele>681.0</ele><time>2026-04-08T16:19:52.645Z</time></trkpt><trkpt lat="43.6325518" lon="11.4047775"><ele>681.0</ele><time>2026-04-08T16:19:54.644Z</time></trkpt><trkpt lat="43.63252" lon="11.4046518"><ele>682.5</ele><time>2026-04-08T16:19:56.645Z</time></trkpt><trkpt lat="43.6325003" lon="11.4045106"><ele>684.0</ele><time>2026-04-08T16:19:58.644Z</time></trkpt><trkpt lat="43.6325057" lon="11.4043832"><ele>685.5</ele><time>2026-04-08T16:20:00.644Z</time></trkpt><trkpt lat="43.6325256" lon="11.4042605"><ele>687.0</ele><time>2026-04-08T16:20:02.644Z</time></trkpt><trkpt lat="43.6325567" lon="11.404163"><ele>688.5</ele><time>2026-04-08T16:20:04.644Z</time></trkpt><trkpt lat="43.6325967" lon="11.4040925"><ele>690.0</ele><time>2026-04-08T16:22:02.644Z</time></trkpt><trkpt lat="43.6326358" lon="11.4040148"><ele>690.0</ele><time>2026-04-08T16:22:04.644Z</time></trkpt><trkpt lat="43.6326652" lon="11.4038515"><ele>690.0</ele><time>2026-04-08T16:22:06.645Z</time></trkpt><trkpt lat="43.6326684" lon="11.4037621"><ele>690.0</ele><time>2026-04-08T16:22:07.644Z</time></trkpt><trkpt lat="43.6326696" lon="11.4036558"><ele>690.0</ele><time>2026-04-08T16:22:08.645Z</time></trkpt><trkpt lat="43.6326671" lon="11.4035426"><ele>690.0</ele><time>2026-04-08T16:22:09.644Z</time></trkpt><trkpt lat="43.6326501" lon="11.4034462"><ele>690.0</ele><time>2026-04-08T16:22:10.644Z</time></trkpt><trkpt lat="43.6326443" lon="11.403353"><ele>689.6666666666666</ele><time>2026-04-08T16:22:11.644Z</time></trkpt><trkpt lat="43.632631" lon="11.4031661"><ele>689.3333333333334</ele><time>2026-04-08T16:22:13.645Z</time></trkpt><trkpt lat="43.6326315" lon="11.4030537"><ele>689.0</ele><time>2026-04-08T16:22:14.645Z</time></trkpt><trkpt lat="43.6326327" lon="11.4029556"><ele>688.6666666666667</ele><time>2026-04-08T16:22:15.644Z</time></trkpt><trkpt lat="43.6326257" lon="11.402854"><ele>688.3333333333334</ele><time>2026-04-08T16:22:16.644Z</time></trkpt><trkpt lat="43.632628" lon="11.4027547"><ele>688.0</ele><time>2026-04-08T16:22:17.644Z</time></trkpt><trkpt lat="43.632622" lon="11.4026673"><ele>687.5</ele><time>2026-04-08T16:22:18.645Z</time></trkpt><trkpt lat="43.6325955" lon="11.4025195"><ele>687.0</ele><time>2026-04-08T16:22:20.644Z</time></trkpt><trkpt lat="43.6325266" lon="11.4024009"><ele>686.5</ele><time>2026-04-08T16:22:22.645Z</time></trkpt><trkpt lat="43.6324769" lon="11.4023338"><ele>686.0</ele><time>2026-04-08T16:22:23.645Z</time></trkpt><trkpt lat="43.6324161" lon="11.4022859"><ele>685.5</ele><time>2026-04-08T16:22:24.645Z</time></trkpt><trkpt lat="43.6323554" lon="11.4022325"><ele>685.0</ele><time>2026-04-08T16:22:25.644Z</time></trkpt><trkpt lat="43.6323012" lon="11.4021781"><ele>683.5</ele><time>2026-04-08T16:22:26.645Z</time></trkpt><trkpt lat="43.6322453" lon="11.4021364"><ele>682.0</ele><time>2026-04-08T16:22:27.644Z</time></trkpt><trkpt lat="43.6321444" lon="11.4020776"><ele>680.5</ele><time>2026-04-08T16:22:29.644Z</time></trkpt><trkpt lat="43.6320711" lon="11.402023"><ele>679.0</ele><time>2026-04-08T16:22:31.644Z</time></trkpt><trkpt lat="43.6320757" lon="11.4019182"><ele>677.5</ele><time>2026-04-08T16:22:33.644Z</time></trkpt><trkpt lat="43.632171" lon="11.4018658"><ele>676.0</ele><time>2026-04-08T16:22:35.644Z</time></trkpt><trkpt lat="43.6322928" lon="11.4018943"><ele>676.0</ele><time>2026-04-08T16:22:37.645Z</time></trkpt><trkpt lat="43.6324116" lon="11.4018712"><ele>676.0</ele><time>2026-04-08T16:22:39.645Z</time></trkpt><trkpt lat="43.632506" lon="11.4017834"><ele>676.0</ele><time>2026-04-08T16:22:41.644Z</time></trkpt><trkpt lat="43.632542" lon="11.4017107"><ele>676.0</ele><time>2026-04-08T16:22:42.644Z</time></trkpt><trkpt lat="43.6325679" lon="11.4016279"><ele>676.0</ele><time>2026-04-08T16:22:43.645Z</time></trkpt><trkpt lat="43.6325933" lon="11.4015423"><ele>676.0</ele><time>2026-04-08T16:22:44.644Z</time></trkpt><trkpt lat="43.6326145" lon="11.401455"><ele>676.0</ele><time>2026-04-08T16:22:45.644Z</time></trkpt><trkpt lat="43.6326398" lon="11.4013738"><ele>676.0</ele><time>2026-04-08T16:22:46.644Z</time></trkpt><trkpt lat="43.6326944" lon="11.401235"><ele>676.0</ele><time>2026-04-08T16:22:48.644Z</time></trkpt><trkpt lat="43.6327027" lon="11.4010756"><ele>676.0</ele><time>2026-04-08T16:22:50.644Z</time></trkpt><trkpt lat="43.6326905" lon="11.4009837"><ele>676.0</ele><time>2026-04-08T16:22:51.645Z</time></trkpt><trkpt lat="43.6326743" lon="11.4008985"><ele>676.0</ele><time>2026-04-08T16:22:52.644Z</time></trkpt><trkpt lat="43.6326442" lon="11.4007434"><ele>676.1999999999999</ele><time>2026-04-08T16:22:54.644Z</time></trkpt><trkpt lat="43.6326481" lon="11.4006018"><ele>676.4</ele><time>2026-04-08T16:22:56.644Z</time></trkpt><trkpt lat="43.632689" lon="11.4004715"><ele>676.6</ele><time>2026-04-08T16:22:58.644Z</time></trkpt><trkpt lat="43.6327108" lon="11.4003709"><ele>676.8</ele><time>2026-04-08T16:23:00.644Z</time></trkpt><trkpt lat="43.6326803" lon="11.4002682"><ele>677.0</ele><time>2026-04-08T16:23:07.645Z</time></trkpt><trkpt lat="43.6326661" lon="11.4001424"><ele>677.0</ele><time>2026-04-08T16:23:09.645Z</time></trkpt><trkpt lat="43.6326584" lon="11.4000512"><ele>677.0</ele><time>2026-04-08T16:23:10.644Z</time></trkpt><trkpt lat="43.6326227" lon="11.3998727"><ele>677.0</ele><time>2026-04-08T16:23:12.645Z</time></trkpt><trkpt lat="43.6325965" lon="11.3997828"><ele>677.0</ele><time>2026-04-08T16:23:13.644Z</time></trkpt><trkpt lat="43.6325559" lon="11.3996913"><ele>677.0</ele><time>2026-04-08T16:23:14.644Z</time></trkpt><trkpt lat="43.6325215" lon="11.3996097"><ele>677.0</ele><time>2026-04-08T16:23:15.644Z</time></trkpt><trkpt lat="43.6324831" lon="11.3995223"><ele>679.8333333333333</ele><time>2026-04-08T16:23:16.645Z</time></trkpt><trkpt lat="43.6324453" lon="11.3994337"><ele>682.6666666666666</ele><time>2026-04-08T16:23:17.645Z</time></trkpt><trkpt lat="43.6324" lon="11.399356"><ele>685.5</ele><time>2026-04-08T16:23:18.644Z</time></trkpt><trkpt lat="43.6323374" lon="11.3993057"><ele>688.3333333333334</ele><time>2026-04-08T16:23:19.645Z</time></trkpt><trkpt lat="43.6322612" lon="11.3992591"><ele>691.1666666666667</ele><time>2026-04-08T16:23:20.644Z</time></trkpt><trkpt lat="43.632188" lon="11.3992216"><ele>694.0</ele><time>2026-04-08T16:23:21.644Z</time></trkpt><trkpt lat="43.6321301" lon="11.3991687"><ele>694.0</ele><time>2026-04-08T16:23:22.644Z</time></trkpt><trkpt lat="43.6320518" lon="11.3990327"><ele>694.0</ele><time>2026-04-08T16:23:24.644Z</time></trkpt><trkpt lat="43.6319698" lon="11.3989068"><ele>694.0</ele><time>2026-04-08T16:23:26.645Z</time></trkpt><trkpt lat="43.631927" lon="11.3988379"><ele>694.0</ele><time>2026-04-08T16:23:27.644Z</time></trkpt><trkpt lat="43.6318798" lon="11.3987775"><ele>694.0</ele><time>2026-04-08T16:23:28.644Z</time></trkpt><trkpt lat="43.6317999" lon="11.3986657"><ele>692.6</ele><time>2026-04-08T16:23:30.645Z</time></trkpt><trkpt lat="43.6317765" lon="11.3985822"><ele>691.2</ele><time>2026-04-08T16:23:31.644Z</time></trkpt><trkpt lat="43.6317915" lon="11.398447"><ele>689.8000000000001</ele><time>2026-04-08T16:23:33.644Z</time></trkpt><trkpt lat="43.6318848" lon="11.3983213"><ele>688.4000000000001</ele><time>2026-04-08T16:23:35.644Z</time></trkpt><trkpt lat="43.6319457" lon="11.3982475"><ele>687.0</ele><time>2026-04-08T16:23:36.644Z</time></trkpt><trkpt lat="43.6320068" lon="11.3981538"><ele>688.3333333333334</ele><time>2026-04-08T16:23:37.644Z</time></trkpt><trkpt lat="43.6320663" lon="11.3980641"><ele>689.6666666666666</ele><time>2026-04-08T16:23:38.644Z</time></trkpt><trkpt lat="43.6321361" lon="11.3979805"><ele>691.0</ele><time>2026-04-08T16:23:39.644Z</time></trkpt><trkpt lat="43.6322116" lon="11.3978968"><ele>692.3333333333333</ele><time>2026-04-08T16:23:40.645Z</time></trkpt><trkpt lat="43.6322747" lon="11.3978278"><ele>693.6666666666666</ele><time>2026-04-08T16:23:41.644Z</time></trkpt><trkpt lat="43.6323294" lon="11.3977764"><ele>695.0</ele><time>2026-04-08T16:23:42.644Z</time></trkpt><trkpt lat="43.6324243" lon="11.3976938"><ele>695.0</ele><time>2026-04-08T16:23:44.644Z</time></trkpt><trkpt lat="43.6324878" lon="11.3976407"><ele>695.0</ele><time>2026-04-08T16:23:46.645Z</time></trkpt><trkpt lat="43.6325533" lon="11.3976076"><ele>695.0</ele><time>2026-04-08T16:23:48.645Z</time></trkpt><trkpt lat="43.6326308" lon="11.3975891"><ele>695.0</ele><time>2026-04-08T16:23:50.644Z</time></trkpt><trkpt lat="43.6327147" lon="11.3975557"><ele>695.0</ele><time>2026-04-08T16:23:52.644Z</time></trkpt><trkpt lat="43.6328182" lon="11.3975048"><ele>695.0</ele><time>2026-04-08T16:23:54.644Z</time></trkpt><trkpt lat="43.6329318" lon="11.3974686"><ele>695.6666666666666</ele><time>2026-04-08T16:23:56.645Z</time></trkpt><trkpt lat="43.6330162" lon="11.3974492"><ele>696.3333333333333</ele><time>2026-04-08T16:23:57.644Z</time></trkpt><trkpt lat="43.6330938" lon="11.3974487"><ele>697.0</ele><time>2026-04-08T16:23:58.645Z</time></trkpt><trkpt lat="43.6331595" lon="11.3974374"><ele>697.6666666666666</ele><time>2026-04-08T16:23:59.644Z</time></trkpt><trkpt lat="43.6332622" lon="11.3974056"><ele>698.3333333333334</ele><time>2026-04-08T16:24:01.644Z</time></trkpt><trkpt lat="43.6333588" lon="11.3973544"><ele>699.0</ele><time>2026-04-08T16:24:03.644Z</time></trkpt><trkpt lat="43.633468" lon="11.3973056"><ele>699.0</ele><time>2026-04-08T16:24:05.645Z</time></trkpt><trkpt lat="43.633534" lon="11.3973024"><ele>699.0</ele><time>2026-04-08T16:24:06.644Z</time></trkpt><trkpt lat="43.6336023" lon="11.3973078"><ele>699.0</ele><time>2026-04-08T16:24:07.644Z</time></trkpt><trkpt lat="43.6336767" lon="11.3973141"><ele>699.0</ele><time>2026-04-08T16:24:08.644Z</time></trkpt><trkpt lat="43.633747" lon="11.3972964"><ele>699.0</ele><time>2026-04-08T16:24:09.644Z</time></trkpt><trkpt lat="43.6338162" lon="11.3972637"><ele>699.0</ele><time>2026-04-08T16:24:10.644Z</time></trkpt><trkpt lat="43.6338859" lon="11.3972212"><ele>699.0</ele><time>2026-04-08T16:24:11.644Z</time></trkpt><trkpt lat="43.6339502" lon="11.3971773"><ele>697.8000000000001</ele><time>2026-04-08T16:24:12.645Z</time></trkpt><trkpt lat="43.6340469" lon="11.3970731"><ele>696.6</ele><time>2026-04-08T16:24:14.645Z</time></trkpt><trkpt lat="43.6340982" lon="11.3969299"><ele>695.4</ele><time>2026-04-08T16:24:16.644Z</time></trkpt><trkpt lat="43.6340765" lon="11.3967815"><ele>694.2</ele><time>2026-04-08T16:24:18.644Z</time></trkpt><trkpt lat="43.6340364" lon="11.3966991"><ele>693.0</ele><time>2026-04-08T16:24:20.644Z</time></trkpt><trkpt lat="43.634077" lon="11.3966166"><ele>693.0</ele><time>2026-04-08T16:24:57.644Z</time></trkpt><trkpt lat="43.6341435" lon="11.3966311"><ele>693.0</ele><time>2026-04-08T16:24:59.645Z</time></trkpt><trkpt lat="43.6342521" lon="11.3966553"><ele>693.0</ele><time>2026-04-08T16:25:01.644Z</time></trkpt><trkpt lat="43.634318" lon="11.3966756"><ele>693.0</ele><time>2026-04-08T16:25:02.644Z</time></trkpt><trkpt lat="43.6343963" lon="11.3967022"><ele>693.0</ele><time>2026-04-08T16:25:03.644Z</time></trkpt><trkpt lat="43.6344786" lon="11.3967163"><ele>693.0</ele><time>2026-04-08T16:25:04.644Z</time></trkpt><trkpt lat="43.6345558" lon="11.3967338"><ele>692.0</ele><time>2026-04-08T16:25:05.644Z</time></trkpt><trkpt lat="43.6346315" lon="11.3967561"><ele>691.0</ele><time>2026-04-08T16:25:06.644Z</time></trkpt><trkpt lat="43.6347124" lon="11.3967701"><ele>690.0</ele><time>2026-04-08T16:25:07.644Z</time></trkpt><trkpt lat="43.6347877" lon="11.3967623"><ele>689.0</ele><time>2026-04-08T16:25:08.644Z</time></trkpt><trkpt lat="43.6348656" lon="11.3967258"><ele>688.0</ele><time>2026-04-08T16:25:09.645Z</time></trkpt><trkpt lat="43.6349443" lon="11.3966649"><ele>687.0</ele><time>2026-04-08T16:25:10.644Z</time></trkpt><trkpt lat="43.6350119" lon="11.3965978"><ele>687.0</ele><time>2026-04-08T16:25:11.644Z</time></trkpt><trkpt lat="43.6350855" lon="11.3965196"><ele>687.0</ele><time>2026-04-08T16:25:12.645Z</time></trkpt><trkpt lat="43.6351577" lon="11.3964422"><ele>687.0</ele><time>2026-04-08T16:25:13.645Z</time></trkpt><trkpt lat="43.6352252" lon="11.3963692"><ele>687.0</ele><time>2026-04-08T16:25:14.645Z</time></trkpt><trkpt lat="43.6352987" lon="11.3962996"><ele>687.0</ele><time>2026-04-08T16:25:15.645Z</time></trkpt><trkpt lat="43.635368" lon="11.396225"><ele>687.0</ele><time>2026-04-08T16:25:16.644Z</time></trkpt><trkpt lat="43.6354277" lon="11.3961428"><ele>688.8</ele><time>2026-04-08T16:25:17.644Z</time></trkpt><trkpt lat="43.6354776" lon="11.3960548"><ele>690.6</ele><time>2026-04-08T16:25:18.644Z</time></trkpt><trkpt lat="43.6355185" lon="11.3959658"><ele>692.4</ele><time>2026-04-08T16:25:19.644Z</time></trkpt><trkpt lat="43.6355546" lon="11.3958133"><ele>694.1999999999999</ele><time>2026-04-08T16:25:21.645Z</time></trkpt><trkpt lat="43.6355409" lon="11.3956637"><ele>696.0</ele><time>2026-04-08T16:25:23.644Z</time></trkpt><trkpt lat="43.6354936" lon="11.3955096"><ele>695.2857142857142</ele><time>2026-04-08T16:25:25.644Z</time></trkpt><trkpt lat="43.6354704" lon="11.3954168"><ele>694.5714285714286</ele><time>2026-04-08T16:25:26.645Z</time></trkpt><trkpt lat="43.6354367" lon="11.3953181"><ele>693.8571428571429</ele><time>2026-04-08T16:25:27.645Z</time></trkpt><trkpt lat="43.6354097" lon="11.3952244"><ele>693.1428571428571</ele><time>2026-04-08T16:25:28.644Z</time></trkpt><trkpt lat="43.6353674" lon="11.3951499"><ele>692.4285714285714</ele><time>2026-04-08T16:25:29.644Z</time></trkpt><trkpt lat="43.6353183" lon="11.3950874"><ele>691.7142857142857</ele><time>2026-04-08T16:25:30.644Z</time></trkpt><trkpt lat="43.6352715" lon="11.395015"><ele>691.0</ele><time>2026-04-08T16:25:31.644Z</time></trkpt><trkpt lat="43.6352375" lon="11.3949338"><ele>690.9999999999999</ele><time>2026-04-08T16:25:32.645Z</time></trkpt><trkpt lat="43.6351969" lon="11.3948564"><ele>691.0</ele><time>2026-04-08T16:25:33.645Z</time></trkpt><trkpt lat="43.6351524" lon="11.3947813"><ele>691.0</ele><time>2026-04-08T16:25:34.644Z</time></trkpt><trkpt lat="43.6351071" lon="11.3946865"><ele>691.0</ele><time>2026-04-08T16:25:35.644Z</time></trkpt><trkpt lat="43.6350723" lon="11.3945986"><ele>691.0</ele><time>2026-04-08T16:25:36.644Z</time></trkpt><trkpt lat="43.6350484" lon="11.3944955"><ele>690.9999999999999</ele><time>2026-04-08T16:25:37.644Z</time></trkpt><trkpt lat="43.6350286" lon="11.3944026"><ele>691.0</ele><time>2026-04-08T16:25:38.644Z</time></trkpt><trkpt lat="43.6350211" lon="11.394309"><ele>691.5999999999999</ele><time>2026-04-08T16:25:39.645Z</time></trkpt><trkpt lat="43.635016" lon="11.3942199"><ele>692.2</ele><time>2026-04-08T16:25:40.644Z</time></trkpt><trkpt lat="43.6349849" lon="11.3940644"><ele>692.8</ele><time>2026-04-08T16:25:42.644Z</time></trkpt><trkpt lat="43.6349743" lon="11.3939288"><ele>693.4000000000001</ele><time>2026-04-08T16:25:44.644Z</time></trkpt><trkpt lat="43.6350024" lon="11.3938361"><ele>694.0</ele><time>2026-04-08T16:25:46.644Z</time></trkpt><trkpt lat="43.6350762" lon="11.393742"><ele>694.0</ele><time>2026-04-08T16:25:48.644Z</time></trkpt><trkpt lat="43.6351618" lon="11.3936209"><ele>694.0</ele><time>2026-04-08T16:25:50.644Z</time></trkpt><trkpt lat="43.6352193" lon="11.393558"><ele>694.0</ele><time>2026-04-08T16:25:51.644Z</time></trkpt><trkpt lat="43.6352774" lon="11.3934987"><ele>694.0</ele><time>2026-04-08T16:25:52.645Z</time></trkpt><trkpt lat="43.6353492" lon="11.3934408"><ele>694.0</ele><time>2026-04-08T16:25:53.644Z</time></trkpt><trkpt lat="43.6354077" lon="11.3933822"><ele>694.0</ele><time>2026-04-08T16:25:54.644Z</time></trkpt><trkpt lat="43.6354747" lon="11.393322"><ele>696.5</ele><time>2026-04-08T16:25:55.644Z</time></trkpt><trkpt lat="43.6355306" lon="11.393261"><ele>699.0</ele><time>2026-04-08T16:25:56.645Z</time></trkpt><trkpt lat="43.6355824" lon="11.3932062"><ele>701.5</ele><time>2026-04-08T16:25:57.644Z</time></trkpt><trkpt lat="43.6356807" lon="11.3931017"><ele>704.0</ele><time>2026-04-08T16:25:59.644Z</time></trkpt><trkpt lat="43.6357441" lon="11.3930674"><ele>706.5</ele><time>2026-04-08T16:26:00.645Z</time></trkpt><trkpt lat="43.635807" lon="11.3930248"><ele>709.0</ele><time>2026-04-08T16:26:01.644Z</time></trkpt><trkpt lat="43.6358722" lon="11.392982"><ele>709.0</ele><time>2026-04-08T16:26:02.645Z</time></trkpt><trkpt lat="43.6359211" lon="11.3929228"><ele>709.0</ele><time>2026-04-08T16:26:03.645Z</time></trkpt><trkpt lat="43.6359997" lon="11.3927775"><ele>709.0</ele><time>2026-04-08T16:26:05.644Z</time></trkpt><trkpt lat="43.6360385" lon="11.3926972"><ele>709.0</ele><time>2026-04-08T16:26:06.644Z</time></trkpt><trkpt lat="43.6360579" lon="11.3926072"><ele>709.0</ele><time>2026-04-08T16:26:07.644Z</time></trkpt><trkpt lat="43.6360957" lon="11.3924795"><ele>709.0</ele><time>2026-04-08T16:26:09.645Z</time></trkpt><trkpt lat="43.6361397" lon="11.3923436"><ele>713.0</ele><time>2026-04-08T16:26:11.644Z</time></trkpt><trkpt lat="43.636167" lon="11.3922435"><ele>717.0</ele><time>2026-04-08T16:26:13.645Z</time></trkpt><trkpt lat="43.6362004" lon="11.3921625"><ele>721.0</ele><time>2026-04-08T16:26:15.644Z</time></trkpt><trkpt lat="43.6362156" lon="11.3920583"><ele>725.0</ele><time>2026-04-08T16:26:17.644Z</time></trkpt><trkpt lat="43.6362398" lon="11.3919661"><ele>729.0</ele><time>2026-04-08T16:26:19.645Z</time></trkpt><trkpt lat="43.6362825" lon="11.3918541"><ele>733.0</ele><time>2026-04-08T16:26:22.644Z</time></trkpt><trkpt lat="43.6362779" lon="11.3917606"><ele>733.0</ele><time>2026-04-08T16:26:27.644Z</time></trkpt><trkpt lat="43.6362095" lon="11.3917309"><ele>733.0</ele><time>2026-04-08T16:26:29.644Z</time></trkpt><trkpt lat="43.6361233" lon="11.3917044"><ele>733.0</ele><time>2026-04-08T16:27:24.644Z</time></trkpt><trkpt lat="43.6360147" lon="11.3916884"><ele>733.0</ele><time>2026-04-08T16:27:26.644Z</time></trkpt><trkpt lat="43.6359074" lon="11.3916881"><ele>733.0</ele><time>2026-04-08T16:27:28.644Z</time></trkpt><trkpt lat="43.635815" lon="11.3917567"><ele>731.8</ele><time>2026-04-08T16:27:30.644Z</time></trkpt><trkpt lat="43.6357376" lon="11.3918216"><ele>730.5999999999999</ele><time>2026-04-08T16:27:32.645Z</time></trkpt><trkpt lat="43.6356426" lon="11.3918481"><ele>729.4000000000001</ele><time>2026-04-08T16:27:34.644Z</time></trkpt><trkpt lat="43.6355785" lon="11.3918459"><ele>728.2</ele><time>2026-04-08T16:27:35.644Z</time></trkpt><trkpt lat="43.6354619" lon="11.3918659"><ele>727.0</ele><time>2026-04-08T16:27:37.644Z</time></trkpt><trkpt lat="43.6353447" lon="11.3918796"><ele>727.6</ele><time>2026-04-08T16:27:39.644Z</time></trkpt><trkpt lat="43.6352158" lon="11.3918692"><ele>728.2</ele><time>2026-04-08T16:27:41.645Z</time></trkpt><trkpt lat="43.6351399" lon="11.3918488"><ele>728.8</ele><time>2026-04-08T16:27:42.645Z</time></trkpt><trkpt lat="43.6350768" lon="11.3918315"><ele>729.4</ele><time>2026-04-08T16:27:43.644Z</time></trkpt><trkpt lat="43.6350094" lon="11.3918043"><ele>730.0</ele><time>2026-04-08T16:27:44.644Z</time></trkpt><trkpt lat="43.6349108" lon="11.3917191"><ele>730.0</ele><time>2026-04-08T16:27:46.644Z</time></trkpt><trkpt lat="43.6348641" lon="11.3916317"><ele>730.0</ele><time>2026-04-08T16:27:47.645Z</time></trkpt><trkpt lat="43.6347552" lon="11.3915133"><ele>730.0</ele><time>2026-04-08T16:27:49.644Z</time></trkpt><trkpt lat="43.6346785" lon="11.3914754"><ele>730.0</ele><time>2026-04-08T16:27:50.644Z</time></trkpt><trkpt lat="43.6346044" lon="11.3914765"><ele>730.0</ele><time>2026-04-08T16:27:51.644Z</time></trkpt><trkpt lat="43.6344944" lon="11.3914719"><ele>728.3333333333334</ele><time>2026-04-08T16:27:53.644Z</time></trkpt><trkpt lat="43.6344269" lon="11.3914434"><ele>726.6666666666667</ele><time>2026-04-08T16:27:54.645Z</time></trkpt><trkpt lat="43.6343559" lon="11.3914035"><ele>725.0</ele><time>2026-04-08T16:27:55.644Z</time></trkpt><trkpt lat="43.6342807" lon="11.3913791"><ele>723.3333333333334</ele><time>2026-04-08T16:27:56.645Z</time></trkpt><trkpt lat="43.6342045" lon="11.3913522"><ele>721.6666666666666</ele><time>2026-04-08T16:27:57.644Z</time></trkpt><trkpt lat="43.6341268" lon="11.3913279"><ele>720.0</ele><time>2026-04-08T16:27:58.644Z</time></trkpt><trkpt lat="43.6340588" lon="11.3913015"><ele>721.4</ele><time>2026-04-08T16:27:59.645Z</time></trkpt><trkpt lat="43.6339485" lon="11.3912325"><ele>722.8</ele><time>2026-04-08T16:28:01.644Z</time></trkpt><trkpt lat="43.6338345" lon="11.3911917"><ele>724.2</ele><time>2026-04-08T16:28:03.644Z</time></trkpt><trkpt lat="43.6337305" lon="11.3911706"><ele>725.6</ele><time>2026-04-08T16:28:05.644Z</time></trkpt><trkpt lat="43.6336471" lon="11.3911533"><ele>727.0</ele><time>2026-04-08T16:28:07.644Z</time></trkpt><trkpt lat="43.6335787" lon="11.3911529"><ele>727.0</ele><time>2026-04-08T16:28:23.644Z</time></trkpt><trkpt lat="43.6334844" lon="11.391129"><ele>727.0</ele><time>2026-04-08T16:28:27.644Z</time></trkpt><trkpt lat="43.6334052" lon="11.3910989"><ele>727.0</ele><time>2026-04-08T16:28:29.644Z</time></trkpt><trkpt lat="43.6333209" lon="11.3910626"><ele>727.0</ele><time>2026-04-08T16:28:31.645Z</time></trkpt><trkpt lat="43.6332325" lon="11.3910388"><ele>727.0</ele><time>2026-04-08T16:28:33.644Z</time></trkpt><trkpt lat="43.6331367" lon="11.3909816"><ele>727.0</ele><time>2026-04-08T16:28:35.645Z</time></trkpt><trkpt lat="43.6330424" lon="11.3909094"><ele>727.0</ele><time>2026-04-08T16:28:37.645Z</time></trkpt><trkpt lat="43.632948" lon="11.3908158"><ele>727.0</ele><time>2026-04-08T16:28:39.644Z</time></trkpt><trkpt lat="43.632892" lon="11.3907627"><ele>727.0</ele><time>2026-04-08T16:28:40.644Z</time></trkpt><trkpt lat="43.6328362" lon="11.3907112"><ele>727.0</ele><time>2026-04-08T16:28:41.644Z</time></trkpt><trkpt lat="43.6327854" lon="11.3906564"><ele>727.0</ele><time>2026-04-08T16:28:42.644Z</time></trkpt><trkpt lat="43.6327274" lon="11.3905599"><ele>723.8</ele><time>2026-04-08T16:28:44.644Z</time></trkpt><trkpt lat="43.6326846" lon="11.3904663"><ele>720.6</ele><time>2026-04-08T16:28:46.644Z</time></trkpt><trkpt lat="43.6326191" lon="11.3903523"><ele>717.4</ele><time>2026-04-08T16:28:48.645Z</time></trkpt><trkpt lat="43.6325195" lon="11.3902656"><ele>714.1999999999999</ele><time>2026-04-08T16:28:50.644Z</time></trkpt><trkpt lat="43.6324078" lon="11.3901988"><ele>711.0</ele><time>2026-04-08T16:28:52.645Z</time></trkpt><trkpt lat="43.632344" lon="11.3901448"><ele>711.0</ele><time>2026-04-08T16:28:53.645Z</time></trkpt><trkpt lat="43.6322539" lon="11.3900427"><ele>711.0</ele><time>2026-04-08T16:28:55.645Z</time></trkpt><trkpt lat="43.6322139" lon="11.3899712"><ele>711.0</ele><time>2026-04-08T16:28:56.644Z</time></trkpt><trkpt lat="43.63217" lon="11.3898547"><ele>711.0</ele><time>2026-04-08T16:28:58.645Z</time></trkpt><trkpt lat="43.6321596" lon="11.3897395"><ele>711.0</ele><time>2026-04-08T16:29:00.645Z</time></trkpt><trkpt lat="43.6322233" lon="11.3896073"><ele>710.4</ele><time>2026-04-08T16:29:02.644Z</time></trkpt><trkpt lat="43.6322816" lon="11.3894691"><ele>709.8</ele><time>2026-04-08T16:29:04.645Z</time></trkpt><trkpt lat="43.6323343" lon="11.3893369"><ele>709.1999999999999</ele><time>2026-04-08T16:29:06.644Z</time></trkpt><trkpt lat="43.632419" lon="11.3892325"><ele>708.5999999999999</ele><time>2026-04-08T16:29:08.644Z</time></trkpt><trkpt lat="43.6324927" lon="11.3891628"><ele>708.0</ele><time>2026-04-08T16:29:10.645Z</time></trkpt><trkpt lat="43.6325613" lon="11.3891033"><ele>708.0</ele><time>2026-04-08T16:29:12.644Z</time></trkpt><trkpt lat="43.6326517" lon="11.3890478"><ele>708.0</ele><time>2026-04-08T16:29:14.644Z</time></trkpt><trkpt lat="43.6327472" lon="11.3889925"><ele>708.0</ele><time>2026-04-08T16:29:16.644Z</time></trkpt><trkpt lat="43.6328647" lon="11.3889856"><ele>708.0</ele><time>2026-04-08T16:29:18.645Z</time></trkpt><trkpt lat="43.6329584" lon="11.3889897"><ele>708.0</ele><time>2026-04-08T16:29:20.644Z</time></trkpt><trkpt lat="43.6330552" lon="11.3890086"><ele>709.5999999999999</ele><time>2026-04-08T16:29:22.644Z</time></trkpt><trkpt lat="43.6331587" lon="11.3889825"><ele>711.1999999999999</ele><time>2026-04-08T16:29:24.644Z</time></trkpt><trkpt lat="43.6332294" lon="11.3888974"><ele>712.8</ele><time>2026-04-08T16:29:26.644Z</time></trkpt><trkpt lat="43.6332844" lon="11.3887895"><ele>714.4</ele><time>2026-04-08T16:29:28.644Z</time></trkpt><trkpt lat="43.6332825" lon="11.3886285"><ele>716.0</ele><time>2026-04-08T16:29:30.644Z</time></trkpt><trkpt lat="43.633277" lon="11.388485"><ele>716.0</ele><time>2026-04-08T16:29:32.644Z</time></trkpt><trkpt lat="43.6332681" lon="11.388331"><ele>716.0</ele><time>2026-04-08T16:29:34.645Z</time></trkpt><trkpt lat="43.6332578" lon="11.3881654"><ele>716.0</ele><time>2026-04-08T16:29:36.644Z</time></trkpt><trkpt lat="43.6332479" lon="11.3880076"><ele>716.0</ele><time>2026-04-08T16:29:38.644Z</time></trkpt><trkpt lat="43.6332477" lon="11.3879114"><ele>716.0</ele><time>2026-04-08T16:29:39.644Z</time></trkpt><trkpt lat="43.6332528" lon="11.3878147"><ele>714.4</ele><time>2026-04-08T16:29:40.645Z</time></trkpt><trkpt lat="43.6332622" lon="11.3877135"><ele>712.8</ele><time>2026-04-08T16:29:41.644Z</time></trkpt><trkpt lat="43.6332771" lon="11.3875488"><ele>711.1999999999999</ele><time>2026-04-08T16:29:43.645Z</time></trkpt><trkpt lat="43.6333352" lon="11.387398"><ele>709.5999999999999</ele><time>2026-04-08T16:29:45.645Z</time></trkpt><trkpt lat="43.6333886" lon="11.3873248"><ele>708.0</ele><time>2026-04-08T16:29:46.645Z</time></trkpt><trkpt lat="43.6334334" lon="11.3872583"><ele>708.0</ele><time>2026-04-08T16:29:47.644Z</time></trkpt><trkpt lat="43.6334801" lon="11.3871942"><ele>708.0</ele><time>2026-04-08T16:29:48.644Z</time></trkpt><trkpt lat="43.6335238" lon="11.3871279"><ele>708.0</ele><time>2026-04-08T16:29:49.644Z</time></trkpt><trkpt lat="43.6335819" lon="11.3870437"><ele>708.0</ele><time>2026-04-08T16:29:50.644Z</time></trkpt><trkpt lat="43.6336681" lon="11.3869137"><ele>708.0</ele><time>2026-04-08T16:29:52.644Z</time></trkpt><trkpt lat="43.6337512" lon="11.386788"><ele>710.2</ele><time>2026-04-08T16:29:54.644Z</time></trkpt><trkpt lat="43.6338347" lon="11.386669"><ele>712.4</ele><time>2026-04-08T16:29:56.644Z</time></trkpt><trkpt lat="43.6339085" lon="11.386578"><ele>714.6</ele><time>2026-04-08T16:29:58.644Z</time></trkpt><trkpt lat="43.6339848" lon="11.3864824"><ele>716.8000000000001</ele><time>2026-04-08T16:30:00.645Z</time></trkpt><trkpt lat="43.6340809" lon="11.3864032"><ele>719.0</ele><time>2026-04-08T16:30:02.644Z</time></trkpt><trkpt lat="43.6341968" lon="11.3863525"><ele>719.0</ele><time>2026-04-08T16:30:04.644Z</time></trkpt><trkpt lat="43.6342807" lon="11.3863383"><ele>719.0</ele><time>2026-04-08T16:30:06.645Z</time></trkpt><trkpt lat="43.6343475" lon="11.386394"><ele>719.0</ele><time>2026-04-08T16:30:08.645Z</time></trkpt><trkpt lat="43.6343857" lon="11.3864658"><ele>719.0</ele><time>2026-04-08T16:30:09.645Z</time></trkpt><trkpt lat="43.6344562" lon="11.3865839"><ele>719.0</ele><time>2026-04-08T16:30:11.645Z</time></trkpt><trkpt lat="43.634534" lon="11.386666"><ele>719.0</ele><time>2026-04-08T16:30:13.645Z</time></trkpt><trkpt lat="43.6346133" lon="11.3867325"><ele>721.2</ele><time>2026-04-08T16:30:16.644Z</time></trkpt><trkpt lat="43.6347015" lon="11.3867683"><ele>723.4000000000001</ele><time>2026-04-08T16:30:18.644Z</time></trkpt><trkpt lat="43.6348213" lon="11.3867202"><ele>725.6</ele><time>2026-04-08T16:30:20.645Z</time></trkpt><trkpt lat="43.6348802" lon="11.3866614"><ele>727.8</ele><time>2026-04-08T16:30:21.645Z</time></trkpt><trkpt lat="43.6349675" lon="11.3865663"><ele>730.0</ele><time>2026-04-08T16:30:23.645Z</time></trkpt><trkpt lat="43.6350144" lon="11.3865064"><ele>730.0</ele><time>2026-04-08T16:30:25.644Z</time></trkpt><trkpt lat="43.6350675" lon="11.3864401"><ele>730.0</ele><time>2026-04-08T16:30:27.644Z</time></trkpt><trkpt lat="43.6351323" lon="11.3863486"><ele>730.0</ele><time>2026-04-08T16:30:29.644Z</time></trkpt><trkpt lat="43.6351962" lon="11.3862317"><ele>730.0</ele><time>2026-04-08T16:30:31.645Z</time></trkpt><trkpt lat="43.6352624" lon="11.3861418"><ele>730.0</ele><time>2026-04-08T16:30:33.644Z</time></trkpt><trkpt lat="43.6353187" lon="11.3860567"><ele>730.0</ele><time>2026-04-08T16:30:35.644Z</time></trkpt><trkpt lat="43.6353809" lon="11.3859588"><ele>730.6666666666667</ele><time>2026-04-08T16:30:37.644Z</time></trkpt><trkpt lat="43.6354557" lon="11.3858616"><ele>731.3333333333334</ele><time>2026-04-08T16:30:39.644Z</time></trkpt><trkpt lat="43.6355069" lon="11.3858064"><ele>732.0</ele><time>2026-04-08T16:30:40.644Z</time></trkpt><trkpt lat="43.635587" lon="11.3857017"><ele>732.6666666666666</ele><time>2026-04-08T16:30:42.644Z</time></trkpt><trkpt lat="43.635632" lon="11.385633"><ele>733.3333333333333</ele><time>2026-04-08T16:30:44.644Z</time></trkpt><trkpt lat="43.6356713" lon="11.3855345"><ele>734.0</ele><time>2026-04-08T16:30:47.644Z</time></trkpt><trkpt lat="43.6357132" lon="11.3854693"><ele>731.2</ele><time>2026-04-08T16:30:49.644Z</time></trkpt><trkpt lat="43.6357741" lon="11.3853164"><ele>728.4000000000001</ele><time>2026-04-08T16:30:51.644Z</time></trkpt><trkpt lat="43.635827" lon="11.3851801"><ele>725.6</ele><time>2026-04-08T16:30:53.644Z</time></trkpt><trkpt lat="43.6358497" lon="11.3850954"><ele>722.8</ele><time>2026-04-08T16:30:54.644Z</time></trkpt><trkpt lat="43.635878" lon="11.3849269"><ele>720.0</ele><time>2026-04-08T16:30:56.644Z</time></trkpt><trkpt lat="43.6359104" lon="11.384836"><ele>720.0</ele><time>2026-04-08T16:30:57.645Z</time></trkpt><trkpt lat="43.6359936" lon="11.3846854"><ele>720.0</ele><time>2026-04-08T16:30:59.644Z</time></trkpt><trkpt lat="43.6360283" lon="11.3846115"><ele>720.0</ele><time>2026-04-08T16:31:00.645Z</time></trkpt><trkpt lat="43.6360651" lon="11.3845232"><ele>720.0</ele><time>2026-04-08T16:31:01.644Z</time></trkpt><trkpt lat="43.6361207" lon="11.3844611"><ele>720.0</ele><time>2026-04-08T16:31:02.644Z</time></trkpt><trkpt lat="43.636174" lon="11.3843967"><ele>720.0</ele><time>2026-04-08T16:31:03.645Z</time></trkpt><trkpt lat="43.6362417" lon="11.3843196"><ele>721.0</ele><time>2026-04-08T16:31:05.645Z</time></trkpt><trkpt lat="43.6363167" lon="11.3842522"><ele>722.0</ele><time>2026-04-08T16:31:08.645Z</time></trkpt><trkpt lat="43.6363903" lon="11.3842134"><ele>723.0</ele><time>2026-04-08T16:31:10.645Z</time></trkpt><trkpt lat="43.6364614" lon="11.3841794"><ele>724.0</ele><time>2026-04-08T16:31:12.645Z</time></trkpt><trkpt lat="43.6365464" lon="11.3841426"><ele>725.0</ele><time>2026-04-08T16:31:15.644Z</time></trkpt><trkpt lat="43.6366073" lon="11.3841072"><ele>726.0</ele><time>2026-04-08T16:31:17.644Z</time></trkpt><trkpt lat="43.6366631" lon="11.3840649"><ele>726.0</ele><time>2026-04-08T16:31:19.644Z</time></trkpt><trkpt lat="43.6367478" lon="11.3840012"><ele>726.0</ele><time>2026-04-08T16:31:21.644Z</time></trkpt><trkpt lat="43.6368547" lon="11.3839706"><ele>726.0</ele><time>2026-04-08T16:31:23.644Z</time></trkpt><trkpt lat="43.6369594" lon="11.3839574"><ele>726.0</ele><time>2026-04-08T16:31:25.644Z</time></trkpt><trkpt lat="43.6370586" lon="11.3839422"><ele>726.0</ele><time>2026-04-08T16:31:27.644Z</time></trkpt><trkpt lat="43.6371443" lon="11.3838738"><ele>722.0</ele><time>2026-04-08T16:31:29.644Z</time></trkpt><trkpt lat="43.6372393" lon="11.3838214"><ele>718.0</ele><time>2026-04-08T16:31:31.644Z</time></trkpt><trkpt lat="43.6373282" lon="11.3837717"><ele>714.0</ele><time>2026-04-08T16:31:33.644Z</time></trkpt><trkpt lat="43.6374011" lon="11.3837173"><ele>710.0</ele><time>2026-04-08T16:31:35.644Z</time></trkpt><trkpt lat="43.637458" lon="11.3836626"><ele>706.0</ele><time>2026-04-08T16:31:37.644Z</time></trkpt><trkpt lat="43.6375195" lon="11.3836119"><ele>702.0</ele><time>2026-04-08T16:31:39.644Z</time></trkpt><trkpt lat="43.6375849" lon="11.3835665"><ele>702.0000000000001</ele><time>2026-04-08T16:31:41.644Z</time></trkpt><trkpt lat="43.6376516" lon="11.3835231"><ele>702.0</ele><time>2026-04-08T16:31:43.644Z</time></trkpt><trkpt lat="43.6377132" lon="11.3834835"><ele>702.0</ele><time>2026-04-08T16:31:45.644Z</time></trkpt><trkpt lat="43.6377897" lon="11.3834629"><ele>702.0</ele><time>2026-04-08T16:31:47.644Z</time></trkpt><trkpt lat="43.637872" lon="11.3834548"><ele>702.0</ele><time>2026-04-08T16:31:49.644Z</time></trkpt><trkpt lat="43.6379389" lon="11.3834759"><ele>702.0000000000001</ele><time>2026-04-08T16:31:51.644Z</time></trkpt><trkpt lat="43.6380149" lon="11.3834982"><ele>702.0</ele><time>2026-04-08T16:31:56.644Z</time></trkpt><trkpt lat="43.638101" lon="11.3835321"><ele>702.1666666666666</ele><time>2026-04-08T16:31:59.645Z</time></trkpt><trkpt lat="43.6381777" lon="11.3835805"><ele>702.3333333333334</ele><time>2026-04-08T16:32:01.644Z</time></trkpt><trkpt lat="43.6382759" lon="11.3835981"><ele>702.5</ele><time>2026-04-08T16:32:03.644Z</time></trkpt><trkpt lat="43.6383534" lon="11.383571"><ele>702.6666666666667</ele><time>2026-04-08T16:32:05.644Z</time></trkpt><trkpt lat="43.6384458" lon="11.3835341"><ele>702.8333333333334</ele><time>2026-04-08T16:32:07.644Z</time></trkpt><trkpt lat="43.6384981" lon="11.3834747"><ele>703.0</ele><time>2026-04-08T16:32:09.645Z</time></trkpt><trkpt lat="43.6385717" lon="11.3834433"><ele>703.8</ele><time>2026-04-08T16:32:11.644Z</time></trkpt><trkpt lat="43.6386439" lon="11.38343"><ele>704.5999999999999</ele><time>2026-04-08T16:32:16.645Z</time></trkpt><trkpt lat="43.6387172" lon="11.3834156"><ele>705.4000000000001</ele><time>2026-04-08T16:32:18.644Z</time></trkpt><trkpt lat="43.6388216" lon="11.3834061"><ele>706.2</ele><time>2026-04-08T16:32:20.645Z</time></trkpt><trkpt lat="43.6389246" lon="11.383421"><ele>707.0</ele><time>2026-04-08T16:32:22.644Z</time></trkpt><trkpt lat="43.639014" lon="11.3833645"><ele>707.0</ele><time>2026-04-08T16:32:24.644Z</time></trkpt><trkpt lat="43.6390261" lon="11.3832519"><ele>707.0</ele><time>2026-04-08T16:32:26.645Z</time></trkpt><trkpt lat="43.6389594" lon="11.383161"><ele>707.0</ele><time>2026-04-08T16:32:29.645Z</time></trkpt><trkpt lat="43.6389073" lon="11.3831079"><ele>707.0</ele><time>2026-04-08T16:32:31.644Z</time></trkpt><trkpt lat="43.6388547" lon="11.3830081"><ele>707.0</ele><time>2026-04-08T16:32:33.645Z</time></trkpt><trkpt lat="43.6388" lon="11.3829171"><ele>707.0</ele><time>2026-04-08T16:32:35.645Z</time></trkpt><trkpt lat="43.6387403" lon="11.382842"><ele>707.5</ele><time>2026-04-08T16:32:37.644Z</time></trkpt><trkpt lat="43.6386855" lon="11.3827878"><ele>708.0</ele><time>2026-04-08T16:32:40.644Z</time></trkpt><trkpt lat="43.6386335" lon="11.3827252"><ele>708.5</ele><time>2026-04-08T16:32:43.645Z</time></trkpt><trkpt lat="43.6385883" lon="11.3826305"><ele>709.0</ele><time>2026-04-08T16:32:45.644Z</time></trkpt><trkpt lat="43.6385554" lon="11.3825014"><ele>709.5</ele><time>2026-04-08T16:32:47.645Z</time></trkpt><trkpt lat="43.6385459" lon="11.3823882"><ele>710.0</ele><time>2026-04-08T16:32:49.645Z</time></trkpt><trkpt lat="43.6385299" lon="11.3823014"><ele>709.5</ele><time>2026-04-08T16:32:51.644Z</time></trkpt><trkpt lat="43.6384935" lon="11.3822252"><ele>709.0</ele><time>2026-04-08T16:32:54.644Z</time></trkpt><trkpt lat="43.6384578" lon="11.3821441"><ele>708.5</ele><time>2026-04-08T16:33:00.645Z</time></trkpt><trkpt lat="43.6383791" lon="11.3820321"><ele>708.0</ele><time>2026-04-08T16:33:02.645Z</time></trkpt><trkpt lat="43.6382919" lon="11.3819236"><ele>707.5</ele><time>2026-04-08T16:33:04.644Z</time></trkpt><trkpt lat="43.6382168" lon="11.381874"><ele>707.0</ele><time>2026-04-08T16:33:06.644Z</time></trkpt><trkpt lat="43.6381561" lon="11.381844"><ele>707.0</ele><time>2026-04-08T16:33:08.644Z</time></trkpt><trkpt lat="43.6380654" lon="11.3817841"><ele>707.0</ele><time>2026-04-08T16:33:10.644Z</time></trkpt><trkpt lat="43.6380002" lon="11.3817501"><ele>707.0</ele><time>2026-04-08T16:33:11.644Z</time></trkpt><trkpt lat="43.6379306" lon="11.3817151"><ele>707.0</ele><time>2026-04-08T16:33:12.644Z</time></trkpt><trkpt lat="43.6378551" lon="11.3816624"><ele>707.0</ele><time>2026-04-08T16:33:13.645Z</time></trkpt><trkpt lat="43.6377769" lon="11.3815299"><ele>706.2</ele><time>2026-04-08T16:33:15.645Z</time></trkpt><trkpt lat="43.6377527" lon="11.3813818"><ele>705.4000000000001</ele><time>2026-04-08T16:33:17.644Z</time></trkpt><trkpt lat="43.6377711" lon="11.3812723"><ele>704.5999999999999</ele><time>2026-04-08T16:33:19.644Z</time></trkpt><trkpt lat="43.6377778" lon="11.3811736"><ele>703.8</ele><time>2026-04-08T16:33:21.644Z</time></trkpt><trkpt lat="43.6377453" lon="11.3810672"><ele>703.0</ele><time>2026-04-08T16:33:23.645Z</time></trkpt><trkpt lat="43.6376966" lon="11.3809389"><ele>703.0</ele><time>2026-04-08T16:33:25.644Z</time></trkpt><trkpt lat="43.637654" lon="11.3808263"><ele>703.0</ele><time>2026-04-08T16:33:27.644Z</time></trkpt><trkpt lat="43.6376087" lon="11.3807548"><ele>703.0</ele><time>2026-04-08T16:33:29.644Z</time></trkpt><trkpt lat="43.6375545" lon="11.3806454"><ele>703.0</ele><time>2026-04-08T16:33:31.644Z</time></trkpt><trkpt lat="43.6375216" lon="11.3805363"><ele>703.0</ele><time>2026-04-08T16:33:33.644Z</time></trkpt><trkpt lat="43.6374856" lon="11.3804079"><ele>703.0</ele><time>2026-04-08T16:33:35.644Z</time></trkpt><trkpt lat="43.6374504" lon="11.3803016"><ele>704.75</ele><time>2026-04-08T16:33:37.644Z</time></trkpt><trkpt lat="43.6373856" lon="11.3801605"><ele>706.5</ele><time>2026-04-08T16:33:39.644Z</time></trkpt><trkpt lat="43.6373406" lon="11.38007"><ele>708.25</ele><time>2026-04-08T16:33:40.644Z</time></trkpt><trkpt lat="43.6372513" lon="11.3799275"><ele>710.0</ele><time>2026-04-08T16:33:42.645Z</time></trkpt><trkpt lat="43.6371499" lon="11.3798241"><ele>710.0</ele><time>2026-04-08T16:33:44.644Z</time></trkpt><trkpt lat="43.6370694" lon="11.3797676"><ele>710.0</ele><time>2026-04-08T16:33:46.644Z</time></trkpt><trkpt lat="43.6369852" lon="11.3797612"><ele>710.0</ele><time>2026-04-08T16:33:49.644Z</time></trkpt><trkpt lat="43.6369253" lon="11.3797321"><ele>710.0</ele><time>2026-04-08T16:33:51.644Z</time></trkpt><trkpt lat="43.6368767" lon="11.3796442"><ele>710.0</ele><time>2026-04-08T16:33:53.645Z</time></trkpt><trkpt lat="43.6368282" lon="11.3795199"><ele>710.0</ele><time>2026-04-08T16:33:55.644Z</time></trkpt><trkpt lat="43.6367858" lon="11.3793917"><ele>708.5</ele><time>2026-04-08T16:33:57.644Z</time></trkpt><trkpt lat="43.6367631" lon="11.3793048"><ele>707.0</ele><time>2026-04-08T16:33:59.644Z</time></trkpt><trkpt lat="43.6367497" lon="11.3792012"><ele>705.5</ele><time>2026-04-08T16:34:01.645Z</time></trkpt><trkpt lat="43.6367345" lon="11.3790753"><ele>704.0</ele><time>2026-04-08T16:34:03.644Z</time></trkpt><trkpt lat="43.6367172" lon="11.3789252"><ele>702.5</ele><time>2026-04-08T16:34:05.644Z</time></trkpt><trkpt lat="43.6367368" lon="11.3787933"><ele>701.0</ele><time>2026-04-08T16:34:07.644Z</time></trkpt><trkpt lat="43.6367661" lon="11.3786697"><ele>700.8333333333333</ele><time>2026-04-08T16:34:09.644Z</time></trkpt><trkpt lat="43.6367964" lon="11.3785518"><ele>700.6666666666666</ele><time>2026-04-08T16:34:11.644Z</time></trkpt><trkpt lat="43.6367918" lon="11.3784164"><ele>700.5</ele><time>2026-04-08T16:34:13.645Z</time></trkpt><trkpt lat="43.6367669" lon="11.3782938"><ele>700.3333333333334</ele><time>2026-04-08T16:34:15.644Z</time></trkpt><trkpt lat="43.6367334" lon="11.3781924"><ele>700.1666666666667</ele><time>2026-04-08T16:34:17.644Z</time></trkpt><trkpt lat="43.6366826" lon="11.3781005"><ele>700.0</ele><time>2026-04-08T16:34:19.645Z</time></trkpt><trkpt lat="43.6366223" lon="11.3780168"><ele>701.5</ele><time>2026-04-08T16:34:28.644Z</time></trkpt><trkpt lat="43.636564" lon="11.3779756"><ele>703.0</ele><time>2026-04-08T16:34:30.644Z</time></trkpt><trkpt lat="43.6365038" lon="11.3779282"><ele>704.5</ele><time>2026-04-08T16:34:32.644Z</time></trkpt><trkpt lat="43.636433" lon="11.3778747"><ele>706.0</ele><time>2026-04-08T16:34:34.644Z</time></trkpt><trkpt lat="43.6363252" lon="11.3778194"><ele>707.5</ele><time>2026-04-08T16:34:36.644Z</time></trkpt><trkpt lat="43.6362269" lon="11.3777817"><ele>709.0</ele><time>2026-04-08T16:34:38.644Z</time></trkpt><trkpt lat="43.6361266" lon="11.37772"><ele>705.2</ele><time>2026-04-08T16:34:40.645Z</time></trkpt><trkpt lat="43.6360272" lon="11.3776286"><ele>701.4000000000001</ele><time>2026-04-08T16:34:42.644Z</time></trkpt><trkpt lat="43.6359279" lon="11.3775592"><ele>697.6</ele><time>2026-04-08T16:34:44.644Z</time></trkpt><trkpt lat="43.6358599" lon="11.3774644"><ele>693.8</ele><time>2026-04-08T16:34:46.644Z</time></trkpt><trkpt lat="43.6358229" lon="11.3773375"><ele>690.0</ele><time>2026-04-08T16:34:48.645Z</time></trkpt><trkpt lat="43.6357999" lon="11.3772063"><ele>690.0</ele><time>2026-04-08T16:34:50.644Z</time></trkpt><trkpt lat="43.6357975" lon="11.377084"><ele>690.0</ele><time>2026-04-08T16:34:52.645Z</time></trkpt><trkpt lat="43.6358383" lon="11.3769781"><ele>690.0</ele><time>2026-04-08T16:34:54.644Z</time></trkpt><trkpt lat="43.6358893" lon="11.3768736"><ele>690.0</ele><time>2026-04-08T16:34:56.644Z</time></trkpt><trkpt lat="43.6359406" lon="11.3767768"><ele>690.0</ele><time>2026-04-08T16:34:58.645Z</time></trkpt><trkpt lat="43.6359827" lon="11.3766672"><ele>690.0</ele><time>2026-04-08T16:35:00.645Z</time></trkpt><trkpt lat="43.6359776" lon="11.3765533"><ele>690.0</ele><time>2026-04-08T16:35:02.644Z</time></trkpt><trkpt lat="43.6359408" lon="11.3764592"><ele>690.0</ele><time>2026-04-08T16:35:04.644Z</time></trkpt><trkpt lat="43.6358909" lon="11.3763771"><ele>690.0</ele><time>2026-04-08T16:35:11.644Z</time></trkpt><trkpt lat="43.6358129" lon="11.3763232"><ele>690.0</ele><time>2026-04-08T16:35:13.644Z</time></trkpt><trkpt lat="43.635751" lon="11.3762713"><ele>690.0</ele><time>2026-04-08T16:35:14.645Z</time></trkpt><trkpt lat="43.635701" lon="11.376204"><ele>690.0</ele><time>2026-04-08T16:35:15.644Z</time></trkpt><trkpt lat="43.6356487" lon="11.3761426"><ele>690.1666666666666</ele><time>2026-04-08T16:35:16.644Z</time></trkpt><trkpt lat="43.635599" lon="11.3760839"><ele>690.3333333333334</ele><time>2026-04-08T16:35:17.645Z</time></trkpt><trkpt lat="43.6355573" lon="11.3760145"><ele>690.5</ele><time>2026-04-08T16:35:18.645Z</time></trkpt><trkpt lat="43.6355194" lon="11.3759385"><ele>690.6666666666667</ele><time>2026-04-08T16:35:19.645Z</time></trkpt><trkpt lat="43.635452" lon="11.3757775"><ele>690.8333333333334</ele><time>2026-04-08T16:35:21.644Z</time></trkpt><trkpt lat="43.6354254" lon="11.3756813"><ele>691.0</ele><time>2026-04-08T16:35:22.645Z</time></trkpt><trkpt lat="43.6354095" lon="11.3755244"><ele>690.5999999999999</ele><time>2026-04-08T16:35:24.644Z</time></trkpt><trkpt lat="43.6354244" lon="11.3753511"><ele>690.2</ele><time>2026-04-08T16:35:26.644Z</time></trkpt><trkpt lat="43.6354383" lon="11.3752618"><ele>689.8</ele><time>2026-04-08T16:35:27.645Z</time></trkpt><trkpt lat="43.6354572" lon="11.3751771"><ele>689.4000000000001</ele><time>2026-04-08T16:35:28.644Z</time></trkpt><trkpt lat="43.6354583" lon="11.3750297"><ele>689.0</ele><time>2026-04-08T16:35:30.645Z</time></trkpt><trkpt lat="43.635419" lon="11.374878"><ele>689.0</ele><time>2026-04-08T16:35:32.644Z</time></trkpt><trkpt lat="43.635392" lon="11.3747941"><ele>689.0</ele><time>2026-04-08T16:35:33.644Z</time></trkpt><trkpt lat="43.6353349" lon="11.3746588"><ele>689.0</ele><time>2026-04-08T16:35:35.645Z</time></trkpt><trkpt lat="43.6352813" lon="11.3745518"><ele>689.0</ele><time>2026-04-08T16:35:37.644Z</time></trkpt><trkpt lat="43.6352255" lon="11.3744271"><ele>689.0</ele><time>2026-04-08T16:35:39.644Z</time></trkpt><trkpt lat="43.6351922" lon="11.3743531"><ele>689.0</ele><time>2026-04-08T16:35:40.644Z</time></trkpt><trkpt lat="43.6351566" lon="11.3742658"><ele>687.5</ele><time>2026-04-08T16:35:41.645Z</time></trkpt><trkpt lat="43.635127" lon="11.3741841"><ele>686.0</ele><time>2026-04-08T16:35:42.645Z</time></trkpt><trkpt lat="43.6351071" lon="11.3740422"><ele>684.5</ele><time>2026-04-08T16:35:44.644Z</time></trkpt><trkpt lat="43.6351419" lon="11.3739124"><ele>683.0</ele><time>2026-04-08T16:35:46.644Z</time></trkpt><trkpt lat="43.6351865" lon="11.3738145"><ele>681.5</ele><time>2026-04-08T16:35:48.644Z</time></trkpt><trkpt lat="43.6351584" lon="11.3737347"><ele>680.0</ele><time>2026-04-08T16:35:50.645Z</time></trkpt><trkpt lat="43.6350907" lon="11.3736603"><ele>680.0</ele><time>2026-04-08T16:40:13.645Z</time></trkpt><trkpt lat="43.6350307" lon="11.3735667"><ele>680.0</ele><time>2026-04-08T16:40:15.645Z</time></trkpt><trkpt lat="43.6349415" lon="11.3734597"><ele>680.0</ele><time>2026-04-08T16:40:16.646Z</time></trkpt><trkpt lat="43.6348528" lon="11.3733613"><ele>680.0</ele><time>2026-04-08T16:40:17.645Z</time></trkpt><trkpt lat="43.6347762" lon="11.3732844"><ele>680.0</ele><time>2026-04-08T16:40:18.645Z</time></trkpt><trkpt lat="43.6347089" lon="11.3732222"><ele>680.0</ele><time>2026-04-08T16:40:19.645Z</time></trkpt><trkpt lat="43.6346498" lon="11.3731574"><ele>680.0</ele><time>2026-04-08T16:40:20.645Z</time></trkpt><trkpt lat="43.6346042" lon="11.3730814"><ele>680.0</ele><time>2026-04-08T16:40:21.646Z</time></trkpt><trkpt lat="43.6345455" lon="11.3730033"><ele>680.0</ele><time>2026-04-08T16:40:22.646Z</time></trkpt><trkpt lat="43.6344914" lon="11.3729354"><ele>680.0</ele><time>2026-04-08T16:40:23.645Z</time></trkpt><trkpt lat="43.6344111" lon="11.3727966"><ele>680.0</ele><time>2026-04-08T16:40:25.645Z</time></trkpt><trkpt lat="43.6343796" lon="11.3726892"><ele>683.8333333333333</ele><time>2026-04-08T16:40:26.645Z</time></trkpt><trkpt lat="43.634349" lon="11.372572"><ele>687.6666666666666</ele><time>2026-04-08T16:40:27.645Z</time></trkpt><trkpt lat="43.6343068" lon="11.3724489"><ele>691.5</ele><time>2026-04-08T16:40:28.645Z</time></trkpt><trkpt lat="43.6342806" lon="11.3723307"><ele>695.3333333333334</ele><time>2026-04-08T16:40:29.645Z</time></trkpt><trkpt lat="43.6342758" lon="11.3722259"><ele>699.1666666666667</ele><time>2026-04-08T16:40:30.645Z</time></trkpt><trkpt lat="43.6342827" lon="11.3721244"><ele>703.0</ele><time>2026-04-08T16:40:31.645Z</time></trkpt><trkpt lat="43.6342697" lon="11.3720375"><ele>703.0</ele><time>2026-04-08T16:40:32.645Z</time></trkpt><trkpt lat="43.6341974" lon="11.3718959"><ele>703.0</ele><time>2026-04-08T16:40:34.646Z</time></trkpt><trkpt lat="43.6341293" lon="11.3718117"><ele>703.0</ele><time>2026-04-08T16:40:35.645Z</time></trkpt><trkpt lat="43.634062" lon="11.3717134"><ele>703.0</ele><time>2026-04-08T16:40:36.646Z</time></trkpt><trkpt lat="43.6340054" lon="11.3716458"><ele>703.0</ele><time>2026-04-08T16:40:37.646Z</time></trkpt><trkpt lat="43.6339466" lon="11.3715923"><ele>703.0</ele><time>2026-04-08T16:40:38.646Z</time></trkpt><trkpt lat="43.6338702" lon="11.3715274"><ele>703.0</ele><time>2026-04-08T16:40:39.646Z</time></trkpt><trkpt lat="43.6337878" lon="11.3714644"><ele>703.0</ele><time>2026-04-08T16:40:40.645Z</time></trkpt><trkpt lat="43.6336681" lon="11.3714144"><ele>703.0</ele><time>2026-04-08T16:40:41.645Z</time></trkpt><trkpt lat="43.6335597" lon="11.3713817"><ele>703.0</ele><time>2026-04-08T16:40:42.645Z</time></trkpt><trkpt lat="43.6334576" lon="11.3713432"><ele>703.2</ele><time>2026-04-08T16:40:43.645Z</time></trkpt><trkpt lat="43.6333763" lon="11.3713022"><ele>703.4</ele><time>2026-04-08T16:40:44.645Z</time></trkpt><trkpt lat="43.633316" lon="11.3712355"><ele>703.6</ele><time>2026-04-08T16:40:45.645Z</time></trkpt><trkpt lat="43.6332383" lon="11.3711256"><ele>703.8000000000001</ele><time>2026-04-08T16:40:47.646Z</time></trkpt><trkpt lat="43.6331891" lon="11.3709873"><ele>704.0</ele><time>2026-04-08T16:40:49.645Z</time></trkpt><trkpt lat="43.6331827" lon="11.3708263"><ele>704.0</ele><time>2026-04-08T16:40:51.645Z</time></trkpt><trkpt lat="43.6332077" lon="11.3706639"><ele>704.0</ele><time>2026-04-08T16:40:53.645Z</time></trkpt><trkpt lat="43.6332348" lon="11.370518"><ele>704.0</ele><time>2026-04-08T16:40:55.645Z</time></trkpt><trkpt lat="43.6332166" lon="11.3704099"><ele>704.0</ele><time>2026-04-08T16:40:56.645Z</time></trkpt><trkpt lat="43.6332043" lon="11.3703131"><ele>704.0</ele><time>2026-04-08T16:40:57.645Z</time></trkpt><trkpt lat="43.6331783" lon="11.3701619"><ele>704.2</ele><time>2026-04-08T16:40:59.645Z</time></trkpt><trkpt lat="43.6331571" lon="11.3700045"><ele>704.4000000000001</ele><time>2026-04-08T16:41:01.646Z</time></trkpt><trkpt lat="43.633177" lon="11.3698756"><ele>704.6</ele><time>2026-04-08T16:41:03.645Z</time></trkpt><trkpt lat="43.6332256" lon="11.3697579"><ele>704.8</ele><time>2026-04-08T16:41:06.645Z</time></trkpt><trkpt lat="43.6332192" lon="11.3696311"><ele>705.0</ele><time>2026-04-08T16:41:08.645Z</time></trkpt><trkpt lat="43.6331783" lon="11.369554"><ele>705.1666666666666</ele><time>2026-04-08T16:41:09.646Z</time></trkpt><trkpt lat="43.6331349" lon="11.3694834"><ele>705.3333333333334</ele><time>2026-04-08T16:41:10.645Z</time></trkpt><trkpt lat="43.6330917" lon="11.3694037"><ele>705.5</ele><time>2026-04-08T16:41:11.645Z</time></trkpt><trkpt lat="43.6330513" lon="11.3693257"><ele>705.6666666666667</ele><time>2026-04-08T16:41:12.646Z</time></trkpt><trkpt lat="43.6330023" lon="11.3692137"><ele>705.8333333333334</ele><time>2026-04-08T16:41:14.645Z</time></trkpt><trkpt lat="43.6329318" lon="11.3691454"><ele>706.0</ele><time>2026-04-08T16:41:16.645Z</time></trkpt><trkpt lat="43.632847" lon="11.3691375"><ele>706.4</ele><time>2026-04-08T16:41:19.646Z</time></trkpt><trkpt lat="43.6327926" lon="11.3690884"><ele>706.8</ele><time>2026-04-08T16:42:04.645Z</time></trkpt><trkpt lat="43.6327275" lon="11.3689966"><ele>707.1999999999999</ele><time>2026-04-08T16:42:06.645Z</time></trkpt><trkpt lat="43.6327044" lon="11.3688645"><ele>707.5999999999999</ele><time>2026-04-08T16:42:08.645Z</time></trkpt><trkpt lat="43.6327216" lon="11.3686797"><ele>708.0</ele><time>2026-04-08T16:42:10.645Z</time></trkpt><trkpt lat="43.6327458" lon="11.368576"><ele>708.3333333333334</ele><time>2026-04-08T16:42:11.646Z</time></trkpt><trkpt lat="43.6327688" lon="11.3684691"><ele>708.6666666666666</ele><time>2026-04-08T16:42:12.646Z</time></trkpt><trkpt lat="43.6327799" lon="11.368369"><ele>709.0</ele><time>2026-04-08T16:42:13.645Z</time></trkpt><trkpt lat="43.6327877" lon="11.3682735"><ele>709.3333333333333</ele><time>2026-04-08T16:42:14.645Z</time></trkpt><trkpt lat="43.6327808" lon="11.3681776"><ele>709.6666666666666</ele><time>2026-04-08T16:42:15.645Z</time></trkpt><trkpt lat="43.63271" lon="11.3680042"><ele>710.0</ele><time>2026-04-08T16:42:17.645Z</time></trkpt><trkpt lat="43.6326273" lon="11.3678867"><ele>710.0</ele><time>2026-04-08T16:42:18.645Z</time></trkpt><trkpt lat="43.6325542" lon="11.3677776"><ele>710.0</ele><time>2026-04-08T16:42:19.646Z</time></trkpt><trkpt lat="43.6324889" lon="11.3676582"><ele>710.0</ele><time>2026-04-08T16:42:20.645Z</time></trkpt><trkpt lat="43.6324279" lon="11.3675316"><ele>710.0</ele><time>2026-04-08T16:42:21.645Z</time></trkpt><trkpt lat="43.6323673" lon="11.3673912"><ele>710.0</ele><time>2026-04-08T16:42:22.646Z</time></trkpt><trkpt lat="43.6323071" lon="11.3672751"><ele>709.6</ele><time>2026-04-08T16:42:23.645Z</time></trkpt><trkpt lat="43.6322272" lon="11.367184"><ele>709.2</ele><time>2026-04-08T16:42:24.646Z</time></trkpt><trkpt lat="43.6321355" lon="11.3671182"><ele>708.8</ele><time>2026-04-08T16:42:25.645Z</time></trkpt><trkpt lat="43.6320362" lon="11.3670845"><ele>708.4</ele><time>2026-04-08T16:42:26.646Z</time></trkpt><trkpt lat="43.6319302" lon="11.3670669"><ele>708.0</ele><time>2026-04-08T16:42:27.645Z</time></trkpt><trkpt lat="43.6318058" lon="11.3670622"><ele>708.0</ele><time>2026-04-08T16:42:28.646Z</time></trkpt><trkpt lat="43.6316686" lon="11.3670962"><ele>708.0</ele><time>2026-04-08T16:42:29.646Z</time></trkpt><trkpt lat="43.6315183" lon="11.36715"><ele>708.0</ele><time>2026-04-08T16:42:30.645Z</time></trkpt><trkpt lat="43.631392" lon="11.3671943"><ele>708.0</ele><time>2026-04-08T16:42:31.645Z</time></trkpt><trkpt lat="43.6312761" lon="11.3672316"><ele>707.8</ele><time>2026-04-08T16:42:32.645Z</time></trkpt><trkpt lat="43.6311763" lon="11.3672497"><ele>707.5999999999999</ele><time>2026-04-08T16:42:33.645Z</time></trkpt><trkpt lat="43.6310928" lon="11.3672354"><ele>707.4000000000001</ele><time>2026-04-08T16:42:34.645Z</time></trkpt><trkpt lat="43.6310053" lon="11.3672029"><ele>707.2</ele><time>2026-04-08T16:42:35.645Z</time></trkpt><trkpt lat="43.6309123" lon="11.367125"><ele>707.0</ele><time>2026-04-08T16:42:36.646Z</time></trkpt><trkpt lat="43.630817" lon="11.3670345"><ele>707.8</ele><time>2026-04-08T16:42:37.645Z</time></trkpt><trkpt lat="43.6307347" lon="11.3669434"><ele>708.6</ele><time>2026-04-08T16:42:38.645Z</time></trkpt><trkpt lat="43.6306593" lon="11.3668691"><ele>709.4</ele><time>2026-04-08T16:42:39.645Z</time></trkpt><trkpt lat="43.6305958" lon="11.3668264"><ele>710.1999999999999</ele><time>2026-04-08T16:42:40.645Z</time></trkpt><trkpt lat="43.6305007" lon="11.3667923"><ele>711.0</ele><time>2026-04-08T16:42:41.646Z</time></trkpt><trkpt lat="43.6303951" lon="11.3667818"><ele>713.0</ele><time>2026-04-08T16:42:42.645Z</time></trkpt><trkpt lat="43.6303007" lon="11.3668093"><ele>715.0</ele><time>2026-04-08T16:42:43.646Z</time></trkpt><trkpt lat="43.6302021" lon="11.3668288"><ele>717.0</ele><time>2026-04-08T16:42:44.645Z</time></trkpt><trkpt lat="43.630099" lon="11.3668154"><ele>719.0</ele><time>2026-04-08T16:42:45.645Z</time></trkpt><trkpt lat="43.6299862" lon="11.3667686"><ele>721.0</ele><time>2026-04-08T16:42:46.646Z</time></trkpt><trkpt lat="43.6298954" lon="11.3667022"><ele>721.0</ele><time>2026-04-08T16:42:47.645Z</time></trkpt><trkpt lat="43.629823" lon="11.3666318"><ele>721.0</ele><time>2026-04-08T16:42:48.646Z</time></trkpt><trkpt lat="43.6297555" lon="11.3665669"><ele>721.0</ele><time>2026-04-08T16:42:49.646Z</time></trkpt><trkpt lat="43.6297104" lon="11.3664992"><ele>721.0</ele><time>2026-04-08T16:42:50.645Z</time></trkpt><trkpt lat="43.6296714" lon="11.3664308"><ele>721.0</ele><time>2026-04-08T16:42:51.646Z</time></trkpt><trkpt lat="43.6296066" lon="11.366356"><ele>721.0</ele><time>2026-04-08T16:42:53.645Z</time></trkpt><trkpt lat="43.6295456" lon="11.3663287"><ele>721.0</ele><time>2026-04-08T16:42:55.645Z</time></trkpt><trkpt lat="43.6294829" lon="11.3663023"><ele>720.4</ele><time>2026-04-08T16:42:57.645Z</time></trkpt><trkpt lat="43.6294076" lon="11.3662617"><ele>719.8</ele><time>2026-04-08T16:42:59.645Z</time></trkpt><trkpt lat="43.6293315" lon="11.3661807"><ele>719.1999999999999</ele><time>2026-04-08T16:43:01.645Z</time></trkpt><trkpt lat="43.6292557" lon="11.3660967"><ele>718.5999999999999</ele><time>2026-04-08T16:43:03.645Z</time></trkpt><trkpt lat="43.6291796" lon="11.3659922"><ele>718.0</ele><time>2026-04-08T16:43:05.646Z</time></trkpt><trkpt lat="43.6291047" lon="11.365894"><ele>718.0</ele><time>2026-04-08T16:43:07.645Z</time></trkpt><trkpt lat="43.6290205" lon="11.3657948"><ele>718.0</ele><time>2026-04-08T16:43:09.645Z</time></trkpt><trkpt lat="43.6289258" lon="11.3656893"><ele>718.0</ele><time>2026-04-08T16:43:11.646Z</time></trkpt><trkpt lat="43.6288755" lon="11.3656367"><ele>718.0</ele><time>2026-04-08T16:43:12.645Z</time></trkpt><trkpt lat="43.6288245" lon="11.3655838"><ele>718.0</ele><time>2026-04-08T16:43:13.645Z</time></trkpt><trkpt lat="43.6287281" lon="11.3654844"><ele>714.5999999999999</ele><time>2026-04-08T16:43:15.645Z</time></trkpt><trkpt lat="43.6286271" lon="11.365408"><ele>711.1999999999999</ele><time>2026-04-08T16:43:17.646Z</time></trkpt><trkpt lat="43.6285514" lon="11.3653374"><ele>707.8</ele><time>2026-04-08T16:43:19.645Z</time></trkpt><trkpt lat="43.6284717" lon="11.3652443"><ele>704.4</ele><time>2026-04-08T16:43:21.645Z</time></trkpt><trkpt lat="43.6284031" lon="11.3651752"><ele>701.0</ele><time>2026-04-08T16:43:23.645Z</time></trkpt><trkpt lat="43.6283052" lon="11.3651416"><ele>701.0</ele><time>2026-04-08T16:43:25.645Z</time></trkpt><trkpt lat="43.6282199" lon="11.365147"><ele>701.0</ele><time>2026-04-08T16:43:27.645Z</time></trkpt><trkpt lat="43.6281499" lon="11.3651228"><ele>701.0</ele><time>2026-04-08T16:43:29.645Z</time></trkpt><trkpt lat="43.6280949" lon="11.3650544"><ele>701.0</ele><time>2026-04-08T16:43:31.645Z</time></trkpt><trkpt lat="43.628087" lon="11.3649664"><ele>701.0</ele><time>2026-04-08T16:43:33.645Z</time></trkpt><trkpt lat="43.6281175" lon="11.3648453"><ele>701.0</ele><time>2026-04-08T16:43:35.645Z</time></trkpt><trkpt lat="43.6281521" lon="11.3646867"><ele>699.5999999999999</ele><time>2026-04-08T16:43:37.646Z</time></trkpt><trkpt lat="43.6281666" lon="11.3645543"><ele>698.2</ele><time>2026-04-08T16:43:39.645Z</time></trkpt><trkpt lat="43.6281544" lon="11.3644099"><ele>696.8</ele><time>2026-04-08T16:43:41.646Z</time></trkpt><trkpt lat="43.6281187" lon="11.3642693"><ele>695.4000000000001</ele><time>2026-04-08T16:43:43.646Z</time></trkpt><trkpt lat="43.628063" lon="11.3641344"><ele>694.0</ele><time>2026-04-08T16:43:45.645Z</time></trkpt><trkpt lat="43.6280077" lon="11.3640189"><ele>694.0</ele><time>2026-04-08T16:43:47.645Z</time></trkpt><trkpt lat="43.6279469" lon="11.3639164"><ele>694.0</ele><time>2026-04-08T16:43:49.645Z</time></trkpt><trkpt lat="43.6278616" lon="11.3638407"><ele>694.0</ele><time>2026-04-08T16:43:51.645Z</time></trkpt><trkpt lat="43.6277593" lon="11.3638143"><ele>694.0</ele><time>2026-04-08T16:43:53.646Z</time></trkpt><trkpt lat="43.6276569" lon="11.3638355"><ele>694.0</ele><time>2026-04-08T16:43:55.646Z</time></trkpt><trkpt lat="43.6275447" lon="11.3638412"><ele>688.75</ele><time>2026-04-08T16:43:57.645Z</time></trkpt><trkpt lat="43.6274251" lon="11.3638255"><ele>683.5</ele><time>2026-04-08T16:43:59.645Z</time></trkpt><trkpt lat="43.6273117" lon="11.3638026"><ele>678.25</ele><time>2026-04-08T16:44:01.645Z</time></trkpt><trkpt lat="43.6272059" lon="11.3637694"><ele>673.0</ele><time>2026-04-08T16:44:03.645Z</time></trkpt><trkpt lat="43.627107" lon="11.3637094"><ele>673.0</ele><time>2026-04-08T16:44:05.645Z</time></trkpt><trkpt lat="43.6270175" lon="11.3636211"><ele>673.0</ele><time>2026-04-08T16:44:07.645Z</time></trkpt><trkpt lat="43.626947" lon="11.3635102"><ele>673.0</ele><time>2026-04-08T16:44:09.645Z</time></trkpt><trkpt lat="43.6268946" lon="11.363375"><ele>673.0</ele><time>2026-04-08T16:44:11.645Z</time></trkpt><trkpt lat="43.6268514" lon="11.3632321"><ele>673.0</ele><time>2026-04-08T16:44:13.645Z</time></trkpt><trkpt lat="43.626797" lon="11.3630943"><ele>667.2</ele><time>2026-04-08T16:44:15.645Z</time></trkpt><trkpt lat="43.6267591" lon="11.3629564"><ele>661.4</ele><time>2026-04-08T16:44:17.645Z</time></trkpt><trkpt lat="43.6267517" lon="11.3628158"><ele>655.6</ele><time>2026-04-08T16:44:19.645Z</time></trkpt><trkpt lat="43.6267603" lon="11.3626667"><ele>649.8000000000001</ele><time>2026-04-08T16:44:21.645Z</time></trkpt><trkpt lat="43.6267644" lon="11.3624987"><ele>644.0</ele><time>2026-04-08T16:44:23.646Z</time></trkpt><trkpt lat="43.6267446" lon="11.3624142"><ele>644.0</ele><time>2026-04-08T16:44:24.645Z</time></trkpt><trkpt lat="43.6267116" lon="11.3623312"><ele>644.0</ele><time>2026-04-08T16:44:25.645Z</time></trkpt><trkpt lat="43.6266847" lon="11.3622502"><ele>644.0</ele><time>2026-04-08T16:44:26.646Z</time></trkpt><trkpt lat="43.6266368" lon="11.3621086"><ele>644.0</ele><time>2026-04-08T16:44:28.645Z</time></trkpt><trkpt lat="43.6266311" lon="11.361972"><ele>644.0</ele><time>2026-04-08T16:44:30.646Z</time></trkpt><trkpt lat="43.626677" lon="11.361815"><ele>642.4000000000001</ele><time>2026-04-08T16:44:32.645Z</time></trkpt><trkpt lat="43.6267391" lon="11.3616741"><ele>640.8000000000001</ele><time>2026-04-08T16:44:34.645Z</time></trkpt><trkpt lat="43.6267765" lon="11.361557"><ele>639.2</ele><time>2026-04-08T16:44:36.645Z</time></trkpt><trkpt lat="43.6267695" lon="11.3614605"><ele>637.6</ele><time>2026-04-08T16:44:38.646Z</time></trkpt><trkpt lat="43.6267041" lon="11.3613784"><ele>636.0</ele><time>2026-04-08T16:44:40.645Z</time></trkpt><trkpt lat="43.6265981" lon="11.3613656"><ele>636.0</ele><time>2026-04-08T16:44:42.645Z</time></trkpt><trkpt lat="43.6265358" lon="11.3613784"><ele>636.0</ele><time>2026-04-08T16:44:43.645Z</time></trkpt><trkpt lat="43.626438" lon="11.3614254"><ele>636.0</ele><time>2026-04-08T16:44:45.645Z</time></trkpt><trkpt lat="43.6263727" lon="11.3615175"><ele>636.0</ele><time>2026-04-08T16:44:47.646Z</time></trkpt><trkpt lat="43.6263287" lon="11.3616211"><ele>636.0</ele><time>2026-04-08T16:44:49.646Z</time></trkpt><trkpt lat="43.6262998" lon="11.3617404"><ele>636.0</ele><time>2026-04-08T16:44:51.646Z</time></trkpt><trkpt lat="43.6262838" lon="11.361886"><ele>636.0</ele><time>2026-04-08T16:44:53.646Z</time></trkpt><trkpt lat="43.6262844" lon="11.3620336"><ele>636.0</ele><time>2026-04-08T16:44:55.646Z</time></trkpt><trkpt lat="43.6262819" lon="11.3621805"><ele>636.0</ele><time>2026-04-08T16:44:57.645Z</time></trkpt><trkpt lat="43.6262826" lon="11.3623116"><ele>636.0</ele><time>2026-04-08T16:44:59.646Z</time></trkpt><trkpt lat="43.6262627" lon="11.362425"><ele>636.0</ele><time>2026-04-08T16:45:01.645Z</time></trkpt><trkpt lat="43.6262181" lon="11.3624874"><ele>631.2</ele><time>2026-04-08T16:45:03.646Z</time></trkpt><trkpt lat="43.6261376" lon="11.3624939"><ele>626.4000000000001</ele><time>2026-04-08T16:45:05.645Z</time></trkpt><trkpt lat="43.6260732" lon="11.3623822"><ele>621.6</ele><time>2026-04-08T16:45:07.646Z</time></trkpt><trkpt lat="43.6260707" lon="11.3622269"><ele>616.8000000000001</ele><time>2026-04-08T16:45:09.645Z</time></trkpt><trkpt lat="43.6260932" lon="11.3620833"><ele>612.0</ele><time>2026-04-08T16:45:11.645Z</time></trkpt><trkpt lat="43.626076" lon="11.3619244"><ele>611.6666666666666</ele><time>2026-04-08T16:45:13.645Z</time></trkpt><trkpt lat="43.6260348" lon="11.3617689"><ele>611.3333333333334</ele><time>2026-04-08T16:45:15.645Z</time></trkpt><trkpt lat="43.6259659" lon="11.3616317"><ele>611.0</ele><time>2026-04-08T16:45:17.646Z</time></trkpt><trkpt lat="43.6259194" lon="11.3615648"><ele>610.6666666666667</ele><time>2026-04-08T16:45:18.645Z</time></trkpt><trkpt lat="43.6258718" lon="11.3614986"><ele>610.3333333333334</ele><time>2026-04-08T16:45:19.645Z</time></trkpt><trkpt lat="43.6258209" lon="11.3614387"><ele>610.0</ele><time>2026-04-08T16:45:20.646Z</time></trkpt><trkpt lat="43.6257671" lon="11.3613778"><ele>609.0</ele><time>2026-04-08T16:45:21.646Z</time></trkpt><trkpt lat="43.6257111" lon="11.3613099"><ele>608.0</ele><time>2026-04-08T16:45:22.645Z</time></trkpt><trkpt lat="43.6256548" lon="11.3612526"><ele>607.0</ele><time>2026-04-08T16:45:23.645Z</time></trkpt><trkpt lat="43.6255989" lon="11.3611879"><ele>606.0</ele><time>2026-04-08T16:45:24.646Z</time></trkpt><trkpt lat="43.6255438" lon="11.3611254"><ele>605.0</ele><time>2026-04-08T16:45:25.645Z</time></trkpt><trkpt lat="43.6254892" lon="11.3610653"><ele>604.0</ele><time>2026-04-08T16:45:26.646Z</time></trkpt><trkpt lat="43.6254323" lon="11.3610088"><ele>603.0</ele><time>2026-04-08T16:45:27.645Z</time></trkpt><trkpt lat="43.6253796" lon="11.3609552"><ele>603.0</ele><time>2026-04-08T16:45:28.645Z</time></trkpt><trkpt lat="43.6253261" lon="11.3609046"><ele>603.0</ele><time>2026-04-08T16:45:29.645Z</time></trkpt><trkpt lat="43.6252241" lon="11.3608019"><ele>603.0</ele><time>2026-04-08T16:45:31.645Z</time></trkpt><trkpt lat="43.625162" lon="11.3607437"><ele>603.0</ele><time>2026-04-08T16:45:32.646Z</time></trkpt><trkpt lat="43.6250961" lon="11.3606901"><ele>603.0</ele><time>2026-04-08T16:45:33.646Z</time></trkpt><trkpt lat="43.6250369" lon="11.3606379"><ele>603.0</ele><time>2026-04-08T16:45:34.645Z</time></trkpt><trkpt lat="43.6249767" lon="11.360582"><ele>599.6666666666666</ele><time>2026-04-08T16:45:35.645Z</time></trkpt><trkpt lat="43.6249182" lon="11.3605206"><ele>596.3333333333334</ele><time>2026-04-08T16:45:36.646Z</time></trkpt><trkpt lat="43.6248545" lon="11.3604622"><ele>593.0</ele><time>2026-04-08T16:45:37.646Z</time></trkpt><trkpt lat="43.6247893" lon="11.3604084"><ele>589.6666666666667</ele><time>2026-04-08T16:45:38.645Z</time></trkpt><trkpt lat="43.6247164" lon="11.3603555"><ele>586.3333333333334</ele><time>2026-04-08T16:45:39.646Z</time></trkpt><trkpt lat="43.6246413" lon="11.3603096"><ele>583.0</ele><time>2026-04-08T16:45:40.645Z</time></trkpt><trkpt lat="43.6245628" lon="11.360268"><ele>583.0</ele><time>2026-04-08T16:45:41.645Z</time></trkpt><trkpt lat="43.624481" lon="11.360236"><ele>583.0</ele><time>2026-04-08T16:45:42.645Z</time></trkpt><trkpt lat="43.6244043" lon="11.3602028"><ele>583.0</ele><time>2026-04-08T16:45:43.645Z</time></trkpt><trkpt lat="43.6243319" lon="11.3601775"><ele>583.0</ele><time>2026-04-08T16:45:44.645Z</time></trkpt><trkpt lat="43.6242657" lon="11.3601582"><ele>583.0</ele><time>2026-04-08T16:45:45.645Z</time></trkpt><trkpt lat="43.624166" lon="11.3601179"><ele>583.0</ele><time>2026-04-08T16:45:47.646Z</time></trkpt><trkpt lat="43.624093" lon="11.3600214"><ele>581.0</ele><time>2026-04-08T16:45:49.645Z</time></trkpt><trkpt lat="43.6240577" lon="11.3598719"><ele>579.0</ele><time>2026-04-08T16:45:51.645Z</time></trkpt><trkpt lat="43.624043" lon="11.3597155"><ele>577.0</ele><time>2026-04-08T16:45:53.645Z</time></trkpt><trkpt lat="43.6240534" lon="11.3595978"><ele>575.0</ele><time>2026-04-08T16:45:55.645Z</time></trkpt><trkpt lat="43.624048" lon="11.3595098"><ele>573.0</ele><time>2026-04-08T16:45:57.645Z</time></trkpt><trkpt lat="43.6239943" lon="11.3594361"><ele>571.3333333333334</ele><time>2026-04-08T16:46:01.646Z</time></trkpt><trkpt lat="43.6239089" lon="11.3594373"><ele>569.6666666666666</ele><time>2026-04-08T16:46:04.645Z</time></trkpt><trkpt lat="43.6238229" lon="11.3594635"><ele>568.0</ele><time>2026-04-08T16:46:06.645Z</time></trkpt><trkpt lat="43.6237656" lon="11.3595104"><ele>566.3333333333333</ele><time>2026-04-08T16:46:07.646Z</time></trkpt><trkpt lat="43.6237032" lon="11.3595563"><ele>564.6666666666666</ele><time>2026-04-08T16:46:08.645Z</time></trkpt><trkpt lat="43.6236375" lon="11.3596044"><ele>563.0</ele><time>2026-04-08T16:46:09.646Z</time></trkpt><trkpt lat="43.6235745" lon="11.35965"><ele>561.6666666666666</ele><time>2026-04-08T16:46:10.645Z</time></trkpt><trkpt lat="43.6235055" lon="11.3596986"><ele>560.3333333333333</ele><time>2026-04-08T16:46:11.645Z</time></trkpt><trkpt lat="43.6234348" lon="11.3597441"><ele>559.0</ele><time>2026-04-08T16:46:12.646Z</time></trkpt><trkpt lat="43.6233696" lon="11.3597878"><ele>557.6666666666666</ele><time>2026-04-08T16:46:13.645Z</time></trkpt><trkpt lat="43.6232932" lon="11.3598199"><ele>556.3333333333334</ele><time>2026-04-08T16:46:14.646Z</time></trkpt><trkpt lat="43.6232137" lon="11.3598459"><ele>555.0</ele><time>2026-04-08T16:46:15.645Z</time></trkpt><trkpt lat="43.6231306" lon="11.3598562"><ele>555.0000000000001</ele><time>2026-04-08T16:46:16.645Z</time></trkpt><trkpt lat="43.6230513" lon="11.3598589"><ele>555.0</ele><time>2026-04-08T16:46:17.646Z</time></trkpt><trkpt lat="43.6229725" lon="11.3598624"><ele>555.0</ele><time>2026-04-08T16:46:18.645Z</time></trkpt><trkpt lat="43.6228987" lon="11.3598743"><ele>555.0</ele><time>2026-04-08T16:46:19.645Z</time></trkpt><trkpt lat="43.6228309" lon="11.3598869"><ele>555.0</ele><time>2026-04-08T16:46:20.645Z</time></trkpt><trkpt lat="43.6227668" lon="11.3599172"><ele>555.0000000000001</ele><time>2026-04-08T16:46:21.646Z</time></trkpt><trkpt lat="43.6227061" lon="11.3599721"><ele>555.0</ele><time>2026-04-08T16:46:22.645Z</time></trkpt><trkpt lat="43.6226366" lon="11.3600411"><ele>552.4</ele><time>2026-04-08T16:46:23.646Z</time></trkpt><trkpt lat="43.6225575" lon="11.3601237"><ele>549.8</ele><time>2026-04-08T16:46:24.645Z</time></trkpt><trkpt lat="43.6224827" lon="11.3602079"><ele>547.2</ele><time>2026-04-08T16:46:25.645Z</time></trkpt><trkpt lat="43.6224071" lon="11.360282"><ele>544.6</ele><time>2026-04-08T16:46:26.646Z</time></trkpt><trkpt lat="43.6223237" lon="11.360354"><ele>542.0</ele><time>2026-04-08T16:46:27.646Z</time></trkpt><trkpt lat="43.6222424" lon="11.3604298"><ele>542.0</ele><time>2026-04-08T16:46:28.645Z</time></trkpt><trkpt lat="43.6221612" lon="11.3605125"><ele>542.0</ele><time>2026-04-08T16:46:29.645Z</time></trkpt><trkpt lat="43.622074" lon="11.3605922"><ele>542.0</ele><time>2026-04-08T16:46:30.645Z</time></trkpt><trkpt lat="43.6219861" lon="11.3606721"><ele>542.0</ele><time>2026-04-08T16:46:31.646Z</time></trkpt><trkpt lat="43.6219077" lon="11.3607607"><ele>542.0</ele><time>2026-04-08T16:46:32.645Z</time></trkpt><trkpt lat="43.6218212" lon="11.3608496"><ele>540.1666666666666</ele><time>2026-04-08T16:46:33.645Z</time></trkpt><trkpt lat="43.6217385" lon="11.3609354"><ele>538.3333333333333</ele><time>2026-04-08T16:46:34.646Z</time></trkpt><trkpt lat="43.6216631" lon="11.361004"><ele>536.5</ele><time>2026-04-08T16:46:35.645Z</time></trkpt><trkpt lat="43.6215893" lon="11.3610405"><ele>534.6666666666666</ele><time>2026-04-08T16:46:36.645Z</time></trkpt><trkpt lat="43.6215188" lon="11.3610506"><ele>532.8333333333334</ele><time>2026-04-08T16:46:37.646Z</time></trkpt><trkpt lat="43.6214369" lon="11.3610446"><ele>531.0</ele><time>2026-04-08T16:46:38.645Z</time></trkpt><trkpt lat="43.621361" lon="11.3610274"><ele>531.0</ele><time>2026-04-08T16:46:39.645Z</time></trkpt><trkpt lat="43.6212897" lon="11.3610026"><ele>531.0</ele><time>2026-04-08T16:46:40.646Z</time></trkpt><trkpt lat="43.6212203" lon="11.3609775"><ele>531.0</ele><time>2026-04-08T16:46:41.645Z</time></trkpt><trkpt lat="43.6211474" lon="11.3609483"><ele>531.0</ele><time>2026-04-08T16:46:42.645Z</time></trkpt><trkpt lat="43.6210643" lon="11.3609144"><ele>531.0</ele><time>2026-04-08T16:46:43.646Z</time></trkpt><trkpt lat="43.6209765" lon="11.3608829"><ele>531.0</ele><time>2026-04-08T16:46:44.645Z</time></trkpt><trkpt lat="43.6208766" lon="11.3608568"><ele>530.25</ele><time>2026-04-08T16:46:45.646Z</time></trkpt><trkpt lat="43.6207626" lon="11.3608306"><ele>529.5</ele><time>2026-04-08T16:46:46.646Z</time></trkpt><trkpt lat="43.620651" lon="11.3608088"><ele>528.75</ele><time>2026-04-08T16:46:47.645Z</time></trkpt><trkpt lat="43.6205295" lon="11.3608104"><ele>528.0</ele><time>2026-04-08T16:46:48.646Z</time></trkpt><trkpt lat="43.6204122" lon="11.3608064"><ele>528.1999999999999</ele><time>2026-04-08T16:46:49.646Z</time></trkpt><trkpt lat="43.6203039" lon="11.3607945"><ele>528.4</ele><time>2026-04-08T16:46:50.646Z</time></trkpt><trkpt lat="43.6202047" lon="11.3607767"><ele>528.5999999999999</ele><time>2026-04-08T16:46:51.646Z</time></trkpt><trkpt lat="43.6201127" lon="11.3607639"><ele>528.8</ele><time>2026-04-08T16:46:52.645Z</time></trkpt><trkpt lat="43.6200272" lon="11.3607462"><ele>529.0</ele><time>2026-04-08T16:46:53.646Z</time></trkpt><trkpt lat="43.619946" lon="11.3607104"><ele>529.0</ele><time>2026-04-08T16:46:54.645Z</time></trkpt><trkpt lat="43.6198651" lon="11.3606598"><ele>529.0</ele><time>2026-04-08T16:46:55.646Z</time></trkpt><trkpt lat="43.61979" lon="11.3605987"><ele>529.0</ele><time>2026-04-08T16:46:56.645Z</time></trkpt><trkpt lat="43.6197125" lon="11.3605302"><ele>529.0</ele><time>2026-04-08T16:46:57.645Z</time></trkpt><trkpt lat="43.6196445" lon="11.3604694"><ele>529.0</ele><time>2026-04-08T16:46:58.645Z</time></trkpt><trkpt lat="43.6195789" lon="11.3604159"><ele>529.0</ele><time>2026-04-08T16:46:59.645Z</time></trkpt><trkpt lat="43.6195003" lon="11.3603632"><ele>524.2</ele><time>2026-04-08T16:47:00.645Z</time></trkpt><trkpt lat="43.6194182" lon="11.3603306"><ele>519.4</ele><time>2026-04-08T16:47:01.645Z</time></trkpt><trkpt lat="43.6193337" lon="11.3603001"><ele>514.6</ele><time>2026-04-08T16:47:02.645Z</time></trkpt><trkpt lat="43.6192436" lon="11.3602696"><ele>509.8</ele><time>2026-04-08T16:47:03.646Z</time></trkpt><trkpt lat="43.6191441" lon="11.3602335"><ele>505.0</ele><time>2026-04-08T16:47:04.645Z</time></trkpt><trkpt lat="43.6190536" lon="11.3601799"><ele>505.0</ele><time>2026-04-08T16:47:05.646Z</time></trkpt><trkpt lat="43.6189562" lon="11.3601204"><ele>505.0</ele><time>2026-04-08T16:47:06.645Z</time></trkpt><trkpt lat="43.6188551" lon="11.3600528"><ele>505.0</ele><time>2026-04-08T16:47:07.645Z</time></trkpt><trkpt lat="43.618762" lon="11.3599926"><ele>505.0</ele><time>2026-04-08T16:47:08.645Z</time></trkpt><trkpt lat="43.6186699" lon="11.35993"><ele>505.0</ele><time>2026-04-08T16:47:09.645Z</time></trkpt><trkpt lat="43.6185887" lon="11.3598675"><ele>505.4</ele><time>2026-04-08T16:47:10.646Z</time></trkpt><trkpt lat="43.6185126" lon="11.3598036"><ele>505.8</ele><time>2026-04-08T16:47:11.645Z</time></trkpt><trkpt lat="43.618437" lon="11.35972"><ele>506.20000000000005</ele><time>2026-04-08T16:47:12.645Z</time></trkpt><trkpt lat="43.6183624" lon="11.3596293"><ele>506.6</ele><time>2026-04-08T16:47:13.645Z</time></trkpt><trkpt lat="43.6182897" lon="11.359546"><ele>507.0</ele><time>2026-04-08T16:47:14.645Z</time></trkpt><trkpt lat="43.6182175" lon="11.3594625"><ele>504.1666666666667</ele><time>2026-04-08T16:47:15.645Z</time></trkpt><trkpt lat="43.6181485" lon="11.3593876"><ele>501.33333333333337</ele><time>2026-04-08T16:47:16.645Z</time></trkpt><trkpt lat="43.6180949" lon="11.3593273"><ele>498.5</ele><time>2026-04-08T16:47:17.646Z</time></trkpt><trkpt lat="43.618009" lon="11.3592329"><ele>495.6666666666667</ele><time>2026-04-08T16:47:19.645Z</time></trkpt><trkpt lat="43.6179432" lon="11.359159"><ele>492.83333333333337</ele><time>2026-04-08T16:47:21.645Z</time></trkpt><trkpt lat="43.6178494" lon="11.3591419"><ele>490.0</ele><time>2026-04-08T16:47:24.646Z</time></trkpt><trkpt lat="43.6177533" lon="11.3591771"><ele>490.00000000000006</ele><time>2026-04-08T16:47:26.645Z</time></trkpt><trkpt lat="43.6176785" lon="11.3592123"><ele>490.0</ele><time>2026-04-08T16:47:28.645Z</time></trkpt><trkpt lat="43.6175966" lon="11.3592214"><ele>490.0</ele><time>2026-04-08T16:47:31.645Z</time></trkpt><trkpt lat="43.6175342" lon="11.3592554"><ele>490.0</ele><time>2026-04-08T16:47:34.646Z</time></trkpt><trkpt lat="43.6174632" lon="11.3591441"><ele>490.00000000000006</ele><time>2026-04-08T16:48:10.645Z</time></trkpt><trkpt lat="43.6174313" lon="11.3590684"><ele>490.0</ele><time>2026-04-08T16:48:11.645Z</time></trkpt><trkpt lat="43.617386" lon="11.3589777"><ele>490.0</ele><time>2026-04-08T16:48:12.645Z</time></trkpt><trkpt lat="43.6173247" lon="11.3588771"><ele>490.0</ele><time>2026-04-08T16:48:13.645Z</time></trkpt><trkpt lat="43.6172602" lon="11.358766"><ele>490.0</ele><time>2026-04-08T16:48:14.646Z</time></trkpt><trkpt lat="43.617192" lon="11.3586591"><ele>490.0</ele><time>2026-04-08T16:48:15.646Z</time></trkpt><trkpt lat="43.6171265" lon="11.3585464"><ele>490.0</ele><time>2026-04-08T16:48:16.646Z</time></trkpt><trkpt lat="43.6170625" lon="11.3584307"><ele>490.2</ele><time>2026-04-08T16:48:17.646Z</time></trkpt><trkpt lat="43.6169941" lon="11.3583207"><ele>490.4</ele><time>2026-04-08T16:48:18.645Z</time></trkpt><trkpt lat="43.6169286" lon="11.3582094"><ele>490.6</ele><time>2026-04-08T16:48:19.645Z</time></trkpt><trkpt lat="43.6168619" lon="11.3581015"><ele>490.8</ele><time>2026-04-08T16:48:20.646Z</time></trkpt><trkpt lat="43.6167953" lon="11.3579906"><ele>491.0</ele><time>2026-04-08T16:48:21.645Z</time></trkpt><trkpt lat="43.6167336" lon="11.35788"><ele>492.25</ele><time>2026-04-08T16:48:22.645Z</time></trkpt><trkpt lat="43.6166536" lon="11.3577894"><ele>493.5</ele><time>2026-04-08T16:48:23.646Z</time></trkpt><trkpt lat="43.6165401" lon="11.3577731"><ele>494.75</ele><time>2026-04-08T16:48:24.646Z</time></trkpt><trkpt lat="43.6164217" lon="11.3578022"><ele>496.0</ele><time>2026-04-08T16:48:25.646Z</time></trkpt><trkpt lat="43.616301" lon="11.3578661"><ele>496.0</ele><time>2026-04-08T16:48:26.646Z</time></trkpt><trkpt lat="43.6161781" lon="11.3579404"><ele>496.0</ele><time>2026-04-08T16:48:27.645Z</time></trkpt><trkpt lat="43.6160552" lon="11.3579997"><ele>496.0</ele><time>2026-04-08T16:48:28.645Z</time></trkpt><trkpt lat="43.6159379" lon="11.3580369"><ele>496.0</ele><time>2026-04-08T16:48:29.645Z</time></trkpt><trkpt lat="43.6158237" lon="11.3580896"><ele>490.5</ele><time>2026-04-08T16:48:30.646Z</time></trkpt><trkpt lat="43.6157108" lon="11.3581361"><ele>485.0</ele><time>2026-04-08T16:48:31.645Z</time></trkpt><trkpt lat="43.6155946" lon="11.3581551"><ele>479.5</ele><time>2026-04-08T16:48:32.645Z</time></trkpt><trkpt lat="43.6154772" lon="11.3581499"><ele>474.0</ele><time>2026-04-08T16:48:33.646Z</time></trkpt><trkpt lat="43.6153633" lon="11.3581374"><ele>474.5</ele><time>2026-04-08T16:48:34.645Z</time></trkpt><trkpt lat="43.6152475" lon="11.35818"><ele>475.0</ele><time>2026-04-08T16:48:35.645Z</time></trkpt><trkpt lat="43.6151441" lon="11.3582679"><ele>475.5</ele><time>2026-04-08T16:48:36.646Z</time></trkpt><trkpt lat="43.6150371" lon="11.3583494"><ele>476.0</ele><time>2026-04-08T16:48:37.645Z</time></trkpt><trkpt lat="43.61492" lon="11.3583679"><ele>476.0</ele><time>2026-04-08T16:48:38.645Z</time></trkpt><trkpt lat="43.6147944" lon="11.3583799"><ele>476.0</ele><time>2026-04-08T16:48:39.645Z</time></trkpt><trkpt lat="43.6146319" lon="11.35835"><ele>476.0</ele><time>2026-04-08T16:48:40.645Z</time></trkpt><trkpt lat="43.6144611" lon="11.358338"><ele>475.0</ele><time>2026-04-08T16:48:41.645Z</time></trkpt><trkpt lat="43.6142934" lon="11.3583202"><ele>474.0</ele><time>2026-04-08T16:48:42.646Z</time></trkpt><trkpt lat="43.6141261" lon="11.3583077"><ele>473.0</ele><time>2026-04-08T16:48:43.646Z</time></trkpt><trkpt lat="43.6139731" lon="11.3582999"><ele>473.0</ele><time>2026-04-08T16:48:44.645Z</time></trkpt><trkpt lat="43.6138169" lon="11.3582831"><ele>473.0</ele><time>2026-04-08T16:48:45.645Z</time></trkpt><trkpt lat="43.6136702" lon="11.3583364"><ele>473.0</ele><time>2026-04-08T16:48:46.645Z</time></trkpt><trkpt lat="43.6135352" lon="11.3584233"><ele>475.66666666666663</ele><time>2026-04-08T16:48:47.646Z</time></trkpt><trkpt lat="43.6134206" lon="11.3585964"><ele>478.33333333333337</ele><time>2026-04-08T16:48:48.645Z</time></trkpt><trkpt lat="43.6133066" lon="11.3587709"><ele>481.0</ele><time>2026-04-08T16:48:49.645Z</time></trkpt><trkpt lat="43.6131767" lon="11.3589307"><ele>479.33333333333337</ele><time>2026-04-08T16:48:50.645Z</time></trkpt><trkpt lat="43.6130308" lon="11.3590799"><ele>477.66666666666663</ele><time>2026-04-08T16:48:51.645Z</time></trkpt><trkpt lat="43.6128957" lon="11.359228"><ele>476.0</ele><time>2026-04-08T16:48:52.645Z</time></trkpt><trkpt lat="43.6127563" lon="11.3593648"><ele>476.0</ele><time>2026-04-08T16:48:53.645Z</time></trkpt><trkpt lat="43.6125898" lon="11.3594809"><ele>476.0</ele><time>2026-04-08T16:48:54.645Z</time></trkpt><trkpt lat="43.6123967" lon="11.3595847"><ele>476.0</ele><time>2026-04-08T16:48:55.646Z</time></trkpt><trkpt lat="43.6122015" lon="11.3597003"><ele>469.0</ele><time>2026-04-08T16:48:56.645Z</time></trkpt><trkpt lat="43.6119993" lon="11.3598445"><ele>462.0</ele><time>2026-04-08T16:48:57.646Z</time></trkpt><trkpt lat="43.611801" lon="11.3599868"><ele>462.0</ele><time>2026-04-08T16:48:58.646Z</time></trkpt><trkpt lat="43.6116217" lon="11.3601248"><ele>462.0</ele><time>2026-04-08T16:48:59.645Z</time></trkpt><trkpt lat="43.6114462" lon="11.3602436"><ele>462.0</ele><time>2026-04-08T16:49:00.645Z</time></trkpt><trkpt lat="43.6112884" lon="11.3603668"><ele>460.0</ele><time>2026-04-08T16:49:01.646Z</time></trkpt><trkpt lat="43.611154" lon="11.3605208"><ele>458.0</ele><time>2026-04-08T16:49:02.646Z</time></trkpt><trkpt lat="43.6110367" lon="11.360714"><ele>456.0</ele><time>2026-04-08T16:49:03.646Z</time></trkpt><trkpt lat="43.6109505" lon="11.3608973"><ele>456.0</ele><time>2026-04-08T16:49:04.645Z</time></trkpt><trkpt lat="43.6108718" lon="11.361049"><ele>456.0</ele><time>2026-04-08T16:49:05.645Z</time></trkpt><trkpt lat="43.6107459" lon="11.3611528"><ele>456.0</ele><time>2026-04-08T16:49:06.645Z</time></trkpt><trkpt lat="43.6106023" lon="11.3611921"><ele>456.0</ele><time>2026-04-08T16:49:07.645Z</time></trkpt><trkpt lat="43.610462" lon="11.361192"><ele>456.0</ele><time>2026-04-08T16:49:08.645Z</time></trkpt><trkpt lat="43.6103431" lon="11.3612077"><ele>456.0</ele><time>2026-04-08T16:49:09.645Z</time></trkpt><trkpt lat="43.6102655" lon="11.3612839"><ele>456.0</ele><time>2026-04-08T16:49:10.645Z</time></trkpt><trkpt lat="43.6101975" lon="11.3614481"><ele>456.0</ele><time>2026-04-08T16:49:11.645Z</time></trkpt><trkpt lat="43.6101385" lon="11.3616676"><ele>455.33333333333337</ele><time>2026-04-08T16:49:12.646Z</time></trkpt><trkpt lat="43.6100672" lon="11.3618992"><ele>454.6666666666667</ele><time>2026-04-08T16:49:13.645Z</time></trkpt><trkpt lat="43.609958" lon="11.3621395"><ele>454.0</ele><time>2026-04-08T16:49:14.645Z</time></trkpt><trkpt lat="43.6098342" lon="11.3623836"><ele>450.33333333333337</ele><time>2026-04-08T16:49:15.645Z</time></trkpt><trkpt lat="43.6097239" lon="11.3626283"><ele>446.66666666666663</ele><time>2026-04-08T16:49:16.645Z</time></trkpt><trkpt lat="43.6096195" lon="11.3628736"><ele>443.0</ele><time>2026-04-08T16:49:17.645Z</time></trkpt><trkpt lat="43.6095346" lon="11.3631143"><ele>442.25</ele><time>2026-04-08T16:49:18.645Z</time></trkpt><trkpt lat="43.6094941" lon="11.3633419"><ele>441.5</ele><time>2026-04-08T16:49:19.646Z</time></trkpt><trkpt lat="43.6094705" lon="11.363533"><ele>440.75</ele><time>2026-04-08T16:49:20.645Z</time></trkpt><trkpt lat="43.6094524" lon="11.3637091"><ele>440.0</ele><time>2026-04-08T16:49:21.645Z</time></trkpt><trkpt lat="43.6093722" lon="11.3638763"><ele>440.0</ele><time>2026-04-08T16:49:22.646Z</time></trkpt><trkpt lat="43.6092551" lon="11.3640249"><ele>440.0</ele><time>2026-04-08T16:49:23.645Z</time></trkpt><trkpt lat="43.6091203" lon="11.3640957"><ele>440.0</ele><time>2026-04-08T16:49:24.646Z</time></trkpt><trkpt lat="43.608979" lon="11.3641167"><ele>440.0</ele><time>2026-04-08T16:49:25.645Z</time></trkpt><trkpt lat="43.608842" lon="11.3640582"><ele>440.0</ele><time>2026-04-08T16:49:26.645Z</time></trkpt><trkpt lat="43.6087038" lon="11.3639629"><ele>440.0</ele><time>2026-04-08T16:49:27.646Z</time></trkpt><trkpt lat="43.6085755" lon="11.3638848"><ele>440.0</ele><time>2026-04-08T16:49:28.646Z</time></trkpt><trkpt lat="43.6084386" lon="11.3638841"><ele>440.0</ele><time>2026-04-08T16:49:29.645Z</time></trkpt><trkpt lat="43.6082921" lon="11.3639867"><ele>439.66666666666663</ele><time>2026-04-08T16:49:30.646Z</time></trkpt><trkpt lat="43.6081333" lon="11.3641326"><ele>439.33333333333337</ele><time>2026-04-08T16:49:31.645Z</time></trkpt><trkpt lat="43.6079584" lon="11.364255"><ele>439.0</ele><time>2026-04-08T16:49:32.645Z</time></trkpt><trkpt lat="43.6077775" lon="11.3643806"><ele>441.33333333333337</ele><time>2026-04-08T16:49:33.645Z</time></trkpt><trkpt lat="43.6076125" lon="11.364524"><ele>443.66666666666663</ele><time>2026-04-08T16:49:34.645Z</time></trkpt><trkpt lat="43.6074595" lon="11.3646603"><ele>446.0</ele><time>2026-04-08T16:49:35.645Z</time></trkpt><trkpt lat="43.6073034" lon="11.3647472"><ele>443.6</ele><time>2026-04-08T16:49:36.646Z</time></trkpt><trkpt lat="43.6071659" lon="11.3647789"><ele>441.20000000000005</ele><time>2026-04-08T16:49:37.645Z</time></trkpt><trkpt lat="43.6070531" lon="11.3647591"><ele>438.79999999999995</ele><time>2026-04-08T16:49:38.645Z</time></trkpt><trkpt lat="43.6069503" lon="11.3647249"><ele>436.4</ele><time>2026-04-08T16:49:39.645Z</time></trkpt><trkpt lat="43.6068717" lon="11.3647452"><ele>434.0</ele><time>2026-04-08T16:49:40.646Z</time></trkpt><trkpt lat="43.6068156" lon="11.3648524"><ele>434.0</ele><time>2026-04-08T16:49:41.645Z</time></trkpt><trkpt lat="43.6068152" lon="11.3650175"><ele>434.0</ele><time>2026-04-08T16:49:42.646Z</time></trkpt><trkpt lat="43.6068414" lon="11.3652055"><ele>434.0</ele><time>2026-04-08T16:49:43.645Z</time></trkpt><trkpt lat="43.6068338" lon="11.3654251"><ele>434.0</ele><time>2026-04-08T16:49:44.645Z</time></trkpt><trkpt lat="43.6068092" lon="11.3656289"><ele>430.0</ele><time>2026-04-08T16:49:45.646Z</time></trkpt><trkpt lat="43.6067337" lon="11.3658076"><ele>426.0</ele><time>2026-04-08T16:49:46.645Z</time></trkpt><trkpt lat="43.6066083" lon="11.3659873"><ele>422.0</ele><time>2026-04-08T16:49:47.645Z</time></trkpt><trkpt lat="43.6064631" lon="11.3661754"><ele>422.0</ele><time>2026-04-08T16:49:48.645Z</time></trkpt><trkpt lat="43.6063185" lon="11.3663049"><ele>422.0</ele><time>2026-04-08T16:49:49.645Z</time></trkpt><trkpt lat="43.6061895" lon="11.3663967"><ele>422.0</ele><time>2026-04-08T16:49:50.646Z</time></trkpt><trkpt lat="43.6060564" lon="11.3664349"><ele>420.75</ele><time>2026-04-08T16:49:51.646Z</time></trkpt><trkpt lat="43.60593" lon="11.366404"><ele>419.5</ele><time>2026-04-08T16:49:52.645Z</time></trkpt><trkpt lat="43.6058114" lon="11.3663518"><ele>418.25</ele><time>2026-04-08T16:49:53.645Z</time></trkpt><trkpt lat="43.6056975" lon="11.3663158"><ele>417.0</ele><time>2026-04-08T16:49:54.645Z</time></trkpt><trkpt lat="43.6055985" lon="11.3663545"><ele>417.0</ele><time>2026-04-08T16:49:55.645Z</time></trkpt><trkpt lat="43.6055223" lon="11.3664303"><ele>417.0</ele><time>2026-04-08T16:49:56.645Z</time></trkpt><trkpt lat="43.6055085" lon="11.3665587"><ele>417.0</ele><time>2026-04-08T16:49:57.645Z</time></trkpt><trkpt lat="43.6055389" lon="11.3667125"><ele>417.0</ele><time>2026-04-08T16:49:58.645Z</time></trkpt><trkpt lat="43.6056036" lon="11.3669029"><ele>417.0</ele><time>2026-04-08T16:49:59.645Z</time></trkpt><trkpt lat="43.6056577" lon="11.3671126"><ele>417.0</ele><time>2026-04-08T16:50:00.645Z</time></trkpt><trkpt lat="43.6056619" lon="11.3673258"><ele>417.0</ele><time>2026-04-08T16:50:01.645Z</time></trkpt><trkpt lat="43.6056266" lon="11.3675101"><ele>419.0</ele><time>2026-04-08T16:50:02.645Z</time></trkpt><trkpt lat="43.6055508" lon="11.3677007"><ele>421.0</ele><time>2026-04-08T16:50:03.645Z</time></trkpt><trkpt lat="43.6054249" lon="11.3678579"><ele>423.0</ele><time>2026-04-08T16:50:04.645Z</time></trkpt><trkpt lat="43.6052978" lon="11.3679913"><ele>416.66666666666663</ele><time>2026-04-08T16:50:05.645Z</time></trkpt><trkpt lat="43.6051501" lon="11.3680718"><ele>410.3333333333333</ele><time>2026-04-08T16:50:06.646Z</time></trkpt><trkpt lat="43.6050017" lon="11.3681268"><ele>404.0</ele><time>2026-04-08T16:50:07.645Z</time></trkpt><trkpt lat="43.6048272" lon="11.3681419"><ele>404.0</ele><time>2026-04-08T16:50:08.645Z</time></trkpt><trkpt lat="43.6046685" lon="11.3681609"><ele>404.0</ele><time>2026-04-08T16:50:09.645Z</time></trkpt><trkpt lat="43.6045316" lon="11.3681899"><ele>404.0</ele><time>2026-04-08T16:50:10.646Z</time></trkpt><trkpt lat="43.6044154" lon="11.3682485"><ele>404.0</ele><time>2026-04-08T16:50:11.645Z</time></trkpt><trkpt lat="43.6043105" lon="11.3683078"><ele>405.6</ele><time>2026-04-08T16:50:12.645Z</time></trkpt><trkpt lat="43.6042256" lon="11.368379"><ele>407.2</ele><time>2026-04-08T16:50:13.646Z</time></trkpt><trkpt lat="43.6041602" lon="11.3684929"><ele>408.8</ele><time>2026-04-08T16:50:14.645Z</time></trkpt><trkpt lat="43.6041244" lon="11.3686349"><ele>410.40000000000003</ele><time>2026-04-08T16:50:15.646Z</time></trkpt><trkpt lat="43.604149" lon="11.3688074"><ele>412.0</ele><time>2026-04-08T16:50:16.645Z</time></trkpt><trkpt lat="43.6042172" lon="11.3689451"><ele>412.0</ele><time>2026-04-08T16:50:17.646Z</time></trkpt><trkpt lat="43.6042955" lon="11.3690969"><ele>412.0</ele><time>2026-04-08T16:50:18.646Z</time></trkpt><trkpt lat="43.6043397" lon="11.3692673"><ele>412.0</ele><time>2026-04-08T16:50:19.645Z</time></trkpt><trkpt lat="43.6043255" lon="11.3694726"><ele>412.0</ele><time>2026-04-08T16:50:20.645Z</time></trkpt><trkpt lat="43.6042933" lon="11.3697093"><ele>414.6666666666667</ele><time>2026-04-08T16:50:21.645Z</time></trkpt><trkpt lat="43.6043184" lon="11.3699361"><ele>417.33333333333337</ele><time>2026-04-08T16:50:22.646Z</time></trkpt><trkpt lat="43.6044072" lon="11.3701198"><ele>420.0</ele><time>2026-04-08T16:50:23.645Z</time></trkpt><trkpt lat="43.6044983" lon="11.3703262"><ele>412.66666666666663</ele><time>2026-04-08T16:50:24.645Z</time></trkpt><trkpt lat="43.604549" lon="11.3705665"><ele>405.3333333333333</ele><time>2026-04-08T16:50:25.645Z</time></trkpt><trkpt lat="43.6045644" lon="11.3708215"><ele>398.0</ele><time>2026-04-08T16:50:26.645Z</time></trkpt><trkpt lat="43.6045586" lon="11.3710405"><ele>398.0</ele><time>2026-04-08T16:50:27.645Z</time></trkpt><trkpt lat="43.6045293" lon="11.3712047"><ele>398.0</ele><time>2026-04-08T16:50:28.645Z</time></trkpt><trkpt lat="43.6044432" lon="11.3713609"><ele>398.0</ele><time>2026-04-08T16:50:29.646Z</time></trkpt><trkpt lat="43.6043263" lon="11.371482"><ele>398.0</ele><time>2026-04-08T16:50:30.645Z</time></trkpt><trkpt lat="43.6041695" lon="11.3715526"><ele>401.5</ele><time>2026-04-08T16:50:31.645Z</time></trkpt><trkpt lat="43.6040341" lon="11.3715925"><ele>405.0</ele><time>2026-04-08T16:50:32.645Z</time></trkpt><trkpt lat="43.6039281" lon="11.3716698"><ele>408.5</ele><time>2026-04-08T16:50:33.646Z</time></trkpt><trkpt lat="43.6038637" lon="11.3718196"><ele>412.0</ele><time>2026-04-08T16:50:34.646Z</time></trkpt><trkpt lat="43.6038633" lon="11.3719889"><ele>412.0</ele><time>2026-04-08T16:50:35.645Z</time></trkpt><trkpt lat="43.6038546" lon="11.3721567"><ele>412.0</ele><time>2026-04-08T16:50:36.646Z</time></trkpt><trkpt lat="43.6037847" lon="11.3723064"><ele>412.0</ele><time>2026-04-08T16:50:37.645Z</time></trkpt><trkpt lat="43.6036424" lon="11.3724273"><ele>412.0</ele><time>2026-04-08T16:50:38.645Z</time></trkpt><trkpt lat="43.6034934" lon="11.372523"><ele>415.0</ele><time>2026-04-08T16:50:39.645Z</time></trkpt><trkpt lat="43.6033679" lon="11.3726173"><ele>418.0</ele><time>2026-04-08T16:50:40.645Z</time></trkpt><trkpt lat="43.6032617" lon="11.3727025"><ele>421.0</ele><time>2026-04-08T16:50:41.646Z</time></trkpt><trkpt lat="43.6031732" lon="11.3727867"><ele>424.0</ele><time>2026-04-08T16:50:42.645Z</time></trkpt><trkpt lat="43.6031059" lon="11.3728499"><ele>424.00000000000006</ele><time>2026-04-08T16:50:43.645Z</time></trkpt><trkpt lat="43.6030508" lon="11.3729068"><ele>424.0</ele><time>2026-04-08T16:50:44.645Z</time></trkpt><trkpt lat="43.6030033" lon="11.3729837"><ele>424.0</ele><time>2026-04-08T16:50:46.646Z</time></trkpt><trkpt lat="43.6030009" lon="11.3731039"><ele>424.0</ele><time>2026-04-08T16:53:10.645Z</time></trkpt><trkpt lat="43.6030328" lon="11.3732112"><ele>424.00000000000006</ele><time>2026-04-08T16:53:11.645Z</time></trkpt><trkpt lat="43.6030593" lon="11.3733265"><ele>424.0</ele><time>2026-04-08T16:53:12.645Z</time></trkpt><trkpt lat="43.6030671" lon="11.373442"><ele>423.79999999999995</ele><time>2026-04-08T16:53:13.645Z</time></trkpt><trkpt lat="43.6030566" lon="11.3735688"><ele>423.59999999999997</ele><time>2026-04-08T16:53:14.645Z</time></trkpt><trkpt lat="43.6030234" lon="11.3737088"><ele>423.4</ele><time>2026-04-08T16:53:15.645Z</time></trkpt><trkpt lat="43.602982" lon="11.3738507"><ele>423.2</ele><time>2026-04-08T16:53:16.645Z</time></trkpt><trkpt lat="43.6029321" lon="11.3740213"><ele>423.0</ele><time>2026-04-08T16:53:17.645Z</time></trkpt><trkpt lat="43.6028772" lon="11.3741918"><ele>421.5</ele><time>2026-04-08T16:53:18.645Z</time></trkpt><trkpt lat="43.6028236" lon="11.3743633"><ele>420.0</ele><time>2026-04-08T16:53:19.646Z</time></trkpt><trkpt lat="43.6027814" lon="11.3745293"><ele>418.5</ele><time>2026-04-08T16:53:20.645Z</time></trkpt><trkpt lat="43.6027322" lon="11.374702"><ele>417.0</ele><time>2026-04-08T16:53:21.645Z</time></trkpt><trkpt lat="43.6026856" lon="11.3748645"><ele>416.75</ele><time>2026-04-08T16:53:22.645Z</time></trkpt><trkpt lat="43.6026444" lon="11.3750234"><ele>416.5</ele><time>2026-04-08T16:53:23.645Z</time></trkpt><trkpt lat="43.6025984" lon="11.3751844"><ele>416.25</ele><time>2026-04-08T16:53:24.645Z</time></trkpt><trkpt lat="43.6025505" lon="11.3753437"><ele>416.0</ele><time>2026-04-08T16:53:25.647Z</time></trkpt><trkpt lat="43.6025072" lon="11.3755167"><ele>415.5</ele><time>2026-04-08T16:53:26.646Z</time></trkpt><trkpt lat="43.6024681" lon="11.3756994"><ele>415.0</ele><time>2026-04-08T16:53:27.646Z</time></trkpt><trkpt lat="43.6024187" lon="11.3758975"><ele>414.5</ele><time>2026-04-08T16:53:28.646Z</time></trkpt><trkpt lat="43.6023647" lon="11.3760988"><ele>414.0</ele><time>2026-04-08T16:53:29.647Z</time></trkpt><trkpt lat="43.6023059" lon="11.3763113"><ele>412.0</ele><time>2026-04-08T16:53:30.646Z</time></trkpt><trkpt lat="43.6022483" lon="11.3765215"><ele>410.0</ele><time>2026-04-08T16:53:31.646Z</time></trkpt><trkpt lat="43.6021876" lon="11.3767537"><ele>408.0</ele><time>2026-04-08T16:53:32.646Z</time></trkpt><trkpt lat="43.6021226" lon="11.3769921"><ele>407.0</ele><time>2026-04-08T16:53:33.646Z</time></trkpt><trkpt lat="43.6020557" lon="11.3772371"><ele>406.0</ele><time>2026-04-08T16:53:34.647Z</time></trkpt><trkpt lat="43.6019885" lon="11.3774808"><ele>405.0</ele><time>2026-04-08T16:53:35.646Z</time></trkpt><trkpt lat="43.6019201" lon="11.3777279"><ele>404.0</ele><time>2026-04-08T16:53:36.646Z</time></trkpt><trkpt lat="43.6018573" lon="11.3779666"><ele>403.0</ele><time>2026-04-08T16:53:37.646Z</time></trkpt><trkpt lat="43.6017939" lon="11.3781967"><ele>402.0</ele><time>2026-04-08T16:53:38.647Z</time></trkpt><trkpt lat="43.6017426" lon="11.378424"><ele>401.33333333333337</ele><time>2026-04-08T16:53:39.646Z</time></trkpt><trkpt lat="43.6017139" lon="11.3786498"><ele>400.6666666666667</ele><time>2026-04-08T16:53:40.646Z</time></trkpt><trkpt lat="43.6017015" lon="11.3788837"><ele>400.0</ele><time>2026-04-08T16:53:41.646Z</time></trkpt><trkpt lat="43.6016978" lon="11.3791072"><ele>399.6666666666667</ele><time>2026-04-08T16:53:42.646Z</time></trkpt><trkpt lat="43.6016977" lon="11.3793348"><ele>399.33333333333337</ele><time>2026-04-08T16:53:43.646Z</time></trkpt><trkpt lat="43.6016929" lon="11.3795595"><ele>399.0</ele><time>2026-04-08T16:53:44.647Z</time></trkpt><trkpt lat="43.6016543" lon="11.3797728"><ele>399.0</ele><time>2026-04-08T16:53:45.646Z</time></trkpt><trkpt lat="43.6015822" lon="11.3799668"><ele>399.0</ele><time>2026-04-08T16:53:46.646Z</time></trkpt><trkpt lat="43.6014862" lon="11.3801592"><ele>399.0</ele><time>2026-04-08T16:53:47.646Z</time></trkpt><trkpt lat="43.6013872" lon="11.3803621"><ele>400.33333333333337</ele><time>2026-04-08T16:53:48.646Z</time></trkpt><trkpt lat="43.6012892" lon="11.3805631"><ele>401.6666666666667</ele><time>2026-04-08T16:53:49.646Z</time></trkpt><trkpt lat="43.601192" lon="11.3807688"><ele>403.0</ele><time>2026-04-08T16:53:50.646Z</time></trkpt><trkpt lat="43.6010854" lon="11.3809774"><ele>397.0</ele><time>2026-04-08T16:53:51.646Z</time></trkpt><trkpt lat="43.6009737" lon="11.3811826"><ele>391.0</ele><time>2026-04-08T16:53:52.646Z</time></trkpt><trkpt lat="43.6008523" lon="11.3813852"><ele>385.0</ele><time>2026-04-08T16:53:53.646Z</time></trkpt><trkpt lat="43.6007194" lon="11.3815923"><ele>384.6666666666667</ele><time>2026-04-08T16:53:54.647Z</time></trkpt><trkpt lat="43.6005719" lon="11.381779"><ele>384.33333333333337</ele><time>2026-04-08T16:53:55.646Z</time></trkpt><trkpt lat="43.6004236" lon="11.3819619"><ele>384.0</ele><time>2026-04-08T16:53:56.647Z</time></trkpt><trkpt lat="43.6002858" lon="11.3821497"><ele>379.6666666666667</ele><time>2026-04-08T16:53:57.647Z</time></trkpt><trkpt lat="43.6001634" lon="11.3823518"><ele>375.33333333333337</ele><time>2026-04-08T16:53:58.647Z</time></trkpt><trkpt lat="43.6000705" lon="11.38257"><ele>371.0</ele><time>2026-04-08T16:53:59.647Z</time></trkpt><trkpt lat="43.5999916" lon="11.3827898"><ele>371.0</ele><time>2026-04-08T16:54:00.647Z</time></trkpt><trkpt lat="43.5999021" lon="11.3829928"><ele>371.0</ele><time>2026-04-08T16:54:01.647Z</time></trkpt><trkpt lat="43.5997846" lon="11.3831533"><ele>371.0</ele><time>2026-04-08T16:54:02.646Z</time></trkpt><trkpt lat="43.5996442" lon="11.3832934"><ele>369.6666666666667</ele><time>2026-04-08T16:54:03.646Z</time></trkpt><trkpt lat="43.5994938" lon="11.3834082"><ele>368.3333333333333</ele><time>2026-04-08T16:54:04.646Z</time></trkpt><trkpt lat="43.5993459" lon="11.3835191"><ele>367.0</ele><time>2026-04-08T16:54:05.646Z</time></trkpt><trkpt lat="43.5991982" lon="11.3836315"><ele>367.0</ele><time>2026-04-08T16:54:06.646Z</time></trkpt><trkpt lat="43.5990673" lon="11.383741"><ele>367.0</ele><time>2026-04-08T16:54:07.647Z</time></trkpt><trkpt lat="43.5989378" lon="11.3838513"><ele>367.0</ele><time>2026-04-08T16:54:08.647Z</time></trkpt><trkpt lat="43.5988069" lon="11.3839648"><ele>367.0</ele><time>2026-04-08T16:54:09.646Z</time></trkpt><trkpt lat="43.5986742" lon="11.3840691"><ele>367.0</ele><time>2026-04-08T16:54:10.646Z</time></trkpt><trkpt lat="43.5985406" lon="11.3841633"><ele>367.0</ele><time>2026-04-08T16:54:11.647Z</time></trkpt><trkpt lat="43.598401" lon="11.3842207"><ele>367.0</ele><time>2026-04-08T16:54:12.647Z</time></trkpt><trkpt lat="43.5982569" lon="11.3842823"><ele>367.0</ele><time>2026-04-08T16:54:13.646Z</time></trkpt><trkpt lat="43.5981276" lon="11.3843877"><ele>367.0</ele><time>2026-04-08T16:54:14.646Z</time></trkpt><trkpt lat="43.5980205" lon="11.3845337"><ele>367.0</ele><time>2026-04-08T16:54:15.646Z</time></trkpt><trkpt lat="43.5979126" lon="11.3846794"><ele>365.25</ele><time>2026-04-08T16:54:16.647Z</time></trkpt><trkpt lat="43.5978062" lon="11.3848072"><ele>363.5</ele><time>2026-04-08T16:54:17.646Z</time></trkpt><trkpt lat="43.5976787" lon="11.3848766"><ele>361.75</ele><time>2026-04-08T16:54:18.647Z</time></trkpt><trkpt lat="43.5975315" lon="11.3849053"><ele>360.0</ele><time>2026-04-08T16:54:19.646Z</time></trkpt><trkpt lat="43.5973727" lon="11.3849126"><ele>360.0</ele><time>2026-04-08T16:54:20.646Z</time></trkpt><trkpt lat="43.5972161" lon="11.3849072"><ele>360.0</ele><time>2026-04-08T16:54:21.646Z</time></trkpt><trkpt lat="43.5970691" lon="11.3849046"><ele>360.0</ele><time>2026-04-08T16:54:22.646Z</time></trkpt><trkpt lat="43.5969259" lon="11.3849248"><ele>360.0</ele><time>2026-04-08T16:54:23.647Z</time></trkpt><trkpt lat="43.5967829" lon="11.3849858"><ele>356.3333333333333</ele><time>2026-04-08T16:54:24.647Z</time></trkpt><trkpt lat="43.5966622" lon="11.3851202"><ele>352.66666666666663</ele><time>2026-04-08T16:54:25.646Z</time></trkpt><trkpt lat="43.5965451" lon="11.3852899"><ele>349.0</ele><time>2026-04-08T16:54:26.647Z</time></trkpt><trkpt lat="43.5964281" lon="11.3854611"><ele>350.66666666666663</ele><time>2026-04-08T16:54:27.646Z</time></trkpt><trkpt lat="43.5963149" lon="11.385635"><ele>352.3333333333333</ele><time>2026-04-08T16:54:28.646Z</time></trkpt><trkpt lat="43.596206" lon="11.3858405"><ele>354.0</ele><time>2026-04-08T16:54:29.646Z</time></trkpt><trkpt lat="43.5961095" lon="11.3860781"><ele>350.0</ele><time>2026-04-08T16:54:30.646Z</time></trkpt><trkpt lat="43.596023" lon="11.3863276"><ele>346.0</ele><time>2026-04-08T16:54:31.646Z</time></trkpt><trkpt lat="43.595944" lon="11.3865931"><ele>342.0</ele><time>2026-04-08T16:54:32.646Z</time></trkpt><trkpt lat="43.5958651" lon="11.3868699"><ele>341.6666666666667</ele><time>2026-04-08T16:54:33.647Z</time></trkpt><trkpt lat="43.595792" lon="11.3871485"><ele>341.33333333333337</ele><time>2026-04-08T16:54:34.646Z</time></trkpt><trkpt lat="43.5957146" lon="11.387418"><ele>341.0</ele><time>2026-04-08T16:54:35.647Z</time></trkpt><trkpt lat="43.5956421" lon="11.3876799"><ele>341.0</ele><time>2026-04-08T16:54:36.646Z</time></trkpt><trkpt lat="43.5955789" lon="11.3879337"><ele>341.0</ele><time>2026-04-08T16:54:37.646Z</time></trkpt><trkpt lat="43.5955393" lon="11.3881917"><ele>341.0</ele><time>2026-04-08T16:54:38.647Z</time></trkpt><trkpt lat="43.5955412" lon="11.3884646"><ele>341.0</ele><time>2026-04-08T16:54:39.647Z</time></trkpt><trkpt lat="43.5955861" lon="11.3887517"><ele>341.0</ele><time>2026-04-08T16:54:40.647Z</time></trkpt><trkpt lat="43.5956429" lon="11.3890352"><ele>341.0</ele><time>2026-04-08T16:54:41.646Z</time></trkpt><trkpt lat="43.5957077" lon="11.3893264"><ele>341.0</ele><time>2026-04-08T16:54:42.646Z</time></trkpt><trkpt lat="43.5957961" lon="11.3896153"><ele>341.0</ele><time>2026-04-08T16:54:43.646Z</time></trkpt><trkpt lat="43.5958916" lon="11.3899075"><ele>340.0</ele><time>2026-04-08T16:54:44.646Z</time></trkpt><trkpt lat="43.595987" lon="11.3902076"><ele>339.0</ele><time>2026-04-08T16:54:45.646Z</time></trkpt><trkpt lat="43.5960811" lon="11.3905217"><ele>337.0</ele><time>2026-04-08T16:54:46.647Z</time></trkpt><trkpt lat="43.5961624" lon="11.3908286"><ele>335.0</ele><time>2026-04-08T16:54:47.646Z</time></trkpt><trkpt lat="43.5962465" lon="11.3911285"><ele>339.0</ele><time>2026-04-08T16:54:48.646Z</time></trkpt><trkpt lat="43.5963563" lon="11.3914224"><ele>343.0</ele><time>2026-04-08T16:54:49.646Z</time></trkpt><trkpt lat="43.5964696" lon="11.3917106"><ele>343.0</ele><time>2026-04-08T16:54:50.647Z</time></trkpt><trkpt lat="43.5965801" lon="11.3920062"><ele>343.0</ele><time>2026-04-08T16:54:51.646Z</time></trkpt><trkpt lat="43.5966937" lon="11.3923056"><ele>338.0</ele><time>2026-04-08T16:54:52.646Z</time></trkpt><trkpt lat="43.5968096" lon="11.3926003"><ele>333.0</ele><time>2026-04-08T16:54:53.646Z</time></trkpt><trkpt lat="43.5969211" lon="11.3928786"><ele>332.6666666666667</ele><time>2026-04-08T16:54:54.647Z</time></trkpt><trkpt lat="43.5970429" lon="11.3931273"><ele>332.33333333333337</ele><time>2026-04-08T16:54:55.646Z</time></trkpt><trkpt lat="43.5971841" lon="11.3933406"><ele>332.0</ele><time>2026-04-08T16:54:56.646Z</time></trkpt><trkpt lat="43.5973615" lon="11.3934876"><ele>332.0</ele><time>2026-04-08T16:54:57.647Z</time></trkpt><trkpt lat="43.5975417" lon="11.3936023"><ele>332.0</ele><time>2026-04-08T16:54:58.646Z</time></trkpt><trkpt lat="43.5977178" lon="11.3937186"><ele>332.0</ele><time>2026-04-08T16:54:59.647Z</time></trkpt><trkpt lat="43.5978506" lon="11.3938702"><ele>330.6666666666667</ele><time>2026-04-08T16:55:00.646Z</time></trkpt><trkpt lat="43.5979118" lon="11.3941066"><ele>329.3333333333333</ele><time>2026-04-08T16:55:01.646Z</time></trkpt><trkpt lat="43.597951" lon="11.394347"><ele>328.0</ele><time>2026-04-08T16:55:02.647Z</time></trkpt><trkpt lat="43.5979655" lon="11.3945993"><ele>328.0</ele><time>2026-04-08T16:55:03.646Z</time></trkpt><trkpt lat="43.5979904" lon="11.3948533"><ele>328.0</ele><time>2026-04-08T16:55:04.646Z</time></trkpt><trkpt lat="43.5980349" lon="11.3951073"><ele>328.0</ele><time>2026-04-08T16:55:05.646Z</time></trkpt><trkpt lat="43.5981057" lon="11.3953629"><ele>326.3333333333333</ele><time>2026-04-08T16:55:06.646Z</time></trkpt><trkpt lat="43.5982045" lon="11.3956143"><ele>324.6666666666667</ele><time>2026-04-08T16:55:07.647Z</time></trkpt><trkpt lat="43.5983366" lon="11.3958705"><ele>323.0</ele><time>2026-04-08T16:55:08.646Z</time></trkpt><trkpt lat="43.5984816" lon="11.3961186"><ele>322.0</ele><time>2026-04-08T16:55:09.647Z</time></trkpt><trkpt lat="43.5986228" lon="11.3963667"><ele>321.0</ele><time>2026-04-08T16:55:10.646Z</time></trkpt><trkpt lat="43.598763" lon="11.3966057"><ele>321.6666666666667</ele><time>2026-04-08T16:55:11.647Z</time></trkpt><trkpt lat="43.5989021" lon="11.396823"><ele>322.33333333333337</ele><time>2026-04-08T16:55:12.646Z</time></trkpt><trkpt lat="43.599066" lon="11.3970127"><ele>323.0</ele><time>2026-04-08T16:55:13.646Z</time></trkpt><trkpt lat="43.5992533" lon="11.3971736"><ele>323.0</ele><time>2026-04-08T16:55:14.646Z</time></trkpt><trkpt lat="43.5994517" lon="11.3973333"><ele>323.0</ele><time>2026-04-08T16:55:15.647Z</time></trkpt><trkpt lat="43.5996357" lon="11.3974871"><ele>323.0</ele><time>2026-04-08T16:55:16.647Z</time></trkpt><trkpt lat="43.5998116" lon="11.3976676"><ele>322.6666666666667</ele><time>2026-04-08T16:55:17.646Z</time></trkpt><trkpt lat="43.5999849" lon="11.397861"><ele>322.3333333333333</ele><time>2026-04-08T16:55:18.646Z</time></trkpt><trkpt lat="43.6001536" lon="11.398059"><ele>322.0</ele><time>2026-04-08T16:55:19.647Z</time></trkpt><trkpt lat="43.6003142" lon="11.3982657"><ele>322.3333333333333</ele><time>2026-04-08T16:55:20.647Z</time></trkpt><trkpt lat="43.6004556" lon="11.3984966"><ele>322.6666666666667</ele><time>2026-04-08T16:55:21.646Z</time></trkpt><trkpt lat="43.6005843" lon="11.3987141"><ele>323.0</ele><time>2026-04-08T16:55:22.646Z</time></trkpt><trkpt lat="43.6007004" lon="11.3989484"><ele>323.0</ele><time>2026-04-08T16:55:23.646Z</time></trkpt><trkpt lat="43.6007971" lon="11.3991827"><ele>323.0</ele><time>2026-04-08T16:55:24.646Z</time></trkpt><trkpt lat="43.6008506" lon="11.3994008"><ele>323.0</ele><time>2026-04-08T16:55:25.646Z</time></trkpt><trkpt lat="43.6008806" lon="11.3996448"><ele>321.6666666666667</ele><time>2026-04-08T16:55:26.646Z</time></trkpt><trkpt lat="43.6008675" lon="11.399914"><ele>320.3333333333333</ele><time>2026-04-08T16:55:27.647Z</time></trkpt><trkpt lat="43.6008288" lon="11.4001898"><ele>319.0</ele><time>2026-04-08T16:55:28.647Z</time></trkpt><trkpt lat="43.600793" lon="11.4004845"><ele>318.5</ele><time>2026-04-08T16:55:29.646Z</time></trkpt><trkpt lat="43.6007448" lon="11.400797"><ele>318.0</ele><time>2026-04-08T16:55:30.647Z</time></trkpt><trkpt lat="43.6007015" lon="11.4011062"><ele>319.5</ele><time>2026-04-08T16:55:31.646Z</time></trkpt><trkpt lat="43.6006468" lon="11.4014301"><ele>321.0</ele><time>2026-04-08T16:55:32.647Z</time></trkpt><trkpt lat="43.6005972" lon="11.4017462"><ele>321.0</ele><time>2026-04-08T16:55:33.646Z</time></trkpt><trkpt lat="43.6005508" lon="11.402049"><ele>321.0</ele><time>2026-04-08T16:55:34.646Z</time></trkpt><trkpt lat="43.6004898" lon="11.4023218"><ele>321.0</ele><time>2026-04-08T16:55:35.646Z</time></trkpt><trkpt lat="43.6003972" lon="11.4025299"><ele>321.3333333333333</ele><time>2026-04-08T16:55:36.647Z</time></trkpt><trkpt lat="43.6002563" lon="11.4026952"><ele>321.66666666666663</ele><time>2026-04-08T16:55:37.646Z</time></trkpt><trkpt lat="43.6000961" lon="11.4028385"><ele>322.0</ele><time>2026-04-08T16:55:38.647Z</time></trkpt><trkpt lat="43.5999314" lon="11.4029883"><ele>323.3333333333333</ele><time>2026-04-08T16:55:39.646Z</time></trkpt><trkpt lat="43.5997613" lon="11.4031435"><ele>324.6666666666667</ele><time>2026-04-08T16:55:40.646Z</time></trkpt><trkpt lat="43.5996018" lon="11.403285"><ele>326.0</ele><time>2026-04-08T16:55:41.646Z</time></trkpt><trkpt lat="43.5994576" lon="11.4034172"><ele>323.0</ele><time>2026-04-08T16:55:42.646Z</time></trkpt><trkpt lat="43.5993271" lon="11.4035277"><ele>320.0</ele><time>2026-04-08T16:55:43.646Z</time></trkpt><trkpt lat="43.5992145" lon="11.4036115"><ele>317.0</ele><time>2026-04-08T16:55:44.647Z</time></trkpt><trkpt lat="43.599136" lon="11.4037172"><ele>314.0</ele><time>2026-04-08T16:55:45.646Z</time></trkpt><trkpt lat="43.5990839" lon="11.4038512"><ele>313.0</ele><time>2026-04-08T16:55:46.647Z</time></trkpt><trkpt lat="43.5990884" lon="11.4040087"><ele>312.0</ele><time>2026-04-08T16:55:47.646Z</time></trkpt><trkpt lat="43.5991598" lon="11.4041871"><ele>311.0</ele><time>2026-04-08T16:55:48.646Z</time></trkpt><trkpt lat="43.5992652" lon="11.4043819"><ele>310.0</ele><time>2026-04-08T16:55:49.646Z</time></trkpt><trkpt lat="43.5993637" lon="11.4045626"><ele>311.0</ele><time>2026-04-08T16:55:50.646Z</time></trkpt><trkpt lat="43.5994572" lon="11.4047381"><ele>312.0</ele><time>2026-04-08T16:55:51.646Z</time></trkpt><trkpt lat="43.59956" lon="11.4049262"><ele>313.0</ele><time>2026-04-08T16:55:52.646Z</time></trkpt><trkpt lat="43.5996715" lon="11.4051348"><ele>312.0</ele><time>2026-04-08T16:55:53.646Z</time></trkpt><trkpt lat="43.5997871" lon="11.4053446"><ele>311.0</ele><time>2026-04-08T16:55:54.646Z</time></trkpt><trkpt lat="43.5999279" lon="11.405512"><ele>310.0</ele><time>2026-04-08T16:55:55.646Z</time></trkpt><trkpt lat="43.6000816" lon="11.4056546"><ele>310.0</ele><time>2026-04-08T16:55:56.646Z</time></trkpt><trkpt lat="43.6002588" lon="11.4057762"><ele>310.0</ele><time>2026-04-08T16:55:57.647Z</time></trkpt><trkpt lat="43.6004269" lon="11.4059"><ele>310.0</ele><time>2026-04-08T16:55:58.647Z</time></trkpt><trkpt lat="43.6005816" lon="11.4060457"><ele>311.0</ele><time>2026-04-08T16:55:59.647Z</time></trkpt><trkpt lat="43.6006916" lon="11.4062367"><ele>312.0</ele><time>2026-04-08T16:56:00.646Z</time></trkpt><trkpt lat="43.6007786" lon="11.406459"><ele>313.0</ele><time>2026-04-08T16:56:01.646Z</time></trkpt><trkpt lat="43.6008713" lon="11.4067077"><ele>313.0</ele><time>2026-04-08T16:56:02.646Z</time></trkpt><trkpt lat="43.6009369" lon="11.4069519"><ele>313.0</ele><time>2026-04-08T16:56:03.646Z</time></trkpt><trkpt lat="43.6009963" lon="11.4071899"><ele>313.0</ele><time>2026-04-08T16:56:04.647Z</time></trkpt><trkpt lat="43.6010379" lon="11.4074177"><ele>312.75</ele><time>2026-04-08T16:56:05.647Z</time></trkpt><trkpt lat="43.6010446" lon="11.4076272"><ele>312.5</ele><time>2026-04-08T16:56:06.647Z</time></trkpt><trkpt lat="43.6010211" lon="11.4078168"><ele>312.25</ele><time>2026-04-08T16:56:07.646Z</time></trkpt><trkpt lat="43.6009524" lon="11.4079739"><ele>312.0</ele><time>2026-04-08T16:56:08.647Z</time></trkpt><trkpt lat="43.600832" lon="11.4080847"><ele>312.0</ele><time>2026-04-08T16:56:09.646Z</time></trkpt><trkpt lat="43.6006936" lon="11.4081495"><ele>312.0</ele><time>2026-04-08T16:56:10.646Z</time></trkpt><trkpt lat="43.6005683" lon="11.4081881"><ele>312.0</ele><time>2026-04-08T16:56:11.647Z</time></trkpt><trkpt lat="43.6004684" lon="11.4082569"><ele>312.0</ele><time>2026-04-08T16:56:12.646Z</time></trkpt><trkpt lat="43.600382" lon="11.4083684"><ele>312.0</ele><time>2026-04-08T16:56:13.646Z</time></trkpt><trkpt lat="43.600334" lon="11.4085206"><ele>312.0</ele><time>2026-04-08T16:56:14.646Z</time></trkpt><trkpt lat="43.6003306" lon="11.4086978"><ele>312.0</ele><time>2026-04-08T16:56:15.646Z</time></trkpt><trkpt lat="43.6003847" lon="11.4089095"><ele>312.0</ele><time>2026-04-08T16:56:16.647Z</time></trkpt><trkpt lat="43.6004821" lon="11.4091595"><ele>311.3333333333333</ele><time>2026-04-08T16:56:17.646Z</time></trkpt><trkpt lat="43.6005867" lon="11.4093883"><ele>310.66666666666663</ele><time>2026-04-08T16:56:18.647Z</time></trkpt><trkpt lat="43.600682" lon="11.4096131"><ele>310.0</ele><time>2026-04-08T16:56:19.646Z</time></trkpt><trkpt lat="43.6007461" lon="11.409827"><ele>310.0</ele><time>2026-04-08T16:56:20.647Z</time></trkpt><trkpt lat="43.6007712" lon="11.4100871"><ele>310.0</ele><time>2026-04-08T16:56:21.646Z</time></trkpt><trkpt lat="43.6007474" lon="11.4103868"><ele>310.0</ele><time>2026-04-08T16:56:22.646Z</time></trkpt><trkpt lat="43.6006919" lon="11.4106716"><ele>308.66666666666663</ele><time>2026-04-08T16:56:23.646Z</time></trkpt><trkpt lat="43.6006346" lon="11.4109159"><ele>307.3333333333333</ele><time>2026-04-08T16:56:24.646Z</time></trkpt><trkpt lat="43.600562" lon="11.4111103"><ele>306.0</ele><time>2026-04-08T16:56:25.646Z</time></trkpt><trkpt lat="43.6005012" lon="11.4112833"><ele>304.0</ele><time>2026-04-08T16:56:26.646Z</time></trkpt><trkpt lat="43.6004774" lon="11.4114617"><ele>302.0</ele><time>2026-04-08T16:56:27.646Z</time></trkpt><trkpt lat="43.6004793" lon="11.411644"><ele>300.0</ele><time>2026-04-08T16:56:28.647Z</time></trkpt><trkpt lat="43.6005055" lon="11.4117999"><ele>298.0</ele><time>2026-04-08T16:56:29.647Z</time></trkpt><trkpt lat="43.600556" lon="11.4119301"><ele>298.0</ele><time>2026-04-08T16:56:30.647Z</time></trkpt><trkpt lat="43.6006338" lon="11.4120365"><ele>298.0</ele><time>2026-04-08T16:56:31.647Z</time></trkpt><trkpt lat="43.6007241" lon="11.4120818"><ele>298.0</ele><time>2026-04-08T16:56:32.646Z</time></trkpt><trkpt lat="43.6008092" lon="11.4120848"><ele>298.0</ele><time>2026-04-08T16:56:33.646Z</time></trkpt><trkpt lat="43.6009184" lon="11.4120331"><ele>298.0</ele><time>2026-04-08T16:56:34.646Z</time></trkpt><trkpt lat="43.6010361" lon="11.411944"><ele>298.0</ele><time>2026-04-08T16:56:35.646Z</time></trkpt><trkpt lat="43.6011371" lon="11.4118829"><ele>298.0</ele><time>2026-04-08T16:56:36.646Z</time></trkpt><trkpt lat="43.6012228" lon="11.4118386"><ele>298.0</ele><time>2026-04-08T16:56:37.646Z</time></trkpt><trkpt lat="43.6012943" lon="11.4118492"><ele>298.0</ele><time>2026-04-08T16:56:38.647Z</time></trkpt><trkpt lat="43.6013712" lon="11.4119167"><ele>298.0</ele><time>2026-04-08T16:56:39.647Z</time></trkpt><trkpt lat="43.6014041" lon="11.4120374"><ele>297.75</ele><time>2026-04-08T16:56:40.647Z</time></trkpt><trkpt lat="43.6014134" lon="11.4122327"><ele>297.5</ele><time>2026-04-08T16:56:41.647Z</time></trkpt><trkpt lat="43.6013926" lon="11.4124085"><ele>297.25</ele><time>2026-04-08T16:56:42.646Z</time></trkpt><trkpt lat="43.6013795" lon="11.4125746"><ele>297.0</ele><time>2026-04-08T16:56:43.646Z</time></trkpt><trkpt lat="43.6013775" lon="11.4127225"><ele>297.0</ele><time>2026-04-08T16:56:44.646Z</time></trkpt><trkpt lat="43.6014187" lon="11.4128296"><ele>297.0</ele><time>2026-04-08T16:56:45.646Z</time></trkpt><trkpt lat="43.6014906" lon="11.4128495"><ele>297.0</ele><time>2026-04-08T16:56:46.646Z</time></trkpt><trkpt lat="43.6016074" lon="11.4128323"><ele>297.0</ele><time>2026-04-08T16:56:47.647Z</time></trkpt><trkpt lat="43.6017286" lon="11.4128414"><ele>297.0</ele><time>2026-04-08T16:56:48.646Z</time></trkpt><trkpt lat="43.6018421" lon="11.4129057"><ele>296.5</ele><time>2026-04-08T16:56:49.647Z</time></trkpt><trkpt lat="43.6019144" lon="11.4130563"><ele>296.0</ele><time>2026-04-08T16:56:50.646Z</time></trkpt><trkpt lat="43.6019471" lon="11.4132366"><ele>295.5</ele><time>2026-04-08T16:56:51.646Z</time></trkpt><trkpt lat="43.6019329" lon="11.4134465"><ele>295.0</ele><time>2026-04-08T16:56:52.646Z</time></trkpt><trkpt lat="43.6019031" lon="11.4136705"><ele>296.3333333333333</ele><time>2026-04-08T16:56:53.646Z</time></trkpt><trkpt lat="43.6019111" lon="11.413934"><ele>297.6666666666667</ele><time>2026-04-08T16:56:54.646Z</time></trkpt><trkpt lat="43.6019601" lon="11.4142102"><ele>299.0</ele><time>2026-04-08T16:56:55.647Z</time></trkpt><trkpt lat="43.6020029" lon="11.4145069"><ele>301.0</ele><time>2026-04-08T16:56:56.646Z</time></trkpt><trkpt lat="43.6020051" lon="11.4147994"><ele>303.0</ele><time>2026-04-08T16:56:57.646Z</time></trkpt><trkpt lat="43.6019843" lon="11.4150823"><ele>305.0</ele><time>2026-04-08T16:56:58.646Z</time></trkpt><trkpt lat="43.6019597" lon="11.4153474"><ele>305.6666666666667</ele><time>2026-04-08T16:56:59.646Z</time></trkpt><trkpt lat="43.6019365" lon="11.4156051"><ele>306.3333333333333</ele><time>2026-04-08T16:57:00.647Z</time></trkpt><trkpt lat="43.6019101" lon="11.41584"><ele>307.0</ele><time>2026-04-08T16:57:01.646Z</time></trkpt><trkpt lat="43.6018866" lon="11.4160502"><ele>307.0</ele><time>2026-04-08T16:57:02.646Z</time></trkpt><trkpt lat="43.6018619" lon="11.4162306"><ele>307.0</ele><time>2026-04-08T16:57:03.647Z</time></trkpt><trkpt lat="43.6018493" lon="11.4163921"><ele>307.0</ele><time>2026-04-08T16:57:04.646Z</time></trkpt><trkpt lat="43.6018341" lon="11.4165417"><ele>307.0</ele><time>2026-04-08T16:57:05.647Z</time></trkpt><trkpt lat="43.6018169" lon="11.416687"><ele>306.8</ele><time>2026-04-08T16:57:06.646Z</time></trkpt><trkpt lat="43.6017997" lon="11.4168364"><ele>306.6</ele><time>2026-04-08T16:57:07.646Z</time></trkpt><trkpt lat="43.6017988" lon="11.4169797"><ele>306.40000000000003</ele><time>2026-04-08T16:57:08.647Z</time></trkpt><trkpt lat="43.6018129" lon="11.4171115"><ele>306.2</ele><time>2026-04-08T16:57:09.647Z</time></trkpt><trkpt lat="43.6018504" lon="11.4172204"><ele>306.0</ele><time>2026-04-08T16:57:10.647Z</time></trkpt><trkpt lat="43.6019117" lon="11.4173066"><ele>305.6666666666667</ele><time>2026-04-08T16:57:11.646Z</time></trkpt><trkpt lat="43.6019861" lon="11.417361"><ele>305.3333333333333</ele><time>2026-04-08T16:57:12.646Z</time></trkpt><trkpt lat="43.6020392" lon="11.4174179"><ele>305.0</ele><time>2026-04-08T16:57:13.646Z</time></trkpt><trkpt lat="43.6020818" lon="11.4175057"><ele>304.66666666666663</ele><time>2026-04-08T16:57:15.646Z</time></trkpt><trkpt lat="43.6020424" lon="11.417592"><ele>304.3333333333333</ele><time>2026-04-08T16:57:18.646Z</time></trkpt><trkpt lat="43.6020117" lon="11.4176959"><ele>304.0</ele><time>2026-04-08T16:57:21.646Z</time></trkpt><trkpt lat="43.6019839" lon="11.4178117"><ele>304.16666666666663</ele><time>2026-04-08T16:57:24.646Z</time></trkpt><trkpt lat="43.6019494" lon="11.4178865"><ele>304.3333333333333</ele><time>2026-04-08T16:57:27.646Z</time></trkpt><trkpt lat="43.6019244" lon="11.4179691"><ele>304.5</ele><time>2026-04-08T16:57:30.647Z</time></trkpt><trkpt lat="43.6018946" lon="11.4180479"><ele>304.6666666666667</ele><time>2026-04-08T16:57:33.646Z</time></trkpt><trkpt lat="43.6018496" lon="11.4181494"><ele>304.83333333333337</ele><time>2026-04-08T16:57:36.646Z</time></trkpt><trkpt lat="43.6017934" lon="11.418232"><ele>305.0</ele><time>2026-04-08T16:57:39.646Z</time></trkpt><trkpt lat="43.6017319" lon="11.4183334"><ele>305.0</ele><time>2026-04-08T16:57:42.647Z</time></trkpt><trkpt lat="43.6016829" lon="11.4184083"><ele>305.0</ele><time>2026-04-08T16:57:44.646Z</time></trkpt><trkpt lat="43.6016195" lon="11.4184961"><ele>305.0</ele><time>2026-04-08T16:57:46.646Z</time></trkpt><trkpt lat="43.6015677" lon="11.4185691"><ele>305.0</ele><time>2026-04-08T16:57:48.646Z</time></trkpt><trkpt lat="43.6015149" lon="11.4186654"><ele>305.0</ele><time>2026-04-08T16:57:50.647Z</time></trkpt><trkpt lat="43.6014821" lon="11.4187405"><ele>305.0</ele><time>2026-04-08T16:57:51.646Z</time></trkpt><trkpt lat="43.6014355" lon="11.4188271"><ele>305.33333333333337</ele><time>2026-04-08T16:57:52.646Z</time></trkpt><trkpt lat="43.6013919" lon="11.4189432"><ele>305.6666666666667</ele><time>2026-04-08T16:57:53.647Z</time></trkpt><trkpt lat="43.601349" lon="11.4190475"><ele>306.0</ele><time>2026-04-08T16:57:54.646Z</time></trkpt><trkpt lat="43.6013091" lon="11.4191461"><ele>306.3333333333333</ele><time>2026-04-08T16:57:55.647Z</time></trkpt><trkpt lat="43.601277" lon="11.4192408"><ele>306.66666666666663</ele><time>2026-04-08T16:57:56.646Z</time></trkpt><trkpt lat="43.6012502" lon="11.419332"><ele>307.0</ele><time>2026-04-08T16:57:57.646Z</time></trkpt><trkpt lat="43.6012236" lon="11.4194263"><ele>307.0</ele><time>2026-04-08T16:57:58.646Z</time></trkpt><trkpt lat="43.6011891" lon="11.419502"><ele>307.0</ele><time>2026-04-08T16:57:59.647Z</time></trkpt><trkpt lat="43.6011268" lon="11.4195541"><ele>307.0</ele><time>2026-04-08T16:58:00.647Z</time></trkpt><trkpt lat="43.6010438" lon="11.4195655"><ele>307.0</ele><time>2026-04-08T16:58:01.646Z</time></trkpt><trkpt lat="43.6009493" lon="11.4195607"><ele>307.0</ele><time>2026-04-08T16:58:02.646Z</time></trkpt><trkpt lat="43.6008588" lon="11.4195466"><ele>307.0</ele><time>2026-04-08T16:58:03.647Z</time></trkpt><trkpt lat="43.6007728" lon="11.4195187"><ele>306.0</ele><time>2026-04-08T16:58:04.647Z</time></trkpt><trkpt lat="43.6006917" lon="11.4194864"><ele>305.0</ele><time>2026-04-08T16:58:05.647Z</time></trkpt><trkpt lat="43.6006192" lon="11.4194529"><ele>304.0</ele><time>2026-04-08T16:58:06.646Z</time></trkpt><trkpt lat="43.6005097" lon="11.4195069"><ele>303.0</ele><time>2026-04-08T16:58:08.646Z</time></trkpt><trkpt lat="43.6004747" lon="11.4195979"><ele>302.0</ele><time>2026-04-08T16:58:09.646Z</time></trkpt><trkpt lat="43.6004513" lon="11.4196847"><ele>301.0</ele><time>2026-04-08T16:58:10.647Z</time></trkpt><trkpt lat="43.6004369" lon="11.419779"><ele>301.0</ele><time>2026-04-08T17:01:02.646Z</time></trkpt><trkpt lat="43.6004018" lon="11.4199447"><ele>301.0</ele><time>2026-04-08T17:01:04.646Z</time></trkpt><trkpt lat="43.600371" lon="11.4200644"><ele>301.0</ele><time>2026-04-08T17:01:05.646Z</time></trkpt><trkpt lat="43.6003355" lon="11.4201772"><ele>301.0</ele><time>2026-04-08T17:01:06.646Z</time></trkpt><trkpt lat="43.6003074" lon="11.4203042"><ele>301.0</ele><time>2026-04-08T17:01:07.647Z</time></trkpt><trkpt lat="43.6002767" lon="11.4204531"><ele>299.2</ele><time>2026-04-08T17:01:08.646Z</time></trkpt><trkpt lat="43.6002389" lon="11.4206022"><ele>297.40000000000003</ele><time>2026-04-08T17:01:09.647Z</time></trkpt><trkpt lat="43.6002009" lon="11.4207488"><ele>295.6</ele><time>2026-04-08T17:01:10.646Z</time></trkpt><trkpt lat="43.6001689" lon="11.420898"><ele>293.8</ele><time>2026-04-08T17:01:11.647Z</time></trkpt><trkpt lat="43.6001371" lon="11.4210373"><ele>292.0</ele><time>2026-04-08T17:01:12.646Z</time></trkpt><trkpt lat="43.6000955" lon="11.4211794"><ele>291.75</ele><time>2026-04-08T17:01:13.647Z</time></trkpt><trkpt lat="43.6000615" lon="11.4213187"><ele>291.5</ele><time>2026-04-08T17:01:14.646Z</time></trkpt><trkpt lat="43.6000292" lon="11.4214573"><ele>291.25</ele><time>2026-04-08T17:01:15.646Z</time></trkpt><trkpt lat="43.59999" lon="11.4216132"><ele>291.0</ele><time>2026-04-08T17:01:16.646Z</time></trkpt><trkpt lat="43.599947" lon="11.4217808"><ele>291.0</ele><time>2026-04-08T17:01:17.647Z</time></trkpt><trkpt lat="43.5999045" lon="11.4219528"><ele>291.0</ele><time>2026-04-08T17:01:18.646Z</time></trkpt><trkpt lat="43.5998655" lon="11.4221215"><ele>291.0</ele><time>2026-04-08T17:01:19.647Z</time></trkpt><trkpt lat="43.5998221" lon="11.4223033"><ele>291.0</ele><time>2026-04-08T17:01:20.646Z</time></trkpt><trkpt lat="43.5997764" lon="11.4224862"><ele>290.5</ele><time>2026-04-08T17:01:21.646Z</time></trkpt><trkpt lat="43.5997293" lon="11.4226714"><ele>290.0</ele><time>2026-04-08T17:01:22.646Z</time></trkpt><trkpt lat="43.5996789" lon="11.422854"><ele>289.5</ele><time>2026-04-08T17:01:23.647Z</time></trkpt><trkpt lat="43.5996325" lon="11.4230239"><ele>289.0</ele><time>2026-04-08T17:01:24.647Z</time></trkpt><trkpt lat="43.5995906" lon="11.4231864"><ele>288.8</ele><time>2026-04-08T17:01:25.647Z</time></trkpt><trkpt lat="43.599544" lon="11.4233434"><ele>288.59999999999997</ele><time>2026-04-08T17:01:26.647Z</time></trkpt><trkpt lat="43.5995034" lon="11.4234945"><ele>288.4</ele><time>2026-04-08T17:01:27.646Z</time></trkpt><trkpt lat="43.5994709" lon="11.4236324"><ele>288.2</ele><time>2026-04-08T17:01:28.646Z</time></trkpt><trkpt lat="43.5994395" lon="11.4237646"><ele>288.0</ele><time>2026-04-08T17:01:29.647Z</time></trkpt><trkpt lat="43.5994152" lon="11.4239066"><ele>287.75</ele><time>2026-04-08T17:01:30.646Z</time></trkpt><trkpt lat="43.5994079" lon="11.424062"><ele>287.5</ele><time>2026-04-08T17:01:31.646Z</time></trkpt><trkpt lat="43.5994124" lon="11.4242365"><ele>287.25</ele><time>2026-04-08T17:01:32.646Z</time></trkpt><trkpt lat="43.5994299" lon="11.4244184"><ele>287.0</ele><time>2026-04-08T17:01:33.646Z</time></trkpt><trkpt lat="43.599444" lon="11.4246048"><ele>285.5</ele><time>2026-04-08T17:01:34.647Z</time></trkpt><trkpt lat="43.5994601" lon="11.4247934"><ele>284.0</ele><time>2026-04-08T17:01:35.646Z</time></trkpt><trkpt lat="43.5994758" lon="11.4249889"><ele>282.5</ele><time>2026-04-08T17:01:36.646Z</time></trkpt><trkpt lat="43.5994887" lon="11.4251923"><ele>281.0</ele><time>2026-04-08T17:01:37.647Z</time></trkpt><trkpt lat="43.599492" lon="11.425392"><ele>280.75</ele><time>2026-04-08T17:01:38.646Z</time></trkpt><trkpt lat="43.5994836" lon="11.4255921"><ele>280.5</ele><time>2026-04-08T17:01:39.646Z</time></trkpt><trkpt lat="43.5994614" lon="11.4257815"><ele>280.25</ele><time>2026-04-08T17:01:40.647Z</time></trkpt><trkpt lat="43.5994348" lon="11.4259634"><ele>280.0</ele><time>2026-04-08T17:01:41.646Z</time></trkpt><trkpt lat="43.5994019" lon="11.4261451"><ele>281.0</ele><time>2026-04-08T17:01:42.647Z</time></trkpt><trkpt lat="43.5993694" lon="11.42633"><ele>282.0</ele><time>2026-04-08T17:01:43.647Z</time></trkpt><trkpt lat="43.599335" lon="11.4265049"><ele>283.0</ele><time>2026-04-08T17:01:44.646Z</time></trkpt><trkpt lat="43.5993047" lon="11.4266781"><ele>284.0</ele><time>2026-04-08T17:01:45.647Z</time></trkpt><trkpt lat="43.5992834" lon="11.4268556"><ele>284.0</ele><time>2026-04-08T17:01:46.646Z</time></trkpt><trkpt lat="43.5992629" lon="11.4270334"><ele>284.0</ele><time>2026-04-08T17:01:47.647Z</time></trkpt><trkpt lat="43.5992558" lon="11.4272124"><ele>284.0</ele><time>2026-04-08T17:01:48.646Z</time></trkpt><trkpt lat="43.5992572" lon="11.4273931"><ele>284.0</ele><time>2026-04-08T17:01:49.646Z</time></trkpt><trkpt lat="43.5992624" lon="11.4275809"><ele>284.5</ele><time>2026-04-08T17:01:50.646Z</time></trkpt><trkpt lat="43.5992769" lon="11.4277673"><ele>285.0</ele><time>2026-04-08T17:01:51.646Z</time></trkpt><trkpt lat="43.599299" lon="11.4279525"><ele>285.5</ele><time>2026-04-08T17:01:52.646Z</time></trkpt><trkpt lat="43.5993103" lon="11.4281361"><ele>286.0</ele><time>2026-04-08T17:01:53.647Z</time></trkpt><trkpt lat="43.5993195" lon="11.4283199"><ele>286.5</ele><time>2026-04-08T17:01:54.647Z</time></trkpt><trkpt lat="43.5993251" lon="11.4285101"><ele>287.0</ele><time>2026-04-08T17:01:55.646Z</time></trkpt><trkpt lat="43.5993262" lon="11.4287039"><ele>287.5</ele><time>2026-04-08T17:01:56.646Z</time></trkpt><trkpt lat="43.5993147" lon="11.4288904"><ele>288.0</ele><time>2026-04-08T17:01:57.646Z</time></trkpt><trkpt lat="43.5992858" lon="11.4290725"><ele>288.25</ele><time>2026-04-08T17:01:58.646Z</time></trkpt><trkpt lat="43.5992412" lon="11.429253"><ele>288.5</ele><time>2026-04-08T17:01:59.646Z</time></trkpt><trkpt lat="43.5991951" lon="11.4294253"><ele>288.75</ele><time>2026-04-08T17:02:00.646Z</time></trkpt><trkpt lat="43.5991454" lon="11.4296036"><ele>289.0</ele><time>2026-04-08T17:02:01.646Z</time></trkpt><trkpt lat="43.5990968" lon="11.4297815"><ele>289.25</ele><time>2026-04-08T17:02:02.647Z</time></trkpt><trkpt lat="43.5990469" lon="11.4299546"><ele>289.5</ele><time>2026-04-08T17:02:03.647Z</time></trkpt><trkpt lat="43.598999" lon="11.4301211"><ele>289.75</ele><time>2026-04-08T17:02:04.646Z</time></trkpt><trkpt lat="43.5989533" lon="11.4302776"><ele>290.0</ele><time>2026-04-08T17:02:05.647Z</time></trkpt><trkpt lat="43.5989076" lon="11.4304335"><ele>289.75</ele><time>2026-04-08T17:02:06.646Z</time></trkpt><trkpt lat="43.5988589" lon="11.4305977"><ele>289.5</ele><time>2026-04-08T17:02:07.647Z</time></trkpt><trkpt lat="43.5988112" lon="11.4307624"><ele>289.25</ele><time>2026-04-08T17:02:08.646Z</time></trkpt><trkpt lat="43.5987698" lon="11.4309341"><ele>289.0</ele><time>2026-04-08T17:02:09.647Z</time></trkpt><trkpt lat="43.5987308" lon="11.4310981"><ele>289.0</ele><time>2026-04-08T17:02:10.647Z</time></trkpt><trkpt lat="43.5986921" lon="11.4312566"><ele>289.0</ele><time>2026-04-08T17:02:11.647Z</time></trkpt><trkpt lat="43.5986657" lon="11.4314195"><ele>289.0</ele><time>2026-04-08T17:02:12.646Z</time></trkpt><trkpt lat="43.5986395" lon="11.4315866"><ele>289.0</ele><time>2026-04-08T17:02:13.646Z</time></trkpt><trkpt lat="43.5986174" lon="11.4317599"><ele>286.75</ele><time>2026-04-08T17:02:14.646Z</time></trkpt><trkpt lat="43.598589" lon="11.4319217"><ele>284.5</ele><time>2026-04-08T17:02:15.646Z</time></trkpt><trkpt lat="43.5985604" lon="11.4320906"><ele>282.25</ele><time>2026-04-08T17:02:16.647Z</time></trkpt><trkpt lat="43.598529" lon="11.4322656"><ele>280.0</ele><time>2026-04-08T17:02:17.647Z</time></trkpt><trkpt lat="43.5984981" lon="11.4324538"><ele>280.0</ele><time>2026-04-08T17:02:18.647Z</time></trkpt><trkpt lat="43.598466" lon="11.4326321"><ele>280.0</ele><time>2026-04-08T17:02:19.646Z</time></trkpt><trkpt lat="43.5984375" lon="11.4327997"><ele>280.0</ele><time>2026-04-08T17:02:20.646Z</time></trkpt><trkpt lat="43.5984071" lon="11.4329615"><ele>280.0</ele><time>2026-04-08T17:02:21.646Z</time></trkpt><trkpt lat="43.5983732" lon="11.4331095"><ele>279.8</ele><time>2026-04-08T17:02:22.647Z</time></trkpt><trkpt lat="43.5983391" lon="11.4332442"><ele>279.6</ele><time>2026-04-08T17:02:23.647Z</time></trkpt><trkpt lat="43.5983103" lon="11.4333673"><ele>279.4</ele><time>2026-04-08T17:02:24.646Z</time></trkpt><trkpt lat="43.5982826" lon="11.4334924"><ele>279.2</ele><time>2026-04-08T17:02:25.646Z</time></trkpt><trkpt lat="43.5982606" lon="11.4336219"><ele>279.0</ele><time>2026-04-08T17:02:26.647Z</time></trkpt><trkpt lat="43.5982333" lon="11.4337585"><ele>279.59999999999997</ele><time>2026-04-08T17:02:27.646Z</time></trkpt><trkpt lat="43.5982095" lon="11.4338948"><ele>280.2</ele><time>2026-04-08T17:02:28.647Z</time></trkpt><trkpt lat="43.5981885" lon="11.4340413"><ele>280.79999999999995</ele><time>2026-04-08T17:02:29.646Z</time></trkpt><trkpt lat="43.598172" lon="11.4341906"><ele>281.4</ele><time>2026-04-08T17:02:30.646Z</time></trkpt><trkpt lat="43.5981463" lon="11.4343339"><ele>282.0</ele><time>2026-04-08T17:02:31.647Z</time></trkpt><trkpt lat="43.5981191" lon="11.4344662"><ele>282.0</ele><time>2026-04-08T17:02:32.646Z</time></trkpt><trkpt lat="43.5980959" lon="11.4346021"><ele>282.0</ele><time>2026-04-08T17:02:33.646Z</time></trkpt><trkpt lat="43.5980701" lon="11.4347302"><ele>282.0</ele><time>2026-04-08T17:02:34.646Z</time></trkpt><trkpt lat="43.5980434" lon="11.4348611"><ele>282.0</ele><time>2026-04-08T17:02:35.646Z</time></trkpt><trkpt lat="43.5980233" lon="11.4349927"><ele>282.0</ele><time>2026-04-08T17:02:36.646Z</time></trkpt><trkpt lat="43.5980012" lon="11.4351215"><ele>282.0</ele><time>2026-04-08T17:02:37.646Z</time></trkpt><trkpt lat="43.5979795" lon="11.4352548"><ele>282.0</ele><time>2026-04-08T17:02:38.647Z</time></trkpt><trkpt lat="43.5979586" lon="11.4353969"><ele>282.0</ele><time>2026-04-08T17:02:39.646Z</time></trkpt><trkpt lat="43.5979394" lon="11.435552"><ele>282.0</ele><time>2026-04-08T17:02:40.647Z</time></trkpt><trkpt lat="43.5979167" lon="11.4357303"><ele>282.0</ele><time>2026-04-08T17:02:41.646Z</time></trkpt><trkpt lat="43.5978898" lon="11.4359148"><ele>282.0</ele><time>2026-04-08T17:02:42.647Z</time></trkpt><trkpt lat="43.5978739" lon="11.4360987"><ele>282.0</ele><time>2026-04-08T17:02:43.647Z</time></trkpt><trkpt lat="43.5978643" lon="11.4362864"><ele>282.0</ele><time>2026-04-08T17:02:44.647Z</time></trkpt><trkpt lat="43.5978603" lon="11.4364835"><ele>282.0</ele><time>2026-04-08T17:02:45.647Z</time></trkpt><trkpt lat="43.5978606" lon="11.4366785"><ele>282.0</ele><time>2026-04-08T17:02:46.647Z</time></trkpt><trkpt lat="43.5978592" lon="11.4368711"><ele>282.0</ele><time>2026-04-08T17:02:47.646Z</time></trkpt><trkpt lat="43.5978619" lon="11.4370584"><ele>282.0</ele><time>2026-04-08T17:02:48.646Z</time></trkpt><trkpt lat="43.5978678" lon="11.4372443"><ele>282.0</ele><time>2026-04-08T17:02:49.646Z</time></trkpt><trkpt lat="43.597867" lon="11.4374261"><ele>282.25</ele><time>2026-04-08T17:02:50.646Z</time></trkpt><trkpt lat="43.5978558" lon="11.437596"><ele>282.5</ele><time>2026-04-08T17:02:51.646Z</time></trkpt><trkpt lat="43.5978396" lon="11.4377556"><ele>282.75</ele><time>2026-04-08T17:02:52.646Z</time></trkpt><trkpt lat="43.5978234" lon="11.4378965"><ele>283.0</ele><time>2026-04-08T17:02:53.646Z</time></trkpt><trkpt lat="43.597806" lon="11.4380467"><ele>282.2</ele><time>2026-04-08T17:02:54.646Z</time></trkpt><trkpt lat="43.5977795" lon="11.4382011"><ele>281.4</ele><time>2026-04-08T17:02:55.647Z</time></trkpt><trkpt lat="43.5977554" lon="11.4383601"><ele>280.59999999999997</ele><time>2026-04-08T17:02:56.646Z</time></trkpt><trkpt lat="43.5977323" lon="11.4385113"><ele>279.8</ele><time>2026-04-08T17:02:57.646Z</time></trkpt><trkpt lat="43.5977081" lon="11.4386485"><ele>279.0</ele><time>2026-04-08T17:02:58.647Z</time></trkpt><trkpt lat="43.5976858" lon="11.4387895"><ele>278.59999999999997</ele><time>2026-04-08T17:02:59.646Z</time></trkpt><trkpt lat="43.5976615" lon="11.4389293"><ele>278.2</ele><time>2026-04-08T17:03:00.647Z</time></trkpt><trkpt lat="43.5976424" lon="11.4390714"><ele>277.79999999999995</ele><time>2026-04-08T17:03:01.647Z</time></trkpt><trkpt lat="43.5976218" lon="11.4392138"><ele>277.4</ele><time>2026-04-08T17:03:02.646Z</time></trkpt><trkpt lat="43.5976002" lon="11.4393481"><ele>277.0</ele><time>2026-04-08T17:03:03.647Z</time></trkpt><trkpt lat="43.5975766" lon="11.4394748"><ele>277.0</ele><time>2026-04-08T17:03:04.647Z</time></trkpt><trkpt lat="43.5975548" lon="11.4396051"><ele>277.0</ele><time>2026-04-08T17:03:05.646Z</time></trkpt><trkpt lat="43.5975293" lon="11.4397464"><ele>277.0</ele><time>2026-04-08T17:03:06.646Z</time></trkpt><trkpt lat="43.5975081" lon="11.4398862"><ele>277.0</ele><time>2026-04-08T17:03:07.646Z</time></trkpt><trkpt lat="43.5974874" lon="11.4400149"><ele>277.0</ele><time>2026-04-08T17:03:08.647Z</time></trkpt><trkpt lat="43.5974645" lon="11.4401382"><ele>276.4</ele><time>2026-04-08T17:03:09.646Z</time></trkpt><trkpt lat="43.5974477" lon="11.4402668"><ele>275.79999999999995</ele><time>2026-04-08T17:03:10.647Z</time></trkpt><trkpt lat="43.5974353" lon="11.4404088"><ele>275.2</ele><time>2026-04-08T17:03:11.646Z</time></trkpt><trkpt lat="43.5974191" lon="11.4405408"><ele>274.59999999999997</ele><time>2026-04-08T17:03:12.646Z</time></trkpt><trkpt lat="43.5973927" lon="11.4406832"><ele>274.0</ele><time>2026-04-08T17:03:13.647Z</time></trkpt><trkpt lat="43.5973722" lon="11.4408161"><ele>274.0</ele><time>2026-04-08T17:03:14.646Z</time></trkpt><trkpt lat="43.5973528" lon="11.4409553"><ele>274.0</ele><time>2026-04-08T17:03:15.646Z</time></trkpt><trkpt lat="43.5973304" lon="11.4410993"><ele>274.0</ele><time>2026-04-08T17:03:16.646Z</time></trkpt><trkpt lat="43.5973075" lon="11.4412242"><ele>274.0</ele><time>2026-04-08T17:03:17.646Z</time></trkpt><trkpt lat="43.5972842" lon="11.4413432"><ele>274.0</ele><time>2026-04-08T17:03:18.646Z</time></trkpt><trkpt lat="43.5972653" lon="11.4414607"><ele>274.0</ele><time>2026-04-08T17:03:19.646Z</time></trkpt><trkpt lat="43.5972555" lon="11.4415759"><ele>274.0</ele><time>2026-04-08T17:03:20.646Z</time></trkpt><trkpt lat="43.5972638" lon="11.4417013"><ele>274.0</ele><time>2026-04-08T17:03:21.646Z</time></trkpt><trkpt lat="43.5972855" lon="11.4418257"><ele>274.0</ele><time>2026-04-08T17:03:22.647Z</time></trkpt><trkpt lat="43.5973054" lon="11.4419416"><ele>274.0</ele><time>2026-04-08T17:03:23.646Z</time></trkpt><trkpt lat="43.597325" lon="11.4420566"><ele>274.0</ele><time>2026-04-08T17:03:24.646Z</time></trkpt><trkpt lat="43.5973395" lon="11.4421657"><ele>273.5</ele><time>2026-04-08T17:03:25.646Z</time></trkpt><trkpt lat="43.5973543" lon="11.4422726"><ele>273.0</ele><time>2026-04-08T17:03:26.646Z</time></trkpt><trkpt lat="43.5973694" lon="11.4423741"><ele>272.5</ele><time>2026-04-08T17:03:27.646Z</time></trkpt><trkpt lat="43.597383" lon="11.4424672"><ele>272.0</ele><time>2026-04-08T17:03:28.646Z</time></trkpt><trkpt lat="43.5973937" lon="11.4425599"><ele>271.5</ele><time>2026-04-08T17:03:29.646Z</time></trkpt><trkpt lat="43.5974072" lon="11.4426503"><ele>271.0</ele><time>2026-04-08T17:03:30.646Z</time></trkpt><trkpt lat="43.5974256" lon="11.4427843"><ele>271.0</ele><time>2026-04-08T17:03:32.646Z</time></trkpt><trkpt lat="43.5974354" lon="11.4428811"><ele>271.0</ele><time>2026-04-08T17:03:34.647Z</time></trkpt><trkpt lat="43.5974737" lon="11.4429573"><ele>271.0</ele><time>2026-04-08T17:03:38.646Z</time></trkpt><trkpt lat="43.5975581" lon="11.4430485"><ele>271.0</ele><time>2026-04-08T17:03:41.647Z</time></trkpt><trkpt lat="43.5976749" lon="11.4431021"><ele>271.0</ele><time>2026-04-08T17:03:43.646Z</time></trkpt><trkpt lat="43.5977533" lon="11.4431359"><ele>271.2</ele><time>2026-04-08T17:03:44.647Z</time></trkpt><trkpt lat="43.5978478" lon="11.4431712"><ele>271.40000000000003</ele><time>2026-04-08T17:03:45.646Z</time></trkpt><trkpt lat="43.5979536" lon="11.4432155"><ele>271.6</ele><time>2026-04-08T17:03:46.646Z</time></trkpt><trkpt lat="43.5980581" lon="11.4432729"><ele>271.8</ele><time>2026-04-08T17:03:47.646Z</time></trkpt><trkpt lat="43.5981592" lon="11.4433215"><ele>272.0</ele><time>2026-04-08T17:03:48.646Z</time></trkpt><trkpt lat="43.5982639" lon="11.4433635"><ele>272.0</ele><time>2026-04-08T17:03:49.646Z</time></trkpt><trkpt lat="43.5983727" lon="11.4433847"><ele>272.0</ele><time>2026-04-08T17:03:50.647Z</time></trkpt><trkpt lat="43.5984868" lon="11.4433867"><ele>272.0</ele><time>2026-04-08T17:03:51.646Z</time></trkpt><trkpt lat="43.5986027" lon="11.4433538"><ele>272.0</ele><time>2026-04-08T17:03:52.646Z</time></trkpt><trkpt lat="43.598727" lon="11.4433"><ele>272.0</ele><time>2026-04-08T17:03:53.646Z</time></trkpt><trkpt lat="43.5988587" lon="11.4432437"><ele>272.0</ele><time>2026-04-08T17:03:54.647Z</time></trkpt><trkpt lat="43.5990008" lon="11.4432015"><ele>272.0</ele><time>2026-04-08T17:03:55.647Z</time></trkpt><trkpt lat="43.5991389" lon="11.4431672"><ele>272.0</ele><time>2026-04-08T17:03:56.646Z</time></trkpt><trkpt lat="43.5992798" lon="11.4431667"><ele>272.0</ele><time>2026-04-08T17:03:57.646Z</time></trkpt><trkpt lat="43.5994311" lon="11.4431863"><ele>272.0</ele><time>2026-04-08T17:03:58.646Z</time></trkpt><trkpt lat="43.5995733" lon="11.4432189"><ele>272.0</ele><time>2026-04-08T17:03:59.647Z</time></trkpt><trkpt lat="43.5997008" lon="11.4432439"><ele>272.0</ele><time>2026-04-08T17:04:00.646Z</time></trkpt><trkpt lat="43.5998275" lon="11.4432803"><ele>271.6</ele><time>2026-04-08T17:04:01.646Z</time></trkpt><trkpt lat="43.5999393" lon="11.4433106"><ele>271.2</ele><time>2026-04-08T17:04:02.646Z</time></trkpt><trkpt lat="43.6000459" lon="11.4433395"><ele>270.8</ele><time>2026-04-08T17:04:03.646Z</time></trkpt><trkpt lat="43.6001437" lon="11.4433656"><ele>270.4</ele><time>2026-04-08T17:04:04.646Z</time></trkpt><trkpt lat="43.6002325" lon="11.4433983"><ele>270.0</ele><time>2026-04-08T17:04:05.646Z</time></trkpt><trkpt lat="43.600332" lon="11.4434333"><ele>270.1666666666667</ele><time>2026-04-08T17:04:06.647Z</time></trkpt><trkpt lat="43.6004257" lon="11.4434641"><ele>270.3333333333333</ele><time>2026-04-08T17:04:07.646Z</time></trkpt><trkpt lat="43.6005141" lon="11.4434951"><ele>270.5</ele><time>2026-04-08T17:04:08.646Z</time></trkpt><trkpt lat="43.6005995" lon="11.4435159"><ele>270.66666666666663</ele><time>2026-04-08T17:04:09.646Z</time></trkpt><trkpt lat="43.6006859" lon="11.4435368"><ele>270.8333333333333</ele><time>2026-04-08T17:04:10.646Z</time></trkpt><trkpt lat="43.6007711" lon="11.4435637"><ele>271.0</ele><time>2026-04-08T17:04:11.646Z</time></trkpt><trkpt lat="43.6008517" lon="11.4435915"><ele>271.0</ele><time>2026-04-08T17:04:12.647Z</time></trkpt><trkpt lat="43.6009335" lon="11.4436086"><ele>271.0</ele><time>2026-04-08T17:04:13.646Z</time></trkpt><trkpt lat="43.6010128" lon="11.4436275"><ele>271.0</ele><time>2026-04-08T17:04:14.646Z</time></trkpt><trkpt lat="43.6010859" lon="11.4436532"><ele>271.0</ele><time>2026-04-08T17:04:15.647Z</time></trkpt><trkpt lat="43.6011588" lon="11.4436758"><ele>271.0</ele><time>2026-04-08T17:04:16.646Z</time></trkpt><trkpt lat="43.6012313" lon="11.4436999"><ele>271.0</ele><time>2026-04-08T17:04:17.646Z</time></trkpt><trkpt lat="43.6013022" lon="11.4437208"><ele>270.66666666666663</ele><time>2026-04-08T17:04:18.647Z</time></trkpt><trkpt lat="43.6013693" lon="11.4437411"><ele>270.3333333333333</ele><time>2026-04-08T17:04:19.647Z</time></trkpt><trkpt lat="43.6014375" lon="11.4437614"><ele>270.0</ele><time>2026-04-08T17:04:20.646Z</time></trkpt><trkpt lat="43.601513" lon="11.443788"><ele>269.6666666666667</ele><time>2026-04-08T17:04:21.647Z</time></trkpt><trkpt lat="43.6015921" lon="11.4438153"><ele>269.33333333333337</ele><time>2026-04-08T17:04:22.646Z</time></trkpt><trkpt lat="43.6016708" lon="11.4438396"><ele>269.0</ele><time>2026-04-08T17:04:23.646Z</time></trkpt><trkpt lat="43.6017538" lon="11.4438633"><ele>269.0</ele><time>2026-04-08T17:04:24.646Z</time></trkpt><trkpt lat="43.6018462" lon="11.4438975"><ele>269.0</ele><time>2026-04-08T17:04:25.646Z</time></trkpt><trkpt lat="43.601946" lon="11.4439331"><ele>269.0</ele><time>2026-04-08T17:04:26.647Z</time></trkpt><trkpt lat="43.602054" lon="11.443966"><ele>269.0</ele><time>2026-04-08T17:04:27.646Z</time></trkpt><trkpt lat="43.6021683" lon="11.4439978"><ele>269.0</ele><time>2026-04-08T17:04:28.647Z</time></trkpt><trkpt lat="43.6022808" lon="11.4440445"><ele>268.75</ele><time>2026-04-08T17:04:29.647Z</time></trkpt><trkpt lat="43.6023817" lon="11.4441161"><ele>268.5</ele><time>2026-04-08T17:04:30.646Z</time></trkpt><trkpt lat="43.6024706" lon="11.4442224"><ele>268.25</ele><time>2026-04-08T17:04:31.646Z</time></trkpt><trkpt lat="43.6025497" lon="11.4443741"><ele>268.0</ele><time>2026-04-08T17:04:32.646Z</time></trkpt><trkpt lat="43.6026253" lon="11.4445327"><ele>267.5</ele><time>2026-04-08T17:04:33.647Z</time></trkpt><trkpt lat="43.6027008" lon="11.4446729"><ele>267.0</ele><time>2026-04-08T17:04:34.646Z</time></trkpt><trkpt lat="43.6027916" lon="11.444798"><ele>266.5</ele><time>2026-04-08T17:04:35.646Z</time></trkpt><trkpt lat="43.6029012" lon="11.4448986"><ele>266.0</ele><time>2026-04-08T17:04:36.646Z</time></trkpt><trkpt lat="43.6030298" lon="11.4449855"><ele>265.0</ele><time>2026-04-08T17:04:37.646Z</time></trkpt><trkpt lat="43.6031726" lon="11.4450785"><ele>264.0</ele><time>2026-04-08T17:04:38.647Z</time></trkpt><trkpt lat="43.6033079" lon="11.4451755"><ele>263.0</ele><time>2026-04-08T17:04:39.646Z</time></trkpt><trkpt lat="43.6034245" lon="11.4453155"><ele>260.6666666666667</ele><time>2026-04-08T17:04:40.647Z</time></trkpt><trkpt lat="43.6035153" lon="11.4454867"><ele>258.3333333333333</ele><time>2026-04-08T17:04:41.646Z</time></trkpt><trkpt lat="43.6035984" lon="11.4456789"><ele>256.0</ele><time>2026-04-08T17:04:42.646Z</time></trkpt><trkpt lat="43.6036599" lon="11.4458771"><ele>256.25</ele><time>2026-04-08T17:04:43.646Z</time></trkpt><trkpt lat="43.6037067" lon="11.4460867"><ele>256.5</ele><time>2026-04-08T17:04:44.647Z</time></trkpt><trkpt lat="43.6037423" lon="11.4462882"><ele>256.75</ele><time>2026-04-08T17:04:45.646Z</time></trkpt><trkpt lat="43.6037623" lon="11.4464618"><ele>257.0</ele><time>2026-04-08T17:04:46.646Z</time></trkpt><trkpt lat="43.6037546" lon="11.4466001"><ele>257.0</ele><time>2026-04-08T17:04:47.646Z</time></trkpt><trkpt lat="43.6037131" lon="11.4467091"><ele>257.0</ele><time>2026-04-08T17:04:48.646Z</time></trkpt><trkpt lat="43.6036355" lon="11.4468166"><ele>257.0</ele><time>2026-04-08T17:04:49.646Z</time></trkpt><trkpt lat="43.6035256" lon="11.4468648"><ele>257.0</ele><time>2026-04-08T17:04:50.647Z</time></trkpt><trkpt lat="43.6034203" lon="11.4468884"><ele>257.0</ele><time>2026-04-08T17:04:51.646Z</time></trkpt><trkpt lat="43.6033266" lon="11.4469268"><ele>256.2</ele><time>2026-04-08T17:04:52.647Z</time></trkpt><trkpt lat="43.6032518" lon="11.4470098"><ele>255.39999999999998</ele><time>2026-04-08T17:04:53.647Z</time></trkpt><trkpt lat="43.6031997" lon="11.4471363"><ele>254.60000000000002</ele><time>2026-04-08T17:04:54.647Z</time></trkpt><trkpt lat="43.6032001" lon="11.4472915"><ele>253.8</ele><time>2026-04-08T17:04:55.646Z</time></trkpt><trkpt lat="43.6032516" lon="11.447449"><ele>253.0</ele><time>2026-04-08T17:04:56.646Z</time></trkpt><trkpt lat="43.6033477" lon="11.4476269"><ele>250.75</ele><time>2026-04-08T17:04:57.646Z</time></trkpt><trkpt lat="43.603441" lon="11.4477967"><ele>248.5</ele><time>2026-04-08T17:04:58.646Z</time></trkpt><trkpt lat="43.6035239" lon="11.4479672"><ele>246.25</ele><time>2026-04-08T17:04:59.647Z</time></trkpt><trkpt lat="43.6036035" lon="11.4481267"><ele>244.0</ele><time>2026-04-08T17:05:00.647Z</time></trkpt><trkpt lat="43.6036811" lon="11.4482804"><ele>240.75</ele><time>2026-04-08T17:05:01.646Z</time></trkpt><trkpt lat="43.6037673" lon="11.4484185"><ele>237.5</ele><time>2026-04-08T17:05:02.646Z</time></trkpt><trkpt lat="43.6038801" lon="11.4485229"><ele>234.25</ele><time>2026-04-08T17:05:03.646Z</time></trkpt><trkpt lat="43.604035" lon="11.4485976"><ele>231.0</ele><time>2026-04-08T17:05:04.646Z</time></trkpt><trkpt lat="43.6041979" lon="11.4486254"><ele>231.0</ele><time>2026-04-08T17:05:05.646Z</time></trkpt><trkpt lat="43.6043761" lon="11.4486452"><ele>231.0</ele><time>2026-04-08T17:05:06.646Z</time></trkpt><trkpt lat="43.6045596" lon="11.4486751"><ele>231.0</ele><time>2026-04-08T17:05:07.646Z</time></trkpt><trkpt lat="43.6047388" lon="11.4487125"><ele>232.0</ele><time>2026-04-08T17:05:08.646Z</time></trkpt><trkpt lat="43.6049172" lon="11.4487617"><ele>233.0</ele><time>2026-04-08T17:05:09.646Z</time></trkpt><trkpt lat="43.6050856" lon="11.4488147"><ele>234.0</ele><time>2026-04-08T17:05:10.647Z</time></trkpt><trkpt lat="43.6052431" lon="11.4488896"><ele>230.0</ele><time>2026-04-08T17:05:11.647Z</time></trkpt><trkpt lat="43.6053864" lon="11.4489679"><ele>226.0</ele><time>2026-04-08T17:05:12.647Z</time></trkpt><trkpt lat="43.6055066" lon="11.4490457"><ele>222.0</ele><time>2026-04-08T17:05:13.647Z</time></trkpt><trkpt lat="43.6056041" lon="11.4491506"><ele>218.0</ele><time>2026-04-08T17:05:14.647Z</time></trkpt><trkpt lat="43.6056653" lon="11.4493287"><ele>218.0</ele><time>2026-04-08T17:05:15.646Z</time></trkpt><trkpt lat="43.6057002" lon="11.4495139"><ele>218.0</ele><time>2026-04-08T17:05:16.646Z</time></trkpt><trkpt lat="43.6057165" lon="11.4497169"><ele>218.0</ele><time>2026-04-08T17:05:17.646Z</time></trkpt><trkpt lat="43.605729" lon="11.4499258"><ele>218.0</ele><time>2026-04-08T17:05:18.646Z</time></trkpt><trkpt lat="43.6057476" lon="11.4501054"><ele>218.0</ele><time>2026-04-08T17:05:19.646Z</time></trkpt><trkpt lat="43.6057744" lon="11.450272"><ele>218.0</ele><time>2026-04-08T17:05:20.647Z</time></trkpt><trkpt lat="43.6057862" lon="11.4504324"><ele>218.0</ele><time>2026-04-08T17:05:21.646Z</time></trkpt><trkpt lat="43.6057636" lon="11.4505863"><ele>218.0</ele><time>2026-04-08T17:05:22.646Z</time></trkpt><trkpt lat="43.6057048" lon="11.4507406"><ele>218.0</ele><time>2026-04-08T17:05:23.647Z</time></trkpt><trkpt lat="43.6056187" lon="11.4508856"><ele>218.0</ele><time>2026-04-08T17:05:24.647Z</time></trkpt><trkpt lat="43.6055134" lon="11.4510245"><ele>218.0</ele><time>2026-04-08T17:05:25.646Z</time></trkpt><trkpt lat="43.6053882" lon="11.4511332"><ele>218.0</ele><time>2026-04-08T17:05:26.646Z</time></trkpt><trkpt lat="43.6052589" lon="11.4512252"><ele>214.25</ele><time>2026-04-08T17:05:27.646Z</time></trkpt><trkpt lat="43.6051279" lon="11.4513041"><ele>210.5</ele><time>2026-04-08T17:05:28.646Z</time></trkpt><trkpt lat="43.6050066" lon="11.4513777"><ele>206.75</ele><time>2026-04-08T17:05:29.647Z</time></trkpt><trkpt lat="43.6048857" lon="11.4514666"><ele>203.0</ele><time>2026-04-08T17:05:30.646Z</time></trkpt><trkpt lat="43.6047713" lon="11.4515426"><ele>203.0</ele><time>2026-04-08T17:05:31.647Z</time></trkpt><trkpt lat="43.6046508" lon="11.4515494"><ele>203.0</ele><time>2026-04-08T17:05:32.646Z</time></trkpt><trkpt lat="43.6045622" lon="11.4515223"><ele>203.0</ele><time>2026-04-08T17:05:33.646Z</time></trkpt><trkpt lat="43.6044518" lon="11.4515463"><ele>203.0</ele><time>2026-04-08T17:05:35.647Z</time></trkpt><trkpt lat="43.604418" lon="11.451643"><ele>203.0</ele><time>2026-04-08T17:05:36.646Z</time></trkpt><trkpt lat="43.6044466" lon="11.4517406"><ele>203.0</ele><time>2026-04-08T17:05:37.646Z</time></trkpt><trkpt lat="43.6045171" lon="11.4518178"><ele>203.0</ele><time>2026-04-08T17:05:38.646Z</time></trkpt><trkpt lat="43.6046227" lon="11.4518785"><ele>203.0</ele><time>2026-04-08T17:05:39.647Z</time></trkpt><trkpt lat="43.6047512" lon="11.4519012"><ele>203.0</ele><time>2026-04-08T17:05:40.646Z</time></trkpt><trkpt lat="43.6049011" lon="11.451941"><ele>203.0</ele><time>2026-04-08T17:05:41.646Z</time></trkpt><trkpt lat="43.6050307" lon="11.4520019"><ele>203.0</ele><time>2026-04-08T17:05:42.646Z</time></trkpt><trkpt lat="43.6051526" lon="11.4520869"><ele>203.0</ele><time>2026-04-08T17:05:43.646Z</time></trkpt><trkpt lat="43.6052692" lon="11.4521906"><ele>203.0</ele><time>2026-04-08T17:05:44.646Z</time></trkpt><trkpt lat="43.6053647" lon="11.4523395"><ele>201.33333333333334</ele><time>2026-04-08T17:05:45.646Z</time></trkpt><trkpt lat="43.605457" lon="11.4525237"><ele>199.66666666666669</ele><time>2026-04-08T17:05:46.646Z</time></trkpt><trkpt lat="43.6055483" lon="11.4526886"><ele>198.0</ele><time>2026-04-08T17:05:47.647Z</time></trkpt><trkpt lat="43.6056266" lon="11.4528545"><ele>196.0</ele><time>2026-04-08T17:05:48.646Z</time></trkpt><trkpt lat="43.6056856" lon="11.453028"><ele>194.0</ele><time>2026-04-08T17:05:49.647Z</time></trkpt><trkpt lat="43.605733" lon="11.4531921"><ele>192.0</ele><time>2026-04-08T17:05:50.647Z</time></trkpt><trkpt lat="43.6057768" lon="11.4533549"><ele>190.0</ele><time>2026-04-08T17:05:51.646Z</time></trkpt><trkpt lat="43.605843" lon="11.453508"><ele>190.0</ele><time>2026-04-08T17:05:52.647Z</time></trkpt><trkpt lat="43.6059326" lon="11.4536679"><ele>190.0</ele><time>2026-04-08T17:05:53.646Z</time></trkpt><trkpt lat="43.6060251" lon="11.4538269"><ele>190.0</ele><time>2026-04-08T17:05:54.647Z</time></trkpt><trkpt lat="43.6061188" lon="11.4539805"><ele>190.0</ele><time>2026-04-08T17:05:55.647Z</time></trkpt><trkpt lat="43.6062072" lon="11.4541336"><ele>188.25</ele><time>2026-04-08T17:05:56.646Z</time></trkpt><trkpt lat="43.6062806" lon="11.454292"><ele>186.5</ele><time>2026-04-08T17:05:57.647Z</time></trkpt><trkpt lat="43.6063516" lon="11.4544415"><ele>184.75</ele><time>2026-04-08T17:05:58.646Z</time></trkpt><trkpt lat="43.6064128" lon="11.4545739"><ele>183.0</ele><time>2026-04-08T17:05:59.646Z</time></trkpt><trkpt lat="43.6064919" lon="11.4546786"><ele>179.5</ele><time>2026-04-08T17:06:00.647Z</time></trkpt><trkpt lat="43.6065858" lon="11.4547637"><ele>176.0</ele><time>2026-04-08T17:06:01.647Z</time></trkpt><trkpt lat="43.6067009" lon="11.4548115"><ele>172.5</ele><time>2026-04-08T17:06:02.646Z</time></trkpt><trkpt lat="43.6068226" lon="11.4547983"><ele>169.0</ele><time>2026-04-08T17:06:03.646Z</time></trkpt><trkpt lat="43.6069558" lon="11.4547835"><ele>169.5</ele><time>2026-04-08T17:06:04.647Z</time></trkpt><trkpt lat="43.6070786" lon="11.4547902"><ele>170.0</ele><time>2026-04-08T17:06:05.646Z</time></trkpt><trkpt lat="43.6071975" lon="11.4548507"><ele>170.5</ele><time>2026-04-08T17:06:06.647Z</time></trkpt><trkpt lat="43.6073152" lon="11.4549553"><ele>171.0</ele><time>2026-04-08T17:06:07.646Z</time></trkpt><trkpt lat="43.6074299" lon="11.4550779"><ele>171.0</ele><time>2026-04-08T17:06:08.646Z</time></trkpt><trkpt lat="43.6075368" lon="11.4552208"><ele>171.0</ele><time>2026-04-08T17:06:09.646Z</time></trkpt><trkpt lat="43.6076296" lon="11.455379"><ele>171.0</ele><time>2026-04-08T17:06:10.646Z</time></trkpt><trkpt lat="43.6077144" lon="11.455529"><ele>171.0</ele><time>2026-04-08T17:06:11.646Z</time></trkpt><trkpt lat="43.6077959" lon="11.4556667"><ele>167.75</ele><time>2026-04-08T17:06:12.646Z</time></trkpt><trkpt lat="43.6078759" lon="11.4557851"><ele>164.5</ele><time>2026-04-08T17:06:13.646Z</time></trkpt><trkpt lat="43.6079718" lon="11.4558769"><ele>161.25</ele><time>2026-04-08T17:06:14.646Z</time></trkpt><trkpt lat="43.6080792" lon="11.4559123"><ele>158.0</ele><time>2026-04-08T17:06:15.646Z</time></trkpt><trkpt lat="43.6082008" lon="11.4558645"><ele>158.0</ele><time>2026-04-08T17:06:16.646Z</time></trkpt><trkpt lat="43.6082966" lon="11.4557953"><ele>158.0</ele><time>2026-04-08T17:06:17.646Z</time></trkpt><trkpt lat="43.6083907" lon="11.4556963"><ele>158.0</ele><time>2026-04-08T17:06:18.646Z</time></trkpt><trkpt lat="43.6084711" lon="11.4555826"><ele>158.0</ele><time>2026-04-08T17:06:19.646Z</time></trkpt><trkpt lat="43.6085585" lon="11.4555073"><ele>158.0</ele><time>2026-04-08T17:06:20.646Z</time></trkpt><trkpt lat="43.6086583" lon="11.4554753"><ele>158.75</ele><time>2026-04-08T17:06:21.646Z</time></trkpt><trkpt lat="43.6087525" lon="11.4554976"><ele>159.5</ele><time>2026-04-08T17:06:22.646Z</time></trkpt><trkpt lat="43.6088505" lon="11.4555757"><ele>160.25</ele><time>2026-04-08T17:06:23.647Z</time></trkpt><trkpt lat="43.6088833" lon="11.4557269"><ele>161.0</ele><time>2026-04-08T17:06:24.646Z</time></trkpt><trkpt lat="43.6089076" lon="11.4559341"><ele>161.0</ele><time>2026-04-08T17:06:25.646Z</time></trkpt><trkpt lat="43.6089269" lon="11.4561329"><ele>161.0</ele><time>2026-04-08T17:06:26.646Z</time></trkpt><trkpt lat="43.6089492" lon="11.4563366"><ele>161.0</ele><time>2026-04-08T17:06:27.646Z</time></trkpt><trkpt lat="43.6089895" lon="11.4565371"><ele>161.0</ele><time>2026-04-08T17:06:28.646Z</time></trkpt><trkpt lat="43.6090536" lon="11.4567144"><ele>159.66666666666666</ele><time>2026-04-08T17:06:29.646Z</time></trkpt><trkpt lat="43.6091338" lon="11.4568869"><ele>158.33333333333334</ele><time>2026-04-08T17:06:30.647Z</time></trkpt><trkpt lat="43.6092372" lon="11.4570369"><ele>157.0</ele><time>2026-04-08T17:06:31.647Z</time></trkpt><trkpt lat="43.6093767" lon="11.45716"><ele>155.0</ele><time>2026-04-08T17:06:32.647Z</time></trkpt><trkpt lat="43.6095191" lon="11.4572761"><ele>153.0</ele><time>2026-04-08T17:06:33.646Z</time></trkpt><trkpt lat="43.6096593" lon="11.4573793"><ele>151.0</ele><time>2026-04-08T17:06:34.647Z</time></trkpt><trkpt lat="43.6097891" lon="11.4574874"><ele>151.0</ele><time>2026-04-08T17:06:35.646Z</time></trkpt><trkpt lat="43.6099148" lon="11.4575908"><ele>151.0</ele><time>2026-04-08T17:06:36.646Z</time></trkpt><trkpt lat="43.6100347" lon="11.4576995"><ele>151.0</ele><time>2026-04-08T17:06:37.646Z</time></trkpt><trkpt lat="43.6101543" lon="11.4578083"><ele>151.0</ele><time>2026-04-08T17:06:38.646Z</time></trkpt><trkpt lat="43.6102807" lon="11.4579222"><ele>149.66666666666669</ele><time>2026-04-08T17:06:39.647Z</time></trkpt><trkpt lat="43.6104118" lon="11.4580296"><ele>148.33333333333334</ele><time>2026-04-08T17:06:40.646Z</time></trkpt><trkpt lat="43.6105426" lon="11.4581257"><ele>147.0</ele><time>2026-04-08T17:06:41.647Z</time></trkpt><trkpt lat="43.6106912" lon="11.4582127"><ele>147.0</ele><time>2026-04-08T17:06:42.646Z</time></trkpt><trkpt lat="43.6108549" lon="11.4582726"><ele>147.0</ele><time>2026-04-08T17:06:43.646Z</time></trkpt><trkpt lat="43.6110278" lon="11.4583133"><ele>147.0</ele><time>2026-04-08T17:06:44.646Z</time></trkpt><trkpt lat="43.6112116" lon="11.4583403"><ele>146.66666666666666</ele><time>2026-04-08T17:06:45.647Z</time></trkpt><trkpt lat="43.6114091" lon="11.4583472"><ele>146.33333333333331</ele><time>2026-04-08T17:06:46.646Z</time></trkpt><trkpt lat="43.6116066" lon="11.4583231"><ele>146.0</ele><time>2026-04-08T17:06:47.647Z</time></trkpt><trkpt lat="43.6118033" lon="11.458299"><ele>146.33333333333331</ele><time>2026-04-08T17:06:48.647Z</time></trkpt><trkpt lat="43.6119979" lon="11.4582779"><ele>146.66666666666666</ele><time>2026-04-08T17:06:49.646Z</time></trkpt><trkpt lat="43.6121913" lon="11.4582593"><ele>147.0</ele><time>2026-04-08T17:06:50.646Z</time></trkpt><trkpt lat="43.6123814" lon="11.4582381"><ele>147.0</ele><time>2026-04-08T17:06:51.647Z</time></trkpt><trkpt lat="43.6125725" lon="11.4582185"><ele>147.0</ele><time>2026-04-08T17:06:52.646Z</time></trkpt><trkpt lat="43.6127521" lon="11.4582071"><ele>147.0</ele><time>2026-04-08T17:06:53.646Z</time></trkpt><trkpt lat="43.6129199" lon="11.4582051"><ele>145.66666666666666</ele><time>2026-04-08T17:06:54.646Z</time></trkpt><trkpt lat="43.6130918" lon="11.458197"><ele>144.33333333333331</ele><time>2026-04-08T17:06:55.646Z</time></trkpt><trkpt lat="43.6132553" lon="11.4581363"><ele>143.0</ele><time>2026-04-08T17:06:56.646Z</time></trkpt><trkpt lat="43.613439" lon="11.4580449"><ele>143.0</ele><time>2026-04-08T17:06:57.646Z</time></trkpt><trkpt lat="43.6136123" lon="11.4579567"><ele>143.0</ele><time>2026-04-08T17:06:58.646Z</time></trkpt><trkpt lat="43.6137724" lon="11.4578807"><ele>143.0</ele><time>2026-04-08T17:06:59.646Z</time></trkpt><trkpt lat="43.6139167" lon="11.4578054"><ele>141.5</ele><time>2026-04-08T17:07:00.646Z</time></trkpt><trkpt lat="43.6140522" lon="11.4577376"><ele>140.0</ele><time>2026-04-08T17:07:01.647Z</time></trkpt><trkpt lat="43.6141802" lon="11.4576736"><ele>138.5</ele><time>2026-04-08T17:07:02.647Z</time></trkpt><trkpt lat="43.6142928" lon="11.4576016"><ele>137.0</ele><time>2026-04-08T17:07:03.647Z</time></trkpt><trkpt lat="43.6143873" lon="11.457547"><ele>137.0</ele><time>2026-04-08T17:07:04.646Z</time></trkpt><trkpt lat="43.614472" lon="11.4575052"><ele>137.0</ele><time>2026-04-08T17:07:05.646Z</time></trkpt><trkpt lat="43.6145806" lon="11.4574904"><ele>137.0</ele><time>2026-04-08T17:07:07.646Z</time></trkpt><trkpt lat="43.6146403" lon="11.4575532"><ele>137.0</ele><time>2026-04-08T17:07:08.646Z</time></trkpt><trkpt lat="43.6146768" lon="11.4576628"><ele>137.0</ele><time>2026-04-08T17:07:09.647Z</time></trkpt><trkpt lat="43.6147263" lon="11.4577982"><ele>136.5</ele><time>2026-04-08T17:07:10.646Z</time></trkpt><trkpt lat="43.614787" lon="11.4579189"><ele>136.0</ele><time>2026-04-08T17:07:11.646Z</time></trkpt><trkpt lat="43.6148833" lon="11.4580497"><ele>135.5</ele><time>2026-04-08T17:07:12.646Z</time></trkpt><trkpt lat="43.6149901" lon="11.4581767"><ele>135.0</ele><time>2026-04-08T17:07:13.646Z</time></trkpt><trkpt lat="43.6151047" lon="11.4583111"><ele>135.0</ele><time>2026-04-08T17:07:14.646Z</time></trkpt><trkpt lat="43.6152146" lon="11.4584508"><ele>135.0</ele><time>2026-04-08T17:07:15.647Z</time></trkpt><trkpt lat="43.6153274" lon="11.4585853"><ele>135.0</ele><time>2026-04-08T17:07:16.647Z</time></trkpt><trkpt lat="43.6154523" lon="11.4587172"><ele>134.66666666666666</ele><time>2026-04-08T17:07:17.646Z</time></trkpt><trkpt lat="43.6155816" lon="11.4588425"><ele>134.33333333333331</ele><time>2026-04-08T17:07:18.646Z</time></trkpt><trkpt lat="43.6157238" lon="11.4589493"><ele>134.0</ele><time>2026-04-08T17:07:19.646Z</time></trkpt><trkpt lat="43.6158776" lon="11.4590276"><ele>134.0</ele><time>2026-04-08T17:07:20.647Z</time></trkpt><trkpt lat="43.616043" lon="11.4590848"><ele>134.0</ele><time>2026-04-08T17:07:21.647Z</time></trkpt><trkpt lat="43.6162158" lon="11.4591186"><ele>134.0</ele><time>2026-04-08T17:07:22.646Z</time></trkpt><trkpt lat="43.6163974" lon="11.4591432"><ele>133.66666666666666</ele><time>2026-04-08T17:07:23.647Z</time></trkpt><trkpt lat="43.6165755" lon="11.459161"><ele>133.33333333333334</ele><time>2026-04-08T17:07:24.646Z</time></trkpt><trkpt lat="43.6167509" lon="11.4591951"><ele>133.0</ele><time>2026-04-08T17:07:25.646Z</time></trkpt><trkpt lat="43.6169199" lon="11.4592325"><ele>132.66666666666669</ele><time>2026-04-08T17:07:26.647Z</time></trkpt><trkpt lat="43.6170944" lon="11.4592927"><ele>132.33333333333334</ele><time>2026-04-08T17:07:27.646Z</time></trkpt><trkpt lat="43.6172645" lon="11.4593681"><ele>132.0</ele><time>2026-04-08T17:07:28.646Z</time></trkpt><trkpt lat="43.6174376" lon="11.4594487"><ele>132.0</ele><time>2026-04-08T17:07:29.646Z</time></trkpt><trkpt lat="43.6176067" lon="11.4595096"><ele>132.0</ele><time>2026-04-08T17:07:30.646Z</time></trkpt><trkpt lat="43.617778" lon="11.4595477"><ele>132.0</ele><time>2026-04-08T17:07:31.646Z</time></trkpt><trkpt lat="43.6179539" lon="11.4595415"><ele>131.66666666666666</ele><time>2026-04-08T17:07:32.646Z</time></trkpt><trkpt lat="43.6181299" lon="11.4595115"><ele>131.33333333333331</ele><time>2026-04-08T17:07:33.646Z</time></trkpt><trkpt lat="43.6183091" lon="11.4594794"><ele>131.0</ele><time>2026-04-08T17:07:34.646Z</time></trkpt><trkpt lat="43.618488" lon="11.4594498"><ele>130.66666666666666</ele><time>2026-04-08T17:07:35.647Z</time></trkpt><trkpt lat="43.6186682" lon="11.4594279"><ele>130.33333333333334</ele><time>2026-04-08T17:07:36.646Z</time></trkpt><trkpt lat="43.6188502" lon="11.4594115"><ele>130.0</ele><time>2026-04-08T17:07:37.646Z</time></trkpt><trkpt lat="43.6190315" lon="11.4594188"><ele>130.0</ele><time>2026-04-08T17:07:38.646Z</time></trkpt><trkpt lat="43.6192124" lon="11.4594386"><ele>130.0</ele><time>2026-04-08T17:07:39.646Z</time></trkpt><trkpt lat="43.6193914" lon="11.4594768"><ele>130.0</ele><time>2026-04-08T17:07:40.646Z</time></trkpt><trkpt lat="43.6195716" lon="11.45954"><ele>130.0</ele><time>2026-04-08T17:07:41.647Z</time></trkpt><trkpt lat="43.6197471" lon="11.4596135"><ele>130.0</ele><time>2026-04-08T17:07:42.647Z</time></trkpt><trkpt lat="43.6199215" lon="11.4596967"><ele>130.0</ele><time>2026-04-08T17:07:43.646Z</time></trkpt><trkpt lat="43.6200959" lon="11.4597874"><ele>130.0</ele><time>2026-04-08T17:07:44.647Z</time></trkpt><trkpt lat="43.6202724" lon="11.4598763"><ele>130.0</ele><time>2026-04-08T17:07:45.646Z</time></trkpt><trkpt lat="43.6204502" lon="11.4599645"><ele>130.0</ele><time>2026-04-08T17:07:46.646Z</time></trkpt><trkpt lat="43.620627" lon="11.4600551"><ele>129.33333333333334</ele><time>2026-04-08T17:07:47.646Z</time></trkpt><trkpt lat="43.6208027" lon="11.4601404"><ele>128.66666666666666</ele><time>2026-04-08T17:07:48.646Z</time></trkpt><trkpt lat="43.6209778" lon="11.460232"><ele>128.0</ele><time>2026-04-08T17:07:49.647Z</time></trkpt><trkpt lat="43.6211578" lon="11.4603216"><ele>128.0</ele><time>2026-04-08T17:07:50.647Z</time></trkpt><trkpt lat="43.6213358" lon="11.4604053"><ele>128.0</ele><time>2026-04-08T17:07:51.647Z</time></trkpt><trkpt lat="43.6215122" lon="11.4604974"><ele>128.0</ele><time>2026-04-08T17:07:52.646Z</time></trkpt><trkpt lat="43.6216862" lon="11.460584"><ele>128.0</ele><time>2026-04-08T17:07:53.646Z</time></trkpt><trkpt lat="43.6218554" lon="11.4606673"><ele>128.0</ele><time>2026-04-08T17:07:54.647Z</time></trkpt><trkpt lat="43.6220077" lon="11.460735"><ele>128.0</ele><time>2026-04-08T17:07:55.646Z</time></trkpt><trkpt lat="43.6221268" lon="11.4607946"><ele>127.99999999999999</ele><time>2026-04-08T17:07:56.646Z</time></trkpt><trkpt lat="43.6221978" lon="11.4608275"><ele>128.0</ele><time>2026-04-08T17:07:57.647Z</time></trkpt><trkpt lat="43.6222704" lon="11.4608639"><ele>128.0</ele><time>2026-04-08T17:07:59.646Z</time></trkpt><trkpt lat="43.622379" lon="11.4609262"><ele>128.0</ele><time>2026-04-08T17:08:35.646Z</time></trkpt><trkpt lat="43.6224814" lon="11.4609497"><ele>127.99999999999999</ele><time>2026-04-08T17:08:37.646Z</time></trkpt><trkpt lat="43.622511" lon="11.4608656"><ele>128.0</ele><time>2026-04-08T17:08:40.646Z</time></trkpt><trkpt lat="43.6224391" lon="11.4608702"><ele>128.0</ele><time>2026-04-08T17:18:40.648Z</time></trkpt><trkpt lat="43.6223629" lon="11.4607719"><ele>128.0</ele><time>2026-04-08T17:18:44.648Z</time></trkpt><trkpt lat="43.6223434" lon="11.460669"><ele>128.0</ele><time>2026-04-08T17:18:45.647Z</time></trkpt><trkpt lat="43.6223363" lon="11.4605235"><ele>128.0</ele><time>2026-04-08T17:18:46.648Z</time></trkpt><trkpt lat="43.6223305" lon="11.4603602"><ele>128.0</ele><time>2026-04-08T17:18:47.647Z</time></trkpt><trkpt lat="43.6223159" lon="11.4601727"><ele>128.0</ele><time>2026-04-08T17:18:48.647Z</time></trkpt><trkpt lat="43.6222829" lon="11.4599893"><ele>128.0</ele><time>2026-04-08T17:18:49.647Z</time></trkpt><trkpt lat="43.6222273" lon="11.4598054"><ele>128.0</ele><time>2026-04-08T17:18:50.647Z</time></trkpt><trkpt lat="43.622161" lon="11.4596311"><ele>128.0</ele><time>2026-04-08T17:18:51.647Z</time></trkpt><trkpt lat="43.6221022" lon="11.4594674"><ele>128.0</ele><time>2026-04-08T17:18:52.647Z</time></trkpt><trkpt lat="43.6220762" lon="11.4593095"><ele>128.0</ele><time>2026-04-08T17:18:53.647Z</time></trkpt><trkpt lat="43.622062" lon="11.4591556"><ele>128.0</ele><time>2026-04-08T17:18:54.647Z</time></trkpt><trkpt lat="43.6220939" lon="11.4589992"><ele>128.0</ele><time>2026-04-08T17:18:55.647Z</time></trkpt><trkpt lat="43.6221518" lon="11.4588701"><ele>128.25</ele><time>2026-04-08T17:18:56.647Z</time></trkpt><trkpt lat="43.6222352" lon="11.4587532"><ele>128.5</ele><time>2026-04-08T17:18:57.647Z</time></trkpt><trkpt lat="43.6223387" lon="11.4585979"><ele>128.75</ele><time>2026-04-08T17:18:58.647Z</time></trkpt><trkpt lat="43.6224466" lon="11.4584551"><ele>129.0</ele><time>2026-04-08T17:18:59.648Z</time></trkpt><trkpt lat="43.6225906" lon="11.4583384"><ele>129.0</ele><time>2026-04-08T17:19:00.647Z</time></trkpt><trkpt lat="43.6227464" lon="11.4582466"><ele>129.0</ele><time>2026-04-08T17:19:01.648Z</time></trkpt><trkpt lat="43.6229153" lon="11.4581698"><ele>129.0</ele><time>2026-04-08T17:19:02.647Z</time></trkpt><trkpt lat="43.6231041" lon="11.4581587"><ele>130.33333333333334</ele><time>2026-04-08T17:19:03.647Z</time></trkpt><trkpt lat="43.6232952" lon="11.458195"><ele>131.66666666666669</ele><time>2026-04-08T17:19:04.648Z</time></trkpt><trkpt lat="43.6234968" lon="11.4582698"><ele>133.0</ele><time>2026-04-08T17:19:05.648Z</time></trkpt><trkpt lat="43.6236814" lon="11.4583666"><ele>135.0</ele><time>2026-04-08T17:19:06.648Z</time></trkpt><trkpt lat="43.6238632" lon="11.4584769"><ele>137.0</ele><time>2026-04-08T17:19:07.647Z</time></trkpt><trkpt lat="43.624042" lon="11.4585934"><ele>139.0</ele><time>2026-04-08T17:19:08.647Z</time></trkpt><trkpt lat="43.6242226" lon="11.4587086"><ele>136.66666666666669</ele><time>2026-04-08T17:19:09.648Z</time></trkpt><trkpt lat="43.624409" lon="11.4587965"><ele>134.33333333333334</ele><time>2026-04-08T17:19:10.647Z</time></trkpt><trkpt lat="43.6246104" lon="11.4588408"><ele>132.0</ele><time>2026-04-08T17:19:11.647Z</time></trkpt><trkpt lat="43.6248243" lon="11.4588308"><ele>133.66666666666666</ele><time>2026-04-08T17:19:12.648Z</time></trkpt><trkpt lat="43.6250404" lon="11.4587709"><ele>135.33333333333331</ele><time>2026-04-08T17:19:13.647Z</time></trkpt><trkpt lat="43.6252568" lon="11.4586733"><ele>137.0</ele><time>2026-04-08T17:19:14.647Z</time></trkpt><trkpt lat="43.6254608" lon="11.4585413"><ele>137.0</ele><time>2026-04-08T17:19:15.648Z</time></trkpt><trkpt lat="43.6256686" lon="11.458406"><ele>137.0</ele><time>2026-04-08T17:19:16.647Z</time></trkpt><trkpt lat="43.6258827" lon="11.4582781"><ele>137.0</ele><time>2026-04-08T17:19:17.647Z</time></trkpt><trkpt lat="43.6260927" lon="11.4581545"><ele>137.0</ele><time>2026-04-08T17:19:18.648Z</time></trkpt><trkpt lat="43.626299" lon="11.4580321"><ele>138.5</ele><time>2026-04-08T17:19:19.647Z</time></trkpt><trkpt lat="43.6265043" lon="11.4579084"><ele>140.0</ele><time>2026-04-08T17:19:20.647Z</time></trkpt><trkpt lat="43.6267085" lon="11.4577746"><ele>140.0</ele><time>2026-04-08T17:19:21.647Z</time></trkpt><trkpt lat="43.626908" lon="11.4576383"><ele>140.0</ele><time>2026-04-08T17:19:22.647Z</time></trkpt><trkpt lat="43.627103" lon="11.4574977"><ele>140.0</ele><time>2026-04-08T17:19:23.647Z</time></trkpt><trkpt lat="43.6272859" lon="11.4573707"><ele>141.0</ele><time>2026-04-08T17:19:24.647Z</time></trkpt><trkpt lat="43.6274598" lon="11.4572438"><ele>142.0</ele><time>2026-04-08T17:19:25.647Z</time></trkpt><trkpt lat="43.6276348" lon="11.4571083"><ele>143.0</ele><time>2026-04-08T17:19:26.648Z</time></trkpt><trkpt lat="43.6277932" lon="11.4569735"><ele>139.33333333333331</ele><time>2026-04-08T17:19:27.647Z</time></trkpt><trkpt lat="43.6279447" lon="11.456838"><ele>135.66666666666666</ele><time>2026-04-08T17:19:28.647Z</time></trkpt><trkpt lat="43.6280831" lon="11.4567103"><ele>132.0</ele><time>2026-04-08T17:19:29.648Z</time></trkpt><trkpt lat="43.6282034" lon="11.4566056"><ele>132.0</ele><time>2026-04-08T17:19:30.647Z</time></trkpt><trkpt lat="43.6283099" lon="11.4565094"><ele>132.0</ele><time>2026-04-08T17:19:31.647Z</time></trkpt><trkpt lat="43.6284121" lon="11.4564381"><ele>132.0</ele><time>2026-04-08T17:19:32.647Z</time></trkpt><trkpt lat="43.6285138" lon="11.4563841"><ele>132.0</ele><time>2026-04-08T17:19:33.647Z</time></trkpt><trkpt lat="43.6286166" lon="11.4563659"><ele>130.75</ele><time>2026-04-08T17:19:34.648Z</time></trkpt><trkpt lat="43.6287179" lon="11.4564081"><ele>129.5</ele><time>2026-04-08T17:19:35.647Z</time></trkpt><trkpt lat="43.6288037" lon="11.4565045"><ele>128.25</ele><time>2026-04-08T17:19:36.647Z</time></trkpt><trkpt lat="43.6288707" lon="11.4566427"><ele>127.0</ele><time>2026-04-08T17:19:37.647Z</time></trkpt><trkpt lat="43.6289114" lon="11.4568181"><ele>127.0</ele><time>2026-04-08T17:19:38.648Z</time></trkpt><trkpt lat="43.6289506" lon="11.4570208"><ele>127.0</ele><time>2026-04-08T17:19:39.647Z</time></trkpt><trkpt lat="43.6289722" lon="11.4572157"><ele>127.0</ele><time>2026-04-08T17:19:40.647Z</time></trkpt><trkpt lat="43.6289671" lon="11.4574133"><ele>127.0</ele><time>2026-04-08T17:19:41.648Z</time></trkpt><trkpt lat="43.628964" lon="11.45761"><ele>126.75</ele><time>2026-04-08T17:19:42.647Z</time></trkpt><trkpt lat="43.6289796" lon="11.4578075"><ele>126.5</ele><time>2026-04-08T17:19:43.647Z</time></trkpt><trkpt lat="43.6290129" lon="11.457992"><ele>126.25</ele><time>2026-04-08T17:19:44.647Z</time></trkpt><trkpt lat="43.6290772" lon="11.4581728"><ele>126.0</ele><time>2026-04-08T17:19:45.648Z</time></trkpt><trkpt lat="43.6291388" lon="11.4583364"><ele>125.4</ele><time>2026-04-08T17:19:46.647Z</time></trkpt><trkpt lat="43.6291876" lon="11.4584919"><ele>124.8</ele><time>2026-04-08T17:19:47.647Z</time></trkpt><trkpt lat="43.6292249" lon="11.4586298"><ele>124.20000000000002</ele><time>2026-04-08T17:19:48.647Z</time></trkpt><trkpt lat="43.6292461" lon="11.4587557"><ele>123.60000000000001</ele><time>2026-04-08T17:19:49.648Z</time></trkpt><trkpt lat="43.6292716" lon="11.4588512"><ele>123.0</ele><time>2026-04-08T17:19:50.647Z</time></trkpt><trkpt lat="43.629282" lon="11.4589787"><ele>122.66666666666667</ele><time>2026-04-08T17:19:52.648Z</time></trkpt><trkpt lat="43.6292682" lon="11.4590784"><ele>122.33333333333334</ele><time>2026-04-08T17:19:55.647Z</time></trkpt><trkpt lat="43.6292424" lon="11.4591935"><ele>122.0</ele><time>2026-04-08T17:19:59.647Z</time></trkpt><trkpt lat="43.6292051" lon="11.4592968"><ele>121.66666666666667</ele><time>2026-04-08T17:20:01.648Z</time></trkpt><trkpt lat="43.6291863" lon="11.4594037"><ele>121.33333333333334</ele><time>2026-04-08T17:20:02.647Z</time></trkpt><trkpt lat="43.6292119" lon="11.459513"><ele>121.0</ele><time>2026-04-08T17:20:03.647Z</time></trkpt><trkpt lat="43.6292625" lon="11.4596094"><ele>121.00000000000001</ele><time>2026-04-08T17:20:04.647Z</time></trkpt><trkpt lat="43.6293312" lon="11.4596671"><ele>121.0</ele><time>2026-04-08T17:20:05.647Z</time></trkpt><trkpt lat="43.6294181" lon="11.4596586"><ele>121.0</ele><time>2026-04-08T17:20:06.647Z</time></trkpt><trkpt lat="43.6294968" lon="11.4595935"><ele>121.0</ele><time>2026-04-08T17:20:07.647Z</time></trkpt><trkpt lat="43.6295458" lon="11.4595073"><ele>121.00000000000001</ele><time>2026-04-08T17:20:08.647Z</time></trkpt><trkpt lat="43.6295787" lon="11.4594128"><ele>121.0</ele><time>2026-04-08T17:20:09.648Z</time></trkpt><trkpt lat="43.6296223" lon="11.4593398"><ele>121.25</ele><time>2026-04-08T17:20:10.647Z</time></trkpt><trkpt lat="43.6296986" lon="11.459303"><ele>121.5</ele><time>2026-04-08T17:20:11.647Z</time></trkpt><trkpt lat="43.6297944" lon="11.4592716"><ele>121.75</ele><time>2026-04-08T17:20:12.647Z</time></trkpt><trkpt lat="43.629922" lon="11.4592426"><ele>122.0</ele><time>2026-04-08T17:20:13.647Z</time></trkpt><trkpt lat="43.630079" lon="11.4592193"><ele>122.0</ele><time>2026-04-08T17:20:14.647Z</time></trkpt><trkpt lat="43.6302474" lon="11.4592214"><ele>122.0</ele><time>2026-04-08T17:20:15.648Z</time></trkpt><trkpt lat="43.6304256" lon="11.4592048"><ele>122.0</ele><time>2026-04-08T17:20:16.648Z</time></trkpt><trkpt lat="43.630614" lon="11.4591838"><ele>122.0</ele><time>2026-04-08T17:20:17.647Z</time></trkpt><trkpt lat="43.6308083" lon="11.4591418"><ele>122.0</ele><time>2026-04-08T17:20:18.648Z</time></trkpt><trkpt lat="43.6310112" lon="11.4591101"><ele>122.0</ele><time>2026-04-08T17:20:19.647Z</time></trkpt><trkpt lat="43.6312164" lon="11.4590971"><ele>122.0</ele><time>2026-04-08T17:20:20.647Z</time></trkpt><trkpt lat="43.6314091" lon="11.4590351"><ele>122.0</ele><time>2026-04-08T17:20:21.647Z</time></trkpt><trkpt lat="43.6315985" lon="11.4589026"><ele>122.0</ele><time>2026-04-08T17:20:22.647Z</time></trkpt><trkpt lat="43.6317802" lon="11.4587436"><ele>122.0</ele><time>2026-04-08T17:20:23.647Z</time></trkpt><trkpt lat="43.6319598" lon="11.4585809"><ele>122.0</ele><time>2026-04-08T17:20:24.648Z</time></trkpt><trkpt lat="43.6321374" lon="11.4584141"><ele>122.0</ele><time>2026-04-08T17:20:25.648Z</time></trkpt><trkpt lat="43.6323164" lon="11.4582508"><ele>122.33333333333333</ele><time>2026-04-08T17:20:26.648Z</time></trkpt><trkpt lat="43.6324917" lon="11.4581018"><ele>122.66666666666666</ele><time>2026-04-08T17:20:27.647Z</time></trkpt><trkpt lat="43.6326514" lon="11.4579683"><ele>123.0</ele><time>2026-04-08T17:20:28.648Z</time></trkpt><trkpt lat="43.632802" lon="11.4578367"><ele>122.0</ele><time>2026-04-08T17:20:29.647Z</time></trkpt><trkpt lat="43.6329501" lon="11.4577186"><ele>121.0</ele><time>2026-04-08T17:20:30.647Z</time></trkpt><trkpt lat="43.6330942" lon="11.4575948"><ele>120.0</ele><time>2026-04-08T17:20:31.647Z</time></trkpt><trkpt lat="43.6332439" lon="11.4574548"><ele>120.0</ele><time>2026-04-08T17:20:32.647Z</time></trkpt><trkpt lat="43.6334019" lon="11.4573111"><ele>120.0</ele><time>2026-04-08T17:20:33.647Z</time></trkpt><trkpt lat="43.633574" lon="11.4571651"><ele>120.0</ele><time>2026-04-08T17:20:34.647Z</time></trkpt><trkpt lat="43.6337388" lon="11.4570175"><ele>120.33333333333334</ele><time>2026-04-08T17:20:35.647Z</time></trkpt><trkpt lat="43.6339098" lon="11.456865"><ele>120.66666666666667</ele><time>2026-04-08T17:20:36.647Z</time></trkpt><trkpt lat="43.6340836" lon="11.4567142"><ele>121.0</ele><time>2026-04-08T17:20:37.647Z</time></trkpt><trkpt lat="43.6342565" lon="11.4565516"><ele>121.0</ele><time>2026-04-08T17:20:38.647Z</time></trkpt><trkpt lat="43.634434" lon="11.4563996"><ele>121.0</ele><time>2026-04-08T17:20:39.648Z</time></trkpt><trkpt lat="43.6346105" lon="11.4562497"><ele>121.0</ele><time>2026-04-08T17:20:40.648Z</time></trkpt><trkpt lat="43.6347706" lon="11.4561036"><ele>121.33333333333334</ele><time>2026-04-08T17:20:41.647Z</time></trkpt><trkpt lat="43.6349232" lon="11.4559666"><ele>121.66666666666666</ele><time>2026-04-08T17:20:42.647Z</time></trkpt><trkpt lat="43.6350657" lon="11.4558401"><ele>122.0</ele><time>2026-04-08T17:20:43.647Z</time></trkpt><trkpt lat="43.6351894" lon="11.4557381"><ele>121.99999999999999</ele><time>2026-04-08T17:20:44.647Z</time></trkpt><trkpt lat="43.6352978" lon="11.4556492"><ele>122.0</ele><time>2026-04-08T17:20:45.648Z</time></trkpt><trkpt lat="43.6353636" lon="11.4556108"><ele>122.0</ele><time>2026-04-08T17:20:46.647Z</time></trkpt><trkpt lat="43.6354255" lon="11.455591"><ele>122.0</ele><time>2026-04-08T17:20:47.648Z</time></trkpt><trkpt lat="43.6354893" lon="11.4556047"><ele>121.99999999999999</ele><time>2026-04-08T17:20:48.647Z</time></trkpt><trkpt lat="43.6355601" lon="11.4556689"><ele>122.0</ele><time>2026-04-08T17:20:49.647Z</time></trkpt><trkpt lat="43.6356342" lon="11.455788"><ele>121.66666666666666</ele><time>2026-04-08T17:20:50.648Z</time></trkpt><trkpt lat="43.6357129" lon="11.4559453"><ele>121.33333333333334</ele><time>2026-04-08T17:20:51.647Z</time></trkpt><trkpt lat="43.6357972" lon="11.456136"><ele>121.0</ele><time>2026-04-08T17:20:52.647Z</time></trkpt><trkpt lat="43.6358917" lon="11.4563386"><ele>121.0</ele><time>2026-04-08T17:20:53.647Z</time></trkpt><trkpt lat="43.6359802" lon="11.4565279"><ele>121.0</ele><time>2026-04-08T17:20:54.648Z</time></trkpt><trkpt lat="43.6360585" lon="11.4567033"><ele>121.0</ele><time>2026-04-08T17:20:55.648Z</time></trkpt><trkpt lat="43.6361232" lon="11.4568437"><ele>121.0</ele><time>2026-04-08T17:20:56.648Z</time></trkpt><trkpt lat="43.6361698" lon="11.4569575"><ele>120.8</ele><time>2026-04-08T17:20:57.647Z</time></trkpt><trkpt lat="43.6362056" lon="11.4570525"><ele>120.6</ele><time>2026-04-08T17:20:59.647Z</time></trkpt><trkpt lat="43.6362888" lon="11.4570617"><ele>120.4</ele><time>2026-04-08T17:21:03.647Z</time></trkpt><trkpt lat="43.6363667" lon="11.4570179"><ele>120.2</ele><time>2026-04-08T17:21:04.648Z</time></trkpt><trkpt lat="43.6364677" lon="11.4569074"><ele>120.0</ele><time>2026-04-08T17:21:05.648Z</time></trkpt><trkpt lat="43.6365726" lon="11.4568054"><ele>120.0</ele><time>2026-04-08T17:21:06.647Z</time></trkpt><trkpt lat="43.6367003" lon="11.4566795"><ele>120.0</ele><time>2026-04-08T17:21:07.647Z</time></trkpt><trkpt lat="43.6368435" lon="11.4565626"><ele>120.0</ele><time>2026-04-08T17:21:08.648Z</time></trkpt><trkpt lat="43.6369858" lon="11.4564332"><ele>120.0</ele><time>2026-04-08T17:21:09.647Z</time></trkpt><trkpt lat="43.6371385" lon="11.456304"><ele>120.0</ele><time>2026-04-08T17:21:10.648Z</time></trkpt><trkpt lat="43.6372991" lon="11.4561615"><ele>120.0</ele><time>2026-04-08T17:21:11.648Z</time></trkpt><trkpt lat="43.6374635" lon="11.4560153"><ele>120.0</ele><time>2026-04-08T17:21:12.647Z</time></trkpt><trkpt lat="43.6376296" lon="11.4558642"><ele>120.0</ele><time>2026-04-08T17:21:13.648Z</time></trkpt><trkpt lat="43.6378037" lon="11.4557073"><ele>120.0</ele><time>2026-04-08T17:21:14.647Z</time></trkpt><trkpt lat="43.6379769" lon="11.4555384"><ele>120.0</ele><time>2026-04-08T17:21:15.647Z</time></trkpt><trkpt lat="43.6381453" lon="11.4553749"><ele>120.0</ele><time>2026-04-08T17:21:16.647Z</time></trkpt><trkpt lat="43.6383179" lon="11.4552234"><ele>120.0</ele><time>2026-04-08T17:21:17.647Z</time></trkpt><trkpt lat="43.6384873" lon="11.4550671"><ele>120.33333333333334</ele><time>2026-04-08T17:21:18.647Z</time></trkpt><trkpt lat="43.6386558" lon="11.4549196"><ele>120.66666666666667</ele><time>2026-04-08T17:21:19.647Z</time></trkpt><trkpt lat="43.6388166" lon="11.4547712"><ele>121.0</ele><time>2026-04-08T17:21:20.647Z</time></trkpt><trkpt lat="43.6389533" lon="11.4546397"><ele>121.0</ele><time>2026-04-08T17:21:21.648Z</time></trkpt><trkpt lat="43.6390794" lon="11.4545349"><ele>121.0</ele><time>2026-04-08T17:21:22.647Z</time></trkpt><trkpt lat="43.6392013" lon="11.4544246"><ele>121.0</ele><time>2026-04-08T17:21:23.648Z</time></trkpt><trkpt lat="43.6393176" lon="11.4543235"><ele>121.0</ele><time>2026-04-08T17:21:24.648Z</time></trkpt><trkpt lat="43.6394221" lon="11.4542304"><ele>121.0</ele><time>2026-04-08T17:21:25.647Z</time></trkpt><trkpt lat="43.6395315" lon="11.4541427"><ele>121.0</ele><time>2026-04-08T17:21:26.647Z</time></trkpt><trkpt lat="43.6396291" lon="11.4540573"><ele>121.0</ele><time>2026-04-08T17:21:27.647Z</time></trkpt><trkpt lat="43.6397192" lon="11.4539621"><ele>121.0</ele><time>2026-04-08T17:21:28.648Z</time></trkpt><trkpt lat="43.6398058" lon="11.4538774"><ele>121.0</ele><time>2026-04-08T17:21:29.647Z</time></trkpt><trkpt lat="43.6398917" lon="11.4537905"><ele>121.0</ele><time>2026-04-08T17:21:30.647Z</time></trkpt><trkpt lat="43.6399834" lon="11.4536961"><ele>121.0</ele><time>2026-04-08T17:21:31.647Z</time></trkpt><trkpt lat="43.6400831" lon="11.4536009"><ele>121.0</ele><time>2026-04-08T17:21:32.647Z</time></trkpt><trkpt lat="43.640184" lon="11.4534964"><ele>121.0</ele><time>2026-04-08T17:21:33.647Z</time></trkpt><trkpt lat="43.6402823" lon="11.4533989"><ele>121.0</ele><time>2026-04-08T17:21:34.648Z</time></trkpt><trkpt lat="43.6403803" lon="11.4533021"><ele>121.0</ele><time>2026-04-08T17:21:35.647Z</time></trkpt><trkpt lat="43.6404725" lon="11.453218"><ele>121.0</ele><time>2026-04-08T17:21:36.648Z</time></trkpt><trkpt lat="43.6405584" lon="11.4531363"><ele>121.0</ele><time>2026-04-08T17:21:37.647Z</time></trkpt><trkpt lat="43.6406422" lon="11.4530564"><ele>121.0</ele><time>2026-04-08T17:21:38.647Z</time></trkpt><trkpt lat="43.640732" lon="11.4529827"><ele>121.0</ele><time>2026-04-08T17:21:39.648Z</time></trkpt><trkpt lat="43.6408209" lon="11.4529171"><ele>121.0</ele><time>2026-04-08T17:21:40.648Z</time></trkpt><trkpt lat="43.640916" lon="11.4528614"><ele>121.0</ele><time>2026-04-08T17:21:41.647Z</time></trkpt><trkpt lat="43.6410101" lon="11.4528239"><ele>121.00000000000001</ele><time>2026-04-08T17:21:42.648Z</time></trkpt><trkpt lat="43.6411033" lon="11.4528003"><ele>121.0</ele><time>2026-04-08T17:21:43.647Z</time></trkpt><trkpt lat="43.6411932" lon="11.4527964"><ele>121.0</ele><time>2026-04-08T17:21:44.648Z</time></trkpt><trkpt lat="43.6412742" lon="11.4527884"><ele>121.0</ele><time>2026-04-08T17:21:45.647Z</time></trkpt><trkpt lat="43.6413521" lon="11.4527741"><ele>121.00000000000001</ele><time>2026-04-08T17:21:46.647Z</time></trkpt><trkpt lat="43.641435" lon="11.452765"><ele>121.0</ele><time>2026-04-08T17:21:47.647Z</time></trkpt><trkpt lat="43.6415216" lon="11.4527659"><ele>121.00000000000001</ele><time>2026-04-08T17:21:48.647Z</time></trkpt><trkpt lat="43.6416099" lon="11.4527887"><ele>121.0</ele><time>2026-04-08T17:21:49.647Z</time></trkpt><trkpt lat="43.6416951" lon="11.4528069"><ele>121.0</ele><time>2026-04-08T17:21:50.647Z</time></trkpt><trkpt lat="43.6417777" lon="11.452791"><ele>121.0</ele><time>2026-04-08T17:21:51.647Z</time></trkpt><trkpt lat="43.6418419" lon="11.4527085"><ele>121.00000000000001</ele><time>2026-04-08T17:21:52.648Z</time></trkpt><trkpt lat="43.6418773" lon="11.4525973"><ele>121.0</ele><time>2026-04-08T17:21:53.648Z</time></trkpt><trkpt lat="43.6418879" lon="11.4524716"><ele>121.0</ele><time>2026-04-08T17:21:54.648Z</time></trkpt><trkpt lat="43.6419018" lon="11.4523381"><ele>121.0</ele><time>2026-04-08T17:21:55.647Z</time></trkpt><trkpt lat="43.6419487" lon="11.4522112"><ele>121.0</ele><time>2026-04-08T17:21:56.647Z</time></trkpt><trkpt lat="43.6420184" lon="11.4520959"><ele>121.0</ele><time>2026-04-08T17:21:57.647Z</time></trkpt><trkpt lat="43.6420994" lon="11.4519748"><ele>121.0</ele><time>2026-04-08T17:21:58.648Z</time></trkpt><trkpt lat="43.6421628" lon="11.4518457"><ele>121.6</ele><time>2026-04-08T17:21:59.648Z</time></trkpt><trkpt lat="43.6422142" lon="11.4517216"><ele>122.19999999999999</ele><time>2026-04-08T17:22:00.648Z</time></trkpt><trkpt lat="43.6422602" lon="11.4516034"><ele>122.80000000000001</ele><time>2026-04-08T17:22:01.648Z</time></trkpt><trkpt lat="43.6423184" lon="11.4515134"><ele>123.4</ele><time>2026-04-08T17:22:02.647Z</time></trkpt><trkpt lat="43.6423944" lon="11.4514514"><ele>124.0</ele><time>2026-04-08T17:22:03.647Z</time></trkpt><trkpt lat="43.6424826" lon="11.451419"><ele>124.00000000000001</ele><time>2026-04-08T17:22:04.648Z</time></trkpt><trkpt lat="43.6425603" lon="11.4514112"><ele>124.0</ele><time>2026-04-08T17:22:05.647Z</time></trkpt><trkpt lat="43.6426358" lon="11.4513879"><ele>124.0</ele><time>2026-04-08T17:22:06.648Z</time></trkpt><trkpt lat="43.6426828" lon="11.4513123"><ele>124.0</ele><time>2026-04-08T17:22:07.647Z</time></trkpt><trkpt lat="43.642704" lon="11.4512039"><ele>124.00000000000001</ele><time>2026-04-08T17:22:08.648Z</time></trkpt><trkpt lat="43.642691" lon="11.4510545"><ele>124.0</ele><time>2026-04-08T17:22:09.648Z</time></trkpt><trkpt lat="43.6426782" lon="11.4509095"><ele>124.16666666666667</ele><time>2026-04-08T17:22:10.647Z</time></trkpt><trkpt lat="43.6426639" lon="11.4507856"><ele>124.33333333333334</ele><time>2026-04-08T17:22:11.647Z</time></trkpt><trkpt lat="43.6426545" lon="11.4506618"><ele>124.5</ele><time>2026-04-08T17:22:12.647Z</time></trkpt><trkpt lat="43.6426467" lon="11.4505425"><ele>124.66666666666666</ele><time>2026-04-08T17:22:13.647Z</time></trkpt><trkpt lat="43.6426719" lon="11.4504561"><ele>124.83333333333333</ele><time>2026-04-08T17:22:14.647Z</time></trkpt><trkpt lat="43.6427358" lon="11.4503822"><ele>125.0</ele><time>2026-04-08T17:22:15.647Z</time></trkpt><trkpt lat="43.6428227" lon="11.4503601"><ele>125.14285714285714</ele><time>2026-04-08T17:22:16.648Z</time></trkpt><trkpt lat="43.6429012" lon="11.4503493"><ele>125.28571428571429</ele><time>2026-04-08T17:22:17.647Z</time></trkpt><trkpt lat="43.6429764" lon="11.450342"><ele>125.42857142857143</ele><time>2026-04-08T17:22:18.647Z</time></trkpt><trkpt lat="43.6430469" lon="11.4503417"><ele>125.57142857142857</ele><time>2026-04-08T17:22:19.647Z</time></trkpt><trkpt lat="43.6431148" lon="11.4503365"><ele>125.71428571428572</ele><time>2026-04-08T17:22:20.647Z</time></trkpt><trkpt lat="43.6431775" lon="11.4503269"><ele>125.85714285714286</ele><time>2026-04-08T17:22:21.647Z</time></trkpt><trkpt lat="43.6432704" lon="11.450322"><ele>126.0</ele><time>2026-04-08T17:22:23.647Z</time></trkpt><trkpt lat="43.6433392" lon="11.4502367"><ele>126.0</ele><time>2026-04-08T17:22:26.647Z</time></trkpt><trkpt lat="43.6433914" lon="11.4500928"><ele>126.0</ele><time>2026-04-08T17:22:28.647Z</time></trkpt><trkpt lat="43.6434581" lon="11.4500637"><ele>126.0</ele><time>2026-04-08T17:22:29.647Z</time></trkpt><trkpt lat="43.6435318" lon="11.4500583"><ele>126.0</ele><time>2026-04-08T17:22:30.647Z</time></trkpt><trkpt lat="43.643597" lon="11.4500633"><ele>126.0</ele><time>2026-04-08T17:22:31.647Z</time></trkpt><trkpt lat="43.6437031" lon="11.4499974"><ele>126.0</ele><time>2026-04-08T17:22:33.647Z</time></trkpt><trkpt lat="43.6437619" lon="11.4498617"><ele>127.0</ele><time>2026-04-08T17:22:35.647Z</time></trkpt><trkpt lat="43.6438742" lon="11.449792"><ele>127.0</ele><time>2026-04-08T17:22:37.647Z</time></trkpt><trkpt lat="43.6439399" lon="11.4497743"><ele>127.0</ele><time>2026-04-08T17:22:38.647Z</time></trkpt><trkpt lat="43.6440054" lon="11.4497597"><ele>127.0</ele><time>2026-04-08T17:22:39.647Z</time></trkpt><trkpt lat="43.6441141" lon="11.4497417"><ele>127.0</ele><time>2026-04-08T17:22:41.647Z</time></trkpt><trkpt lat="43.6441938" lon="11.4497195"><ele>127.0</ele><time>2026-04-08T17:22:43.648Z</time></trkpt></trkseg></trk></gpx>